[[{"header":{"parameterUnit":"m.s-1","parameterCategory":1,"la1":30.6,"la2":28.766,"lo1":-90.7593,"lo2":-88.6598,"dy":0.0162,"dx":0.0183,"nx":116,"ny":114,"refTime":"2024-05-08T12:00:00:Z","depth":0,"parameterNumber":2,"parameterNumberName":"U-component_of_WINDS"},"data":[0.0,0.0,0.0,0.0,0.0,0.0,0.0,0.0,0.0,0.0,0.0,0.0,0.0,0.0,0.0,0.0,0.0,0.0,0.0,0.0,0.0,0.0,0.0,0.0,0.0,0.0,0.0,0.0,0.0,0.0,0.0,0.0,0.0,0.0,0.0,0.0,0.0,0.0,0.0,0.0,0.0,0.0,0.0,0.0,0.0,0.0,0.0,0.0,0.0,0.0,0.0,0.0,0.0,0.0,0.0,0.0,0.0,0.0,0.0,0.0,0.0,0.0,0.0,0.0,0.0,0.0,0.0,0.0,0.0,0.0,0.0,0.0,0.0,0.0,0.0,0.0,0.0,0.0,0.0,0.0,0.0,0.0,0.0,0.0,0.0,0.0,0.0,0.0,0.0,0.0,0.0,0.0,0.0,0.0,0.0,0.0,0.0,0.0,0.0,0.0,0.0,0.0,0.0,0.0,0.0,0.0,0.0,0.0,0.0,0.0,0.0,0.0,0.0,0.0,0.0,0.0,0.0,0.0,0.0,0.0,0.0,0.0,0.0,0.0,0.0,0.0,0.0,0.0,0.0,0.0,0.0,0.0,0.0,0.0,0.0,0.0,0.0,0.0,0.0,0.0,0.0,0.0,0.0,0.0,0.0,0.0,0.0,0.0,0.0,0.0,0.0,0.0,0.0,0.0,0.0,0.0,0.0,0.0,0.0,0.0,0.0,0.0,0.0,0.0,0.0,0.0,0.0,0.0,0.0,0.0,0.0,0.0,0.0,0.0,0.0,0.0,0.0,0.0,0.0,0.0,0.0,0.0,0.0,0.0,0.0,0.0,0.0,0.0,0.0,0.0,0.0,0.0,0.0,0.0,0.0,0.0,0.0,0.0,0.0,0.0,0.0,0.0,0.0,0.0,0.0,0.0,0.0,0.0,0.0,0.0,0.0,0.0,0.0,0.0,0.0,0.0,0.0,0.0,0.0,0.0,0.0,0.0,0.0,0.0,0.0,0.0,0.0,0.0,0.0,0.0,0.0,0.0,0.0,0.0,0.0,0.0,0.0,0.0,0.0,0.0,0.0,0.0,0.0,0.0,0.0,0.0,0.0,0.0,0.0,0.0,0.0,0.0,0.0,0.0,0.0,0.0,0.0,0.0,0.0,0.0,0.0,0.0,0.0,0.0,0.0,0.0,0.0,0.0,0.0,0.0,0.0,0.0,0.0,0.0,0.0,0.0,0.0,0.0,0.0,0.0,0.0,0.0,0.0,0.0,0.0,0.0,0.0,0.0,0.0,0.0,0.0,0.0,0.0,0.0,0.0,0.0,0.0,0.0,0.0,0.0,0.0,0.0,0.0,0.0,0.0,0.0,0.0,0.0,0.0,0.0,0.0,0.0,0.0,0.0,0.0,0.0,0.0,0.0,0.0,0.0,0.0,0.0,0.0,0.0,0.0,0.0,0.0,0.0,0.0,0.0,0.0,0.0,0.0,0.0,0.0,0.0,0.0,0.0,0.0,0.0,0.0,0.0,0.0,0.0,0.0,0.0,0.0,0.0,0.0,0.0,0.0,0.0,0.0,0.0,0.0,0.0,0.0,0.0,0.0,0.0,0.0,0.0,0.0,0.0,0.0,0.0,0.0,0.0,0.0,0.0,0.0,0.0,0.0,0.0,0.0,0.0,0.0,0.0,0.0,0.0,0.0,0.0,0.0,0.0,0.0,0.0,0.0,0.0,0.0,0.0,0.0,0.0,0.0,0.0,0.0,0.0,0.0,0.0,0.0,0.0,0.0,0.0,0.0,0.0,0.0,0.0,0.0,0.0,0.0,0.0,0.0,0.0,0.0,0.0,0.0,0.0,0.0,0.0,0.0,0.0,0.0,0.0,0.0,0.0,0.0,0.0,0.0,0.0,0.0,0.0,0.0,0.0,0.0,0.0,0.0,0.0,0.0,0.0,0.0,0.0,0.0,0.0,0.0,0.0,0.0,0.0,0.0,0.0,0.0,0.0,0.0,0.0,0.0,0.0,0.0,0.0,0.0,0.0,0.0,0.0,0.0,0.0,0.0,0.0,0.0,0.0,0.0,0.0,0.0,0.0,0.0,0.0,0.0,0.0,0.0,0.0,0.0,0.0,0.0,0.0,0.0,0.0,0.0,0.0,0.0,0.0,0.0,0.0,0.0,0.0,0.0,0.0,0.0,0.0,0.0,0.0,0.0,0.0,0.0,0.0,0.0,0.0,0.0,0.0,0.0,0.0,0.0,0.0,0.0,0.0,0.0,0.0,0.0,0.0,0.0,0.0,0.0,0.0,0.0,0.0,0.0,0.0,0.0,0.0,0.0,0.0,0.0,0.0,0.0,0.0,0.0,0.0,0.0,0.0,0.0,0.0,0.0,0.0,0.0,0.0,0.0,0.0,0.0,0.0,0.0,0.0,0.0,0.0,0.0,0.0,0.0,0.0,0.0,0.0,0.0,0.0,0.0,0.0,0.0,0.0,0.0,0.0,0.0,0.0,0.0,0.0,0.0,0.0,0.0,0.0,0.0,0.0,0.0,0.0,0.0,0.0,0.0,0.0,0.0,0.0,0.0,0.0,0.0,0.0,0.0,0.0,0.0,0.0,0.0,0.0,0.0,0.0,0.0,0.0,0.0,0.0,0.0,0.0,0.0,0.0,0.0,0.0,0.0,0.0,0.0,0.0,0.0,0.0,0.0,0.0,0.0,0.0,0.0,0.0,0.0,0.0,0.0,0.0,0.0,0.0,0.0,0.0,0.0,0.0,0.0,0.0,0.0,0.0,0.0,0.0,0.0,0.0,0.0,0.0,0.0,0.0,0.0,0.0,0.0,0.0,0.0,0.0,0.0,0.0,0.0,0.0,0.0,0.0,0.0,0.0,0.0,0.0,0.0,0.0,0.0,0.0,0.0,0.0,0.0,0.0,0.0,0.0,0.0,0.0,0.0,0.0,0.0,0.0,0.0,0.0,0.0,0.0,0.0,0.0,0.0,0.0,0.0,0.0,0.0,0.0,0.0,0.0,0.0,0.0,0.0,0.0,0.0,0.0,0.0,0.0,0.0,0.0,0.0,0.0,0.0,0.0,0.0,0.0,0.0,0.0,0.0,0.0,0.0,0.0,0.0,0.0,0.0,0.0,0.0,0.0,0.0,0.0,0.0,0.0,0.0,0.0,0.0,0.0,0.0,0.0,0.0,0.0,0.0,0.0,0.0,0.0,0.0,0.0,0.0,0.0,0.0,0.0,0.0,0.0,0.0,0.0,0.0,0.0,0.0,0.0,0.0,0.0,0.0,0.0,0.0,0.0,0.0,0.0,0.0,0.0,0.0,0.0,0.0,0.0,0.0,0.0,0.0,0.0,0.0,0.0,0.0,0.0,0.0,0.0,0.0,0.0,0.0,0.0,0.0,0.0,0.0,0.0,0.0,0.0,0.0,0.0,0.0,0.0,0.0,0.0,0.0,0.0,0.0,0.0,0.0,0.0,0.0,0.0,0.0,0.0,0.0,0.0,0.0,0.0,0.0,0.0,0.0,0.0,0.0,0.0,0.0,0.0,0.0,0.0,0.0,0.0,0.0,0.0,0.0,0.0,0.0,0.0,0.0,0.0,0.0,0.0,0.0,0.0,0.0,0.0,0.0,0.0,0.0,0.0,0.0,0.0,0.0,0.0,0.0,0.0,0.0,0.0,0.0,0.0,0.0,0.0,0.0,0.0,0.0,0.0,0.0,0.0,0.0,0.0,0.0,0.0,0.0,0.0,0.0,0.0,0.0,0.0,0.0,0.0,0.0,0.0,0.0,0.0,0.0,0.0,0.0,0.0,0.0,0.0,0.0,0.0,0.0,0.0,0.0,0.0,0.0,0.0,0.0,0.0,0.0,0.0,0.0,0.0,0.0,0.0,0.0,0.0,0.0,0.0,0.0,0.0,0.0,0.0,0.0,0.0,0.0,0.0,0.0,0.0,0.0,0.0,0.0,0.0,0.0,0.0,0.0,0.0,0.0,0.0,0.0,0.0,0.0,0.0,0.0,0.0,0.0,0.0,0.0,0.0,0.0,0.0,0.0,0.0,0.0,0.0,0.0,0.0,0.0,0.0,0.0,0.0,0.0,0.0,0.0,0.0,0.0,0.0,0.0,0.0,0.0,0.0,0.0,0.0,0.0,0.0,0.0,0.0,0.0,0.0,0.0,0.0,0.0,0.0,0.0,0.0,0.0,0.0,0.0,0.0,0.0,0.0,0.0,0.0,0.0,0.0,0.0,0.0,0.0,0.0,0.0,0.0,0.0,0.0,0.0,0.0,0.0,0.0,0.0,0.0,0.0,0.0,0.0,0.0,0.0,0.0,0.0,0.0,0.0,0.0,0.0,0.0,0.0,0.0,0.0,0.0,0.0,0.0,0.0,0.0,0.0,0.0,0.0,0.0,0.0,0.0,0.0,0.0,0.0,0.0,0.0,0.0,0.0,0.0,0.0,0.0,0.0,0.0,0.0,0.0,0.0,0.0,0.0,0.0,0.0,0.0,0.0,0.0,0.0,0.0,0.0,0.0,0.0,0.0,0.0,0.0,0.0,0.0,0.0,0.0,0.0,0.0,0.0,0.0,0.0,0.0,0.0,0.0,0.0,0.0,0.0,0.0,0.0,0.0,0.0,0.0,0.0,0.0,0.0,0.0,0.0,0.0,0.0,0.0,0.0,0.0,0.0,0.0,0.0,0.0,0.0,0.0,0.0,0.0,0.0,0.0,0.0,0.0,0.0,0.0,0.0,0.0,0.0,0.0,0.0,0.0,0.0,0.0,0.0,0.0,0.0,0.0,0.0,0.0,0.0,0.0,0.0,0.0,0.0,0.0,0.0,0.0,0.0,0.0,0.0,0.0,0.0,0.0,0.0,0.0,0.0,0.0,0.0,0.0,0.0,0.0,0.0,0.0,0.0,0.0,0.0,0.0,0.0,0.0,0.0,0.0,0.0,0.0,0.0,0.0,0.0,0.0,0.0,0.0,0.0,0.0,0.0,0.0,0.0,0.0,0.0,0.0,0.0,0.0,0.0,0.0,0.0,0.0,0.0,0.0,0.0,0.0,0.0,0.0,0.0,0.0,0.0,0.0,0.0,0.0,0.0,0.0,0.0,0.0,0.0,0.0,0.0,0.0,0.0,0.0,0.0,0.0,0.0,0.0,0.0,0.0,0.0,0.0,0.0,0.0,0.0,0.0,0.0,0.0,0.0,0.0,0.0,0.0,0.0,0.0,0.0,0.0,0.0,0.0,0.0,0.0,0.0,0.0,0.0,0.0,0.0,0.0,0.0,0.0,0.0,0.0,0.0,0.0,0.0,0.0,0.0,0.0,0.0,0.0,0.0,0.0,0.0,0.0,0.0,0.0,0.0,0.0,0.0,0.0,0.0,0.0,0.0,0.0,0.0,0.0,0.0,0.0,0.0,0.0,0.0,0.0,0.0,0.0,0.0,0.0,0.0,0.0,0.0,0.0,0.0,0.0,0.0,0.0,0.0,0.0,0.0,0.0,0.0,0.0,0.0,0.0,0.0,0.0,0.0,0.0,0.0,0.0,0.0,0.0,0.0,0.0,0.0,0.0,0.0,0.0,0.0,0.0,0.0,0.0,0.0,0.0,0.0,0.0,0.0,0.0,0.0,0.0,0.0,0.0,0.0,0.0,0.0,0.0,0.0,0.0,0.0,0.0,0.0,0.0,0.0,0.0,0.0,0.0,0.0,0.0,0.0,0.0,0.0,0.0,0.0,0.0,0.0,0.0,0.0,0.0,0.0,0.0,0.0,0.0,0.0,0.0,0.0,0.0,0.0,0.0,0.0,0.0,0.0,0.0,0.0,0.0,0.0,0.0,0.0,0.0,0.0,0.0,0.0,0.0,0.0,0.0,0.0,0.0,0.0,0.0,0.0,0.0,0.0,0.0,0.0,0.0,0.0,0.0,0.0,0.0,0.0,0.0,0.0,0.0,0.0,0.0,0.0,0.0,0.0,0.0,0.0,0.0,0.0,0.0,0.0,0.0,0.0,0.0,0.0,0.0,0.0,0.0,0.0,0.0,0.0,0.0,0.0,0.0,0.0,0.0,0.0,0.0,0.0,0.0,0.0,0.0,4.1378,4.1695,0.0,0.0,0.0,0.0,0.0,0.0,0.0,0.0,0.0,0.0,0.0,0.0,0.0,0.0,0.0,0.0,0.0,0.0,0.0,0.0,0.0,0.0,0.0,3.5132,3.5253,3.5561,3.5931,3.6137,3.6137,0.0,0.0,0.0,0.0,0.0,3.7353,3.8064,3.843,3.843,3.8776,3.9165,3.9552,4.0662,4.0574,3.9525,0.0,0.0,0.0,0.0,0.0,0.0,0.0,0.0,0.0,0.0,0.0,0.0,0.0,0.0,0.0,0.0,0.0,0.0,0.0,0.0,0.0,0.0,0.0,0.0,0.0,0.0,0.0,0.0,0.0,0.0,0.0,0.0,0.0,0.0,0.0,0.0,0.0,0.0,0.0,0.0,0.0,0.0,0.0,0.0,0.0,0.0,0.0,0.0,0.0,0.0,0.0,0.0,0.0,0.0,0.0,0.0,0.0,0.0,0.0,0.0,0.0,0.0,0.0,0.0,0.0,0.0,0.0,0.0,0.0,0.0,4.3364,4.2479,0.0,0.0,0.0,0.0,0.0,0.0,0.0,0.0,0.0,0.0,0.0,0.0,0.0,0.0,0.0,0.0,0.0,0.0,0.0,0.0,0.0,3.3726,3.4519,3.5018,3.5386,3.5587,3.6149,3.6574,3.6702,3.6808,0.0,0.0,0.0,3.8221,3.8086,3.8802,3.9125,3.8967,3.9128,3.9677,4.0642,4.1939,4.1893,4.0722,4.0404,0.0,0.0,0.0,0.0,0.0,0.0,0.0,0.0,0.0,0.0,0.0,0.0,0.0,0.0,0.0,0.0,0.0,0.0,0.0,0.0,0.0,0.0,0.0,0.0,0.0,0.0,0.0,0.0,0.0,0.0,0.0,0.0,0.0,0.0,0.0,0.0,0.0,0.0,0.0,0.0,0.0,0.0,0.0,0.0,0.0,0.0,0.0,0.0,0.0,0.0,0.0,0.0,0.0,0.0,0.0,0.0,0.0,0.0,0.0,0.0,0.0,0.0,0.0,4.9044,4.9713,5.0161,5.0161,5.0642,5.1224,4.7302,4.4992,4.4016,4.408,0.0,0.0,0.0,0.0,0.0,0.0,0.0,0.0,0.0,0.0,0.0,0.0,0.0,0.0,0.0,0.0,0.0,0.0,0.0,3.3208,3.4463,3.411,3.4275,3.5477,3.5698,3.6021,3.667,3.7308,3.7723,3.7886,3.9119,3.9525,3.8876,3.9592,3.9605,3.8904,3.996,4.1217,4.2619,4.3235,4.3413,4.315,4.1583,4.0776,4.0606,0.0,0.0,0.0,0.0,0.0,0.0,0.0,0.0,0.0,0.0,0.0,0.0,0.0,0.0,0.0,0.0,0.0,0.0,0.0,0.0,0.0,0.0,0.0,0.0,0.0,0.0,0.0,0.0,0.0,0.0,0.0,0.0,0.0,0.0,0.0,0.0,0.0,0.0,0.0,0.0,0.0,4.0005,4.0079,0.0,0.0,0.0,0.0,0.0,0.0,0.0,0.0,0.0,0.0,0.0,0.0,0.0,4.8638,5.0017,5.2833,5.4016,5.3594,5.4972,5.5336,5.482,5.482,5.5572,5.6817,5.5542,0.0,4.7148,4.5293,0.0,0.0,0.0,0.0,0.0,0.0,0.0,0.0,0.0,0.0,0.0,0.0,0.0,0.0,0.0,0.0,0.0,0.0,0.0,0.0,0.0,3.4384,3.492,3.5493,3.6611,3.7096,3.6667,3.7638,3.8147,3.7845,3.8858,3.909,3.8339,3.9043,3.956,3.9872,4.1961,4.35,4.4489,4.5565,4.5804,4.5282,4.4101,4.2713,4.1223,4.0613,0.0,0.0,0.0,0.0,0.0,0.0,0.0,0.0,0.0,0.0,0.0,0.0,0.0,0.0,0.0,0.0,0.0,0.0,0.0,0.0,0.0,0.0,0.0,0.0,0.0,0.0,0.0,0.0,0.0,0.0,0.0,0.0,0.0,0.0,0.0,0.0,0.0,0.0,0.0,4.0608,4.102,4.0208,4.0817,4.1014,0.0,0.0,0.0,0.0,0.0,0.0,0.0,0.0,0.0,5.0025,5.1818,5.3475,5.4938,5.7094,5.8457,5.9007,6.0047,6.0612,6.0714,6.0714,6.1264,6.2255,6.1501,5.9235,5.5683,5.0929,4.7342,4.4757,0.0,0.0,0.0,0.0,4.4651,4.4987,0.0,0.0,0.0,0.0,0.0,0.0,0.0,0.0,0.0,0.0,0.0,0.0,3.3893,3.5093,3.5937,3.6235,3.7516,3.7952,3.7173,3.7722,3.7997,3.7803,3.8323,3.8358,3.7822,3.8814,4.0183,4.1935,4.4451,4.6162,4.7145,4.8402,4.8644,4.7996,4.7007,4.4996,4.2307,4.1338,4.0689,4.0296,0.0,0.0,0.0,0.0,0.0,0.0,0.0,0.0,0.0,0.0,0.0,0.0,0.0,0.0,0.0,0.0,0.0,0.0,0.0,0.0,0.0,0.0,0.0,0.0,0.0,0.0,0.0,0.0,0.0,0.0,0.0,0.0,0.0,0.0,0.0,0.0,0.0,4.1697,4.2266,4.058,4.2198,4.2807,0.0,0.0,0.0,0.0,0.0,0.0,4.8984,5.0819,5.2951,5.5403,5.7128,5.8853,6.0733,6.2042,6.3541,6.5233,6.5628,6.6159,6.6891,6.6891,6.706,6.7364,6.6643,6.5358,6.3304,5.6783,5.2012,4.8688,4.7767,4.6955,4.6411,4.7342,4.7828,4.8061,0.0,0.0,0.0,0.0,0.0,0.0,0.0,0.0,0.0,0.0,0.0,3.3245,3.5178,3.6034,3.6942,3.8162,3.7764,3.7743,3.8445,3.7366,3.7043,3.7771,3.7843,3.7851,3.7807,3.9586,4.2176,4.5538,4.7272,4.918,5.1208,5.1746,5.1946,5.1839,4.9944,4.7267,4.4038,4.2306,4.1545,4.1348,3.9572,0.0,0.0,0.0,0.0,0.0,0.0,0.0,0.0,0.0,0.0,0.0,0.0,0.0,0.0,0.0,0.0,0.0,0.0,0.0,0.0,0.0,0.0,0.0,0.0,0.0,0.0,0.0,0.0,0.0,0.0,0.0,0.0,0.0,0.0,0.0,0.0,0.0,0.0,4.1407,4.4357,0.0,0.0,0.0,0.0,4.8511,5.0025,5.2148,5.509,5.6012,5.7814,6.0815,6.3024,6.5561,6.8504,6.9327,7.0781,7.2913,7.227,7.2338,7.3048,7.3048,7.271,7.2022,7.1267,6.9677,6.7151,6.1153,5.69,5.4067,5.2536,5.1514,5.0871,5.0937,5.1427,5.201,0.0,0.0,0.0,0.0,0.0,3.1503,3.1503,3.1503,3.175,3.2422,3.3245,3.454,3.6498,3.7704,3.8901,4.0236,4.0505,4.0364,3.9809,3.8897,3.8132,3.7569,3.7219,3.784,3.9553,4.183,4.4838,4.8634,5.0972,5.3146,5.5119,5.5283,5.5162,5.4713,5.3156,5.1319,4.9146,4.5524,4.3269,4.2102,4.1041,4.0285,0.0,0.0,0.0,0.0,0.0,0.0,0.0,0.0,0.0,0.0,0.0,0.0,0.0,0.0,0.0,0.0,0.0,0.0,0.0,0.0,0.0,0.0,0.0,0.0,0.0,0.0,0.0,0.0,0.0,0.0,0.0,0.0,0.0,0.0,0.0,0.0,0.0,4.7691,5.1352,0.0,5.1472,5.2461,5.345,5.3991,5.6325,5.8786,6.1289,6.3531,6.6068,6.9056,7.0398,7.1774,7.3341,7.3612,7.4131,7.4909,7.4187,7.3939,7.4187,7.3725,7.3116,7.2394,7.2124,7.1007,6.9225,6.7083,6.3599,5.9481,5.7915,5.6858,5.6206,5.6206,5.608,5.5962,0.0,0.0,0.0,3.1503,3.1503,3.1503,3.1503,3.169,3.2086,3.2759,3.421,3.5925,3.7875,3.966,4.1255,4.2591,4.2711,4.2142,4.0825,3.946,3.8234,3.7135,3.7582,3.9117,4.1784,4.478,4.8125,5.1894,5.4538,5.6645,5.8125,5.8125,5.7885,5.745,5.6107,5.5017,5.394,4.9972,4.6548,4.3642,4.2151,4.1342,4.0876,0.0,0.0,0.0,0.0,0.0,0.0,0.0,0.0,0.0,0.0,0.0,0.0,0.0,0.0,0.0,0.0,0.0,0.0,0.0,0.0,0.0,0.0,0.0,0.0,0.0,0.0,0.0,0.0,0.0,0.0,0.0,0.0,0.0,0.0,0.0,5.3018,5.3737,5.8008,6.0216,5.8506,5.9462,6.0375,6.0926,6.325,6.5652,6.7861,7.0128,7.2225,7.4165,7.4965,7.5743,7.6466,7.6217,7.6352,7.6826,7.6115,7.5608,7.5359,7.4864,7.3962,7.2778,7.2778,7.1921,7.0567,7.0567,6.8538,6.5189,6.3159,6.1897,6.1221,6.0984,6.0409,5.9776,0.0,3.0635,3.1503,3.1503,3.1503,3.1503,3.1503,3.2086,3.2729,3.3395,3.5288,3.7323,3.9302,4.1864,4.3997,4.5364,4.4207,4.2891,4.1613,3.896,3.7225,3.6643,3.9119,4.1773,4.4456,4.8353,5.2013,5.5341,5.7932,5.9548,6.019,6.019,6.019,6.01,5.8786,5.8175,5.7995,5.5406,5.1337,4.63,4.295,4.2366,4.3165,0.0,0.0,0.0,0.0,0.0,0.0,0.0,0.0,0.0,0.0,0.0,0.0,0.0,0.0,0.0,0.0,0.0,0.0,0.0,0.0,0.0,0.0,0.0,0.0,0.0,0.0,0.0,0.0,0.0,0.0,0.0,0.0,0.0,4.9213,5.4406,5.85,5.9293,6.3994,6.6328,6.4153,6.5878,6.7783,6.9282,7.0725,7.2484,7.4649,7.5473,7.5879,7.5912,7.6657,7.7401,7.809,7.7401,7.7727,7.9114,7.8382,7.765,7.6961,7.6927,7.5687,7.3556,7.3522,7.2665,7.1334,7.1289,7.13,7.0996,6.8053,6.6474,6.5706,6.4986,6.4231,6.3342,2.9615,3.0635,3.1503,3.1503,3.1503,3.1503,3.1503,3.2086,3.2729,3.3395,3.6066,3.8999,4.1983,4.4636,4.7119,4.9392,4.7508,4.5623,4.4327,4.0836,3.8981,3.932,4.1824,4.5144,4.9202,5.2755,5.594,5.8753,6.0446,6.1627,6.2269,6.2269,6.2016,6.1493,6.0641,6.0013,5.9428,5.7739,5.5645,5.3007,4.7788,4.5059,4.3833,0.0,0.0,0.0,0.0,0.0,0.0,0.0,0.0,0.0,0.0,0.0,0.0,0.0,0.0,0.0,0.0,0.0,0.0,0.0,0.0,0.0,0.0,0.0,0.0,0.0,0.0,0.0,0.0,0.0,0.0,0.0,5.2443,5.5082,5.4016,5.9936,6.5246,6.7647,7.2056,7.4672,7.4063,7.4571,7.5112,7.5518,7.6408,7.7456,7.8619,7.9375,8.0006,8.0534,8.0771,8.0716,8.039,8.0187,8.0052,7.9904,7.916,7.8674,7.8471,7.7401,7.6251,7.5045,7.3962,7.2981,7.2056,7.1537,7.13,7.1165,6.9789,6.8808,6.8064,6.7286,6.6203,6.4827,2.9937,3.0807,3.1503,3.1503,3.1503,3.1503,3.1503,3.2295,3.3058,3.3462,3.6844,4.0197,4.272,4.5823,4.8446,5.0242,4.8226,4.6082,4.4217,4.1414,4.0477,4.1973,4.5354,4.8974,5.2773,5.6119,5.8843,6.0938,6.2016,6.2854,6.3482,6.3482,6.3422,6.3304,6.2915,6.2346,6.1657,6.0312,5.9189,5.7826,5.2977,4.9643,4.7292,4.4607,4.3905,4.4155,4.2407,4.2305,4.2814,4.1686,0.0,0.0,0.0,0.0,0.0,0.0,0.0,0.0,0.0,0.0,0.0,0.0,0.0,0.0,0.0,0.0,0.0,0.0,0.0,0.0,0.0,0.0,0.0,0.0,5.8026,6.1975,6.3024,6.714,7.1199,7.4209,7.7705,7.9837,7.9837,7.9837,7.9837,7.9837,8.0242,8.067,8.1088,8.1832,8.2272,8.2395,8.2395,8.2192,8.1765,8.1169,8.0796,8.0648,7.9904,7.9384,7.9046,7.7874,7.6758,7.5642,7.4458,7.3375,7.236,7.1943,7.1571,7.1233,0.0,0.0,0.0,0.0,6.6711,6.5436,3.0372,3.1039,3.1503,3.1503,3.1503,3.1503,3.1503,3.2639,3.3492,3.3492,3.7524,4.0885,4.2131,4.5744,4.8427,4.9307,4.7418,4.5144,4.267,4.1454,4.2102,4.4954,4.9363,5.3042,5.582,5.8873,6.1088,6.2421,6.2944,6.3602,6.4336,6.4186,6.447,6.5114,6.5024,6.468,6.4036,6.2839,6.1942,6.106,5.7975,5.5072,5.2127,4.8215,4.7915,4.9155,4.5962,4.4977,4.4881,4.299,0.0,0.0,0.0,0.0,0.0,0.0,0.0,0.0,0.0,0.0,0.0,0.0,0.0,0.0,0.0,0.0,0.0,0.0,0.0,0.0,0.0,0.0,0.0,0.0,6.3768,6.9102,7.3624,7.5033,7.6577,7.9147,8.1346,8.2665,8.2767,8.2699,8.2699,8.2767,8.2699,8.2665,8.2665,8.3287,0.0,0.0,0.0,8.2598,8.253,8.1224,8.0851,8.1405,8.075,8.0107,7.9452,7.8619,7.7515,7.6149,7.5156,7.3972,7.2732,7.2496,7.1988,7.1233,7.0477,7.0206,6.9936,6.7715,6.6508,6.574,3.0372,3.1039,3.1503,3.1503,3.1503,3.1503,3.1503,3.2639,3.3492,3.3492,3.7524,4.0705,4.1502,4.4646,4.7587,4.983,4.7238,4.4815,4.322,4.3399,4.5443,4.9692,5.3306,5.6718,5.9893,6.1657,6.3153,6.4426,6.4036,6.4739,6.6416,6.5308,6.5159,6.5787,6.5233,6.4934,6.477,6.3977,6.3273,6.2555,6.0835,5.7932,5.4251,5.0757,4.9427,4.9136,4.7387,4.7143,4.7497,4.6704,4.598,4.5197,4.4148,0.0,0.0,0.0,0.0,0.0,0.0,0.0,0.0,0.0,0.0,0.0,0.0,0.0,0.0,0.0,0.0,0.0,0.0,0.0,0.0,6.4062,6.9079,7.3759,7.828,8.0547,8.1765,8.1752,8.3206,8.4424,8.5093,8.4559,8.4424,8.5093,8.4525,8.4174,8.4174,8.4323,8.4309,8.4174,8.4174,8.3883,8.3287,8.3016,8.2644,8.2205,8.2022,0.0,8.1718,8.0378,7.96,7.9194,7.6623,7.5337,7.4931,7.3138,7.1988,7.1233,7.0477,7.0206,7.0003,6.8301,6.759,6.7252,3.0867,3.1271,3.1503,3.1503,3.1503,3.16,3.1966,3.2849,3.3612,3.3949,3.7144,3.9649,4.0337,4.2761,4.4855,4.6172,4.4506,4.3479,4.3788,4.5693,4.8876,5.3503,5.6885,5.9727,6.2061,6.3707,6.4874,6.5518,6.5503,6.6206,6.7493,6.6819,6.667,6.6984,6.664,6.6131,6.5488,6.5129,6.4425,6.3482,6.2495,6.0715,5.8291,5.4927,5.3473,5.2947,5.0971,5.0253,5.0022,4.8473,4.7479,4.6619,4.5039,4.4151,4.3526,0.0,0.0,0.0,0.0,0.0,0.0,0.0,0.0,0.0,0.0,0.0,0.0,0.0,0.0,5.1036,5.4944,0.0,6.3805,6.8213,7.2701,7.6542,7.9049,8.033,8.1231,8.1676,8.3012,8.3946,8.3988,8.4261,8.4328,8.4022,8.3955,8.3788,8.344,8.2628,8.2942,8.454,8.3456,8.3227,8.4052,8.3308,8.2949,8.2949,8.2564,8.2395,8.2361,8.1257,8.056,8.0107,7.8213,7.6758,7.554,7.3308,7.2191,7.1774,7.1041,7.0534,7.0105,6.9327,6.8548,6.7726,3.1361,3.1503,3.1503,3.1503,3.1503,3.172,3.2392,3.3058,3.3732,3.4406,3.6665,3.8362,3.8802,4.0496,4.1622,4.1622,4.1952,4.298,4.4935,4.8349,5.233,5.6958,6.0057,6.2301,6.3632,6.5323,6.6311,6.6565,6.6999,6.7673,6.8556,6.8317,6.8241,6.8361,6.8257,6.7523,6.637,6.6251,6.5503,6.4306,6.3572,6.2944,6.2151,5.9189,5.7826,5.7154,5.4653,5.3097,5.1887,4.9774,4.8457,4.7399,4.5783,4.5385,4.5306,4.4275,4.4665,0.0,0.0,0.0,0.0,0.0,0.0,0.0,0.0,0.0,4.9402,5.2167,5.3916,5.615,6.0028,6.5019,6.9217,7.138,7.511,7.7994,7.8724,7.8815,7.919,8.0243,8.165,8.2513,8.2418,8.3027,8.3,8.2,8.2665,8.2708,8.1785,8.0796,8.1297,8.3586,8.1821,8.192,8.4116,8.2952,8.2829,8.3693,8.3105,8.2834,8.28,8.19,8.1202,8.0547,7.9397,7.7671,7.554,7.3477,7.2529,7.2326,7.1605,7.0939,7.0409,7.024,6.9428,6.8233,3.1271,3.1503,3.1503,3.1503,3.1503,3.172,3.2392,3.3058,3.3732,3.4406,3.6246,3.7345,3.6874,3.805,3.8859,3.8859,4.2531,4.5704,4.7709,5.1498,5.5705,6.0342,6.257,6.4306,6.5652,6.646,6.7478,6.8675,6.8151,6.881,7.056,6.9423,6.9199,6.9738,6.9153,6.8465,6.7748,6.7134,6.646,6.5667,6.4395,6.3857,6.3617,6.2121,6.0446,5.862,5.6581,5.4294,5.2157,5.1858,5.0552,4.9048,4.8798,4.8756,4.8317,4.6034,0.0,4.5366,4.4322,4.4032,4.4321,4.5536,4.5827,4.7141,0.0,0.0,5.4199,5.7516,6.0401,6.2453,6.2938,6.7248,7.1427,7.3605,7.594,7.8022,7.9468,7.9675,7.9184,7.7871,7.9173,8.0953,8.2986,8.1434,8.0509,8.0989,8.1856,8.1658,8.0137,8.1239,8.1429,8.0376,8.0071,8.0761,8.2458,8.2307,8.2966,8.4492,8.4377,8.4343,8.4309,8.2902,8.2225,8.1989,7.9295,7.721,7.5574,7.403,7.2981,7.2326,7.1605,7.1267,7.1097,7.0443,7.0105,6.9733,3.1331,3.1503,3.1503,3.1503,3.1809,3.2295,3.2976,3.3642,3.4308,3.4989,3.5789,3.6207,3.5938,3.6387,3.6716,3.6716,4.0586,4.4536,4.8068,5.2378,5.7184,6.257,6.4291,6.5802,6.7134,6.8211,6.9019,6.9572,6.9632,7.0081,7.0889,7.035,7.0051,6.9977,6.9708,6.9199,6.8541,6.7852,6.7194,6.646,6.5129,6.4366,6.3827,6.2151,6.0027,5.7723,5.6179,5.4144,0.0,5.0433,4.9666,4.9168,4.8368,4.8128,4.7785,4.5959,4.5293,0.0,4.4127,0.0,0.0,0.0,4.8433,5.0534,5.5303,5.6514,5.7709,6.1431,6.3991,6.6189,6.8108,7.1601,7.4295,0.0,7.6227,7.7292,7.6998,7.6606,7.618,7.5663,7.5719,7.6849,7.9536,8.0017,7.979,7.8863,7.9905,7.992,7.8423,7.8091,7.8518,7.9773,7.8847,7.9126,8.0781,8.0796,8.1136,8.1824,8.2774,8.2993,8.2555,8.2904,8.2577,8.1629,7.9105,7.7379,7.6251,7.43,7.3082,7.2326,7.1605,7.13,7.1267,7.0962,7.0578,7.0037,3.1361,3.1503,3.1503,3.1503,3.2206,3.2938,3.3432,3.4069,3.4727,3.54,3.5511,3.5511,3.5511,3.5511,3.5511,3.5511,3.8939,4.301,4.747,5.2247,5.7483,6.3228,6.5263,6.6909,6.8257,6.9558,7.0247,7.0247,7.0679,7.0889,7.0889,7.0889,7.0679,7.0247,7.0247,6.9887,6.9213,6.8571,6.7792,6.6879,6.5547,6.4381,6.3228,6.109,5.8501,5.588,5.4773,5.2725,5.0272,4.8177,4.781,4.8049,4.7279,4.7279,4.7279,4.5753,4.488,4.4438,4.4703,0.0,0.0,4.9567,5.1587,5.4118,5.8662,6.0042,6.1456,6.5185,6.7469,6.935,7.1186,7.4012,7.572,7.4642,7.5709,7.6219,7.5044,7.4018,7.3452,7.3699,7.2585,7.2806,7.5278,7.739,7.8066,7.6743,7.8159,7.8455,7.6988,7.6405,7.6907,7.8659,7.7566,7.762,7.9111,7.9111,7.9343,7.9803,8.0974,8.1471,8.1435,8.2637,8.2374,8.0898,7.8868,7.7684,7.6995,7.4537,7.3184,7.2597,7.1672,7.13,7.13,7.13,7.0973,7.0364,3.1361,3.1503,3.1503,3.1503,3.2572,3.3492,3.3492,3.4069,3.4727,3.54,3.5511,3.5511,3.5511,3.5511,3.5511,3.5511,3.8512,4.2132,4.6091,5.1307,5.6602,6.1926,6.5233,6.7597,6.8944,7.0231,7.0889,7.0889,7.0889,7.0889,7.0889,7.0889,7.0889,7.0889,7.0889,7.053,6.9917,6.9243,6.8196,6.6879,6.5547,6.3872,6.1882,5.9205,5.6154,5.3216,5.2558,4.9781,4.636,4.5633,4.5394,4.5514,4.6121,4.7209,0.0,4.5873,4.4357,4.3918,0.0,0.0,4.9149,5.3061,5.5062,5.7441,6.2717,6.4411,6.583,6.9133,7.158,7.2495,7.045,7.2894,7.4735,7.3196,7.4086,7.4954,7.4903,7.321,7.1969,7.1959,7.0263,6.9648,0.0,7.2917,7.4342,7.4941,7.7074,7.7642,7.6029,7.7989,7.8188,7.6094,7.596,7.6395,7.7354,7.7371,7.8202,7.9788,7.9849,8.0692,8.216,8.2342,8.1629,8.0141,7.8665,7.7988,7.7718,7.474,7.3488,7.3319,7.1875,7.13,7.13,7.13,7.13,7.1064,3.1361,3.1503,3.1503,3.1503,3.2602,3.3492,3.3492,3.4442,3.525,3.5459,3.5511,0.0,0.0,0.0,0.0,0.0,3.7674,4.0576,4.4077,4.9262,5.4376,5.9235,6.3019,6.5832,6.7627,6.8974,6.9842,7.0306,7.0709,7.0889,7.0889,7.0889,7.0889,7.0889,7.0889,7.056,6.9947,6.9273,6.8974,6.8569,6.465,6.3199,6.275,5.7004,5.3109,5.0295,0.0,4.5822,4.4147,4.307,4.302,4.3499,4.4117,4.4925,4.5424,4.4296,4.4895,4.6251,4.7619,0.0,5.3725,5.7257,5.9472,6.1917,6.6339,6.7517,6.8001,6.9106,6.9215,6.8619,6.6972,6.7999,6.936,7.0161,7.1757,7.3389,7.4706,7.3928,7.2432,7.0231,6.9798,0.0,0.0,0.0,0.0,7.4197,7.6137,7.69,7.5933,7.6637,7.687,7.6514,7.5677,7.5597,7.6375,7.5937,7.5983,7.6549,7.6662,7.7609,7.9192,7.8297,7.8179,7.8604,7.7627,7.7241,7.7096,7.5067,7.3646,7.2665,7.1672,7.13,7.13,7.13,7.13,7.1165,0.0,3.1503,3.157,3.1817,3.2759,0.0,0.0,0.0,0.0,0.0,0.0,0.0,0.0,0.0,0.0,0.0,0.0,3.902,4.2053,4.633,5.0589,5.479,5.8291,6.0878,6.2391,6.3498,6.4485,6.5398,6.6011,6.6684,6.7402,6.7897,6.8226,6.8465,6.8944,6.8944,6.8511,6.7597,6.6909,6.6026,6.1702,5.9608,5.8457,5.2875,4.9224,0.0,4.3928,4.2472,4.1774,4.0956,4.1283,4.2101,4.2491,4.322,4.4057,4.4566,4.6281,4.8577,5.1109,5.4491,5.8141,6.1687,6.3722,6.5637,6.866,6.899,6.8571,6.8315,6.6864,6.5218,6.3842,6.3752,6.4605,6.6849,6.8465,7.047,7.3419,7.2641,7.1264,6.9842,6.9439,6.887,0.0,0.0,0.0,7.3462,7.536,7.6407,7.6228,7.6694,7.6886,7.6779,7.6006,7.5557,7.5527,7.5125,7.4886,7.492,7.5366,7.6011,7.6805,7.681,7.7069,7.7513,7.7311,7.7099,7.6758,7.4965,7.3646,7.2699,7.1672,7.13,7.13,7.13,7.13,7.1199,0.0,0.0,3.172,0.0,0.0,0.0,0.0,0.0,0.0,0.0,0.0,0.0,0.0,0.0,0.0,0.0,0.0,0.0,4.0038,4.2691,4.5633,4.8869,5.1612,5.3366,5.403,5.473,5.57,5.6944,5.762,5.8922,6.0821,6.2106,6.3003,6.3617,6.4874,6.5428,6.5308,6.4036,6.2106,5.9621,5.6941,5.3593,4.9968,4.7187,4.4944,4.306,4.1106,3.9999,3.9511,3.9451,4.0367,0.0,0.0,0.0,4.4017,4.67,4.8577,5.1013,5.6752,5.985,6.2406,6.6251,6.7643,6.8437,6.9708,6.89,6.7688,6.6864,6.459,6.2315,0.0,0.0,6.0759,6.3408,6.465,6.6864,7.1474,6.9977,6.9049,0.0,0.0,0.0,0.0,0.0,0.0,7.2847,7.4762,7.6168,7.6766,7.8011,7.813,7.6886,7.6749,7.6138,7.4946,7.4916,7.4886,7.4843,7.5732,7.5752,7.5103,7.7485,7.7914,7.6794,7.7518,7.7481,7.6792,7.4503,7.3522,7.3353,7.1887,7.13,7.13,7.13,7.13,7.1199,0.0,0.0,0.0,0.0,0.0,0.0,0.0,0.0,0.0,0.0,0.0,0.0,0.0,0.0,0.0,0.0,0.0,0.0,3.7413,4.0864,4.3459,4.4775,4.8783,5.1265,5.1953,5.3126,5.4114,5.494,5.5628,5.6196,5.6705,5.7047,5.7317,5.7466,5.7782,5.7693,5.7201,5.6842,5.6615,5.6119,5.251,5.1001,5.0428,4.5811,4.3748,4.306,4.1106,4.0606,4.0825,0.0,0.0,0.0,0.0,4.4815,4.679,0.0,0.0,5.6602,6.0146,6.3977,6.7448,6.9423,6.9708,6.9588,6.9917,6.8211,6.5772,6.3124,6.013,5.7077,0.0,0.0,0.0,6.1329,6.5712,0.0,7.43,7.43,0.0,7.3193,0.0,7.0785,7.044,7.0709,0.0,0.0,7.5048,7.6168,7.6766,7.7125,7.7394,7.7544,7.6125,7.5467,7.5647,7.5155,7.4646,7.4138,7.3901,7.3422,7.2744,7.2881,7.4052,7.589,7.5529,7.6268,7.7548,7.527,7.3984,7.3353,7.1887,7.13,7.13,7.13,7.13,7.1267,0.0,0.0,0.0,0.0,0.0,0.0,0.0,0.0,0.0,0.0,0.0,0.0,0.0,0.0,0.0,0.0,0.0,0.0,0.0,3.9248,4.0915,4.1565,4.4077,4.5632,4.6001,4.677,4.7878,4.9411,4.9535,5.0313,5.1738,5.1738,5.1887,5.2199,5.2755,5.2803,5.2444,5.2157,5.1768,0.0,0.0,4.6591,4.6132,4.316,4.2023,4.1904,4.1115,4.1444,0.0,0.0,0.0,4.5313,4.685,4.8704,5.102,5.4538,0.0,6.1074,6.4605,6.7882,7.044,7.1158,7.0666,6.9618,6.8136,6.5757,6.2735,5.8876,5.5897,0.0,5.0421,5.2157,5.5269,0.0,0.0,0.0,7.3881,7.4582,7.4612,0.0,7.4121,0.0,7.2731,7.2924,7.3552,0.0,7.5467,7.6288,7.7185,7.7514,7.7741,7.7801,7.6455,7.5647,7.5467,7.5095,7.4706,7.4317,7.3672,7.3133,7.2777,7.2478,7.3138,7.4507,7.4877,7.556,7.6346,7.475,7.3883,7.3353,7.1887,7.13,7.13,7.13,7.13,7.13,0.0,0.0,0.0,0.0,0.0,0.0,0.0,0.0,0.0,0.0,3.5511,3.5511,0.0,0.0,0.0,0.0,0.0,0.0,0.0,0.0,3.8571,3.9251,3.9361,3.9391,3.9391,3.9391,4.0519,4.2791,4.2262,4.3469,4.6251,4.6251,4.6561,4.717,4.8274,4.8772,4.8742,4.8218,4.698,4.5224,4.3479,4.1784,4.0277,0.0,4.0466,4.0636,4.1364,0.0,0.0,0.0,4.7807,4.8416,5.1128,5.3491,5.6094,6.0462,6.281,6.4949,6.9229,7.1324,7.2252,7.2072,7.0935,6.896,6.5518,6.2526,5.9145,5.4598,0.0,5.023,4.8278,4.9793,5.2893,5.762,0.0,6.5907,7.2488,7.3416,7.4134,7.6066,7.6125,7.5826,7.5335,7.5736,7.6048,7.6155,7.6155,7.6617,7.7724,7.834,7.831,7.7574,7.6886,7.6036,7.4916,7.4886,7.4873,7.4766,7.4197,7.3791,7.3632,7.3812,7.3602,7.3199,7.4626,7.4882,7.4327,7.3736,7.3401,7.3076,7.192,7.1402,7.13,7.13,7.13,7.13,0.0,0.0,0.0,0.0,0.0,0.0,0.0,0.0,0.0,0.0,3.5511,3.5511,0.0,0.0,0.0,0.0,0.0,0.0,0.0,0.0,0.0,3.8542,3.9101,3.9391,3.9391,3.9391,3.9631,4.0079,3.996,4.0199,4.0767,4.0767,4.0827,4.0947,4.1186,4.1266,4.1276,4.1156,4.0926,4.0558,4.0229,3.987,3.9631,4.0187,0.0,0.0,0.0,0.0,0.0,0.0,5.0428,5.1887,5.5089,5.8231,6.1313,6.4276,6.6834,6.9257,7.171,7.3373,7.4108,7.3013,7.0949,6.8166,6.432,6.013,0.0,0.0,4.9781,4.8188,4.6183,4.9224,5.3713,5.889,6.3452,6.8615,7.5211,0.0,7.6647,0.0,0.0,0.0,0.0,0.0,0.0,0.0,7.7472,7.7562,7.7801,7.7921,7.7442,7.6275,7.5574,7.5125,7.4886,7.4886,7.4616,7.4061,7.3958,7.3313,7.2252,7.2294,7.2654,7.3245,7.289,7.309,7.3679,7.35,7.2709,7.172,7.2081,7.1842,7.13,7.13,7.13,7.13,0.0,0.0,0.0,0.0,0.0,0.0,3.5511,3.5511,3.5511,3.5511,3.5511,3.5511,3.5511,3.5511,3.5511,0.0,0.0,0.0,0.0,0.0,0.0,3.8901,3.9242,3.9391,3.9391,3.9391,3.9729,4.0427,0.0,3.9759,4.0427,3.9729,3.9391,3.9391,3.9391,3.9391,3.9391,3.9391,3.9391,3.9391,3.9391,3.9601,3.9969,0.0,0.0,0.0,0.0,0.0,0.0,0.0,5.1229,5.4473,5.8454,6.1986,6.5144,6.7777,6.9692,7.1368,7.3402,7.4407,7.4497,7.2804,6.9901,6.6131,6.1118,0.0,0.0,0.0,4.7728,4.7369,4.6072,4.9033,0.0,5.6898,6.0535,6.5443,7.2698,0.0,0.0,0.0,0.0,0.0,0.0,0.0,7.7981,7.831,7.831,7.831,7.831,7.831,7.7711,7.6407,7.6048,7.5557,7.4916,7.4886,7.4736,7.4437,7.4437,7.3898,7.2924,7.2565,7.2485,7.2535,7.1905,7.1882,7.2274,7.1928,7.1602,7.1313,7.1265,7.1257,7.13,7.13,7.13,7.13,0.0,0.0,0.0,0.0,0.0,0.0,3.5481,3.5511,3.5511,3.5511,3.5511,3.5511,3.5511,3.5511,3.5511,0.0,0.0,0.0,0.0,0.0,0.0,0.0,0.0,0.0,0.0,0.0,0.0,0.0,3.9909,0.0,0.0,0.0,0.0,0.0,3.9391,3.9391,3.9391,3.9391,3.9391,0.0,0.0,3.9939,0.0,0.0,0.0,0.0,0.0,0.0,0.0,0.0,5.0822,5.4683,5.9039,6.3542,6.7583,6.9512,7.1038,7.2521,7.4377,7.4886,7.4377,7.2222,6.8704,6.4261,5.8441,5.4329,0.0,0.0,4.6341,4.6909,4.639,0.0,5.1546,0.0,5.7064,6.1433,6.9393,0.0,0.0,0.0,0.0,0.0,0.0,7.8878,0.0,7.8998,7.8878,7.8807,7.8807,7.8519,7.7891,7.6838,7.6527,7.5916,7.4916,7.4886,7.4886,7.4886,7.4886,7.4557,7.3881,7.3223,7.2535,7.1869,7.1365,7.0968,7.0735,7.0553,7.053,7.057,7.0157,7.0434,7.1061,7.0904,7.1041,7.13,0.0,0.0,0.0,0.0,0.0,0.0,3.54,3.5511,3.5511,3.5511,3.5511,3.5511,3.5511,3.5511,3.5511,0.0,0.0,0.0,0.0,0.0,0.0,0.0,0.0,0.0,0.0,0.0,0.0,0.0,0.0,0.0,0.0,0.0,0.0,0.0,0.0,0.0,3.9391,3.9391,0.0,0.0,0.0,0.0,0.0,0.0,0.0,0.0,0.0,0.0,0.0,0.0,0.0,5.0444,5.3862,6.0894,6.7838,6.7463,0.0,0.0,7.4527,7.4886,7.4257,7.1637,6.8031,6.3678,5.8311,0.0,0.0,4.6779,4.63,4.636,4.63,4.7549,0.0,0.0,0.0,6.0057,6.8046,7.0693,0.0,0.0,0.0,0.0,0.0,7.9148,7.9058,7.9668,7.9148,7.8807,7.8807,7.7634,7.6946,7.6779,7.5677,7.5006,7.4886,7.4886,7.4886,7.4886,7.4886,7.4557,7.3881,7.3223,7.2535,7.1863,7.1201,7.0275,6.929,7.0582,7.0038,6.8474,6.9135,6.976,7.0216,6.9637,7.0205,7.13,0.0,0.0,0.0,0.0,0.0,0.0,3.5459,3.5511,3.5511,3.5511,3.5511,3.5511,3.5511,3.5511,3.5511,3.5511,3.5511,0.0,0.0,0.0,0.0,0.0,0.0,0.0,0.0,0.0,3.9011,3.9391,3.9391,0.0,0.0,0.0,0.0,0.0,0.0,0.0,0.0,0.0,0.0,0.0,0.0,0.0,0.0,0.0,0.0,0.0,0.0,0.0,0.0,0.0,0.0,0.0,4.8196,5.3234,0.0,0.0,6.7178,7.0081,7.3419,7.4587,7.4257,7.1577,6.7059,6.2077,5.7573,0.0,4.8525,4.6689,4.6629,4.6909,4.6909,4.7339,4.8356,5.0343,5.096,0.0,6.034,6.2616,6.6236,7.3402,7.5544,0.0,0.0,0.0,7.9357,7.9208,7.8938,7.8609,7.822,7.7694,7.7215,7.6808,7.5976,7.5305,7.4886,7.4886,7.4886,7.4886,7.4886,7.4347,7.3283,7.3027,7.2325,7.1248,7.062,6.9842,6.9021,6.918,6.8798,6.8086,6.802,6.888,7.0001,6.8553,6.8879,6.9926,0.0,0.0,0.0,0.0,0.0,3.528,3.5459,3.5511,3.5511,3.5511,3.5511,3.5511,3.5511,3.5511,3.5511,3.5511,3.5511,0.0,0.0,0.0,0.0,0.0,0.0,0.0,0.0,0.0,3.8533,3.9391,3.9191,3.9212,0.0,0.0,0.0,0.0,0.0,0.0,0.0,0.0,0.0,0.0,0.0,0.0,0.0,0.0,0.0,0.0,0.0,0.0,0.0,0.0,0.0,0.0,0.0,0.0,0.0,0.0,6.3617,6.7298,7.1338,7.3659,7.4257,7.1577,6.646,6.1118,0.0,5.2229,4.7978,4.6839,4.6969,4.7309,4.7309,4.7309,4.7459,4.7919,4.7948,4.9883,5.5671,5.756,6.1389,0.0,0.0,7.4497,0.0,7.9686,7.9836,7.9148,7.8908,7.8579,7.813,7.7724,7.7215,7.6557,7.6108,7.5587,7.4916,7.4886,7.4886,7.4886,7.4886,7.4317,7.3193,7.2997,7.2295,7.1158,7.0546,6.9782,6.8974,6.8481,6.8076,6.769,6.6831,6.7631,6.9059,6.7257,6.7432,6.8479,0.0,0.0,0.0,0.0,0.0,3.4727,3.54,3.5511,3.5511,3.5511,3.5511,3.5511,3.5511,3.5511,3.5511,3.5511,3.5511,0.0,0.0,0.0,0.0,0.0,0.0,0.0,3.8401,3.7764,3.8054,3.9391,3.8751,3.8751,3.9391,3.9391,3.9391,3.9391,0.0,0.0,0.0,0.0,0.0,0.0,0.0,0.0,0.0,0.0,0.0,0.0,0.0,0.0,0.0,0.0,0.0,0.0,0.0,4.3818,4.5713,5.2354,5.9385,6.5592,6.8315,7.1923,7.4257,7.1577,6.646,6.1224,0.0,5.2528,4.8098,4.7429,4.7309,4.7309,4.7309,4.7309,4.7309,4.7298,4.8409,5.1103,5.6337,5.8234,6.1074,0.0,0.0,6.9903,7.4497,7.8507,8.0524,7.9848,7.9178,7.8807,7.8807,7.7544,7.6527,7.5946,7.5916,7.5587,7.4916,7.4886,7.4886,7.4886,7.4886,7.4557,7.3851,7.3206,7.2535,7.1863,7.1188,7.0171,6.9004,6.9004,6.8211,6.688,6.5533,6.589,6.697,6.5606,6.6008,6.7215,0.0,0.0,0.0,0.0,0.0,0.0,3.5459,3.5511,3.5511,3.5511,3.5511,3.5511,3.5511,3.5511,3.5511,3.5511,3.5511,0.0,0.0,0.0,0.0,0.0,0.0,0.0,3.7704,3.7516,3.7815,3.873,3.8952,3.9191,3.9391,3.9391,3.9391,3.9391,3.9391,3.9391,0.0,3.9391,0.0,0.0,0.0,0.0,0.0,0.0,0.0,0.0,0.0,0.0,0.0,0.0,0.0,0.0,0.0,0.0,0.0,4.7796,5.2653,5.7812,6.1836,6.4171,6.5054,6.3288,5.9757,5.6196,5.4192,5.0571,4.7549,4.7328,4.7309,4.7309,4.7309,4.7309,4.7608,4.8528,4.9374,5.0637,0.0,0.0,0.0,6.64,7.3569,7.8346,0.0,8.0075,8.0345,7.9208,7.8489,7.813,7.813,7.7694,7.7185,7.6527,7.5677,7.5095,7.4886,7.4886,7.4886,7.4886,7.4437,7.3851,7.3193,7.2505,7.1846,7.1188,7.0979,7.0171,6.9004,6.9004,6.8196,6.6864,6.5518,6.5861,6.6832,6.4586,6.4609,6.562,0.0,0.0,0.0,0.0,0.0,0.0,3.5511,3.5511,3.5511,3.5511,3.5511,3.5511,3.5511,3.5511,3.5511,3.5511,3.5511,0.0,0.0,0.0,0.0,0.0,0.0,0.0,3.7045,3.7075,3.7494,3.8401,3.8811,3.9152,3.9391,3.9391,3.9391,3.9391,3.9391,3.9391,0.0,3.9391,0.0,0.0,0.0,0.0,4.0526,0.0,0.0,0.0,0.0,0.0,0.0,0.0,0.0,0.0,0.0,0.0,0.0,0.0,4.7747,5.139,5.6778,5.9638,6.0791,5.9428,5.6645,5.385,5.2516,4.9673,4.7309,4.7309,4.7309,4.7309,4.7309,4.7309,4.7578,4.8397,4.8854,0.0,0.0,0.0,0.0,6.6685,0.0,0.0,0.0,7.9836,8.0075,7.9238,7.834,7.7801,7.7801,7.7335,7.6886,7.6467,7.5916,7.5395,7.4886,7.4886,7.4886,7.4886,7.4227,7.3552,7.2877,7.2206,7.1517,7.0889,7.0889,7.0171,0.0,6.9004,6.8196,6.6864,6.5518,6.554,6.6054,6.389,6.3635,6.4237,0.0,0.0,0.0,0.0,0.0,0.0,0.0,3.5511,3.5511,3.5511,3.5511,3.5511,3.5511,3.5511,3.5511,3.5511,3.5511,0.0,0.0,0.0,0.0,0.0,0.0,3.5789,3.6434,3.6493,3.7084,3.8341,3.8371,3.8751,3.9391,3.9391,3.9391,3.9391,3.9391,3.9391,3.9391,3.9391,0.0,0.0,4.0098,4.0337,0.0,0.0,0.0,0.0,0.0,0.0,0.0,0.0,0.0,0.0,0.0,0.0,0.0,0.0,0.0,0.0,0.0,5.7274,5.9833,5.8577,5.5974,5.3371,5.2127,4.9494,0.0,4.7309,4.7309,4.7309,4.7309,4.7309,4.7339,4.7429,4.7519,0.0,0.0,5.5474,0.0,0.0,7.2013,0.0,7.5886,7.8292,7.9788,7.9728,7.8471,7.7753,7.7801,7.6604,7.5916,7.5916,7.6437,7.6138,7.4916,7.4886,7.4886,7.4886,7.4151,7.3492,7.2877,7.2146,7.1504,7.0889,7.0859,7.0141,6.9004,6.8944,6.8136,6.6789,6.5518,6.4964,6.48,6.3542,6.3108,6.3108,0.0,0.0,0.0,0.0,0.0,0.0,0.0,0.0,0.0,0.0,3.5511,3.5511,3.5511,3.5511,3.5511,0.0,0.0,0.0,0.0,0.0,0.0,0.0,3.5511,3.5571,3.5721,3.6246,3.6874,3.7644,3.8161,3.8751,3.9391,3.9391,3.9391,3.9391,3.9391,3.9391,3.9391,3.9391,0.0,0.0,3.9571,3.9631,0.0,0.0,0.0,0.0,4.2231,4.28,0.0,0.0,0.0,0.0,0.0,0.0,0.0,0.0,4.4755,4.5753,4.7837,0.0,5.0481,5.0152,4.9482,4.8835,0.0,4.7848,4.7309,4.7309,0.0,4.7309,4.7309,4.7309,4.7638,4.8648,0.0,0.0,5.2917,0.0,0.0,7.2718,7.722,7.9058,7.6826,7.8531,7.9578,7.9058,7.7783,7.7275,7.7753,7.6604,7.5916,7.5916,7.6036,7.5707,7.4916,7.4886,7.4886,7.4886,7.3702,7.3057,7.2847,7.1667,7.1038,7.0889,7.041,6.9768,6.8944,6.8451,6.7433,6.6161,6.5323,6.468,6.4156,6.3393,6.3108,6.3108,0.0,0.0,0.0,0.0,0.0,0.0,0.0,0.0,0.0,0.0,3.5511,3.5511,3.5511,3.5511,3.5511,0.0,0.0,0.0,0.0,0.0,0.0,3.5511,3.5511,3.5511,3.5511,3.6156,3.6784,3.7396,3.8063,3.8751,3.9391,3.9391,3.9391,3.9391,3.9391,3.9391,3.9391,3.9391,0.0,0.0,3.9391,0.0,0.0,0.0,0.0,0.0,4.1802,4.2521,0.0,4.33,4.33,4.33,0.0,0.0,0.0,0.0,4.4755,4.5454,4.6121,4.679,4.7309,4.7309,4.7309,4.7309,4.7309,0.0,0.0,0.0,0.0,4.7309,4.7309,4.7309,0.0,0.0,4.9684,0.0,0.0,0.0,6.9093,7.4287,7.7101,7.8489,7.8202,7.889,7.9058,7.84,7.7394,7.6856,7.6933,7.5976,7.5437,7.5437,7.5437,7.5275,7.4886,7.4886,7.4736,7.4437,7.3386,7.2744,7.2415,7.1368,7.0889,7.0859,7.0277,6.9618,6.8944,6.8271,6.7224,6.5936,6.5263,6.459,6.3917,6.3333,6.3108,6.3108,0.0,0.0,0.0,0.0,0.0,0.0,0.0,0.0,0.0,0.0,0.0,0.0,0.0,0.0,0.0,0.0,0.0,0.0,0.0,0.0,3.5511,3.5511,3.5511,3.5541,3.5639,3.6216,3.6844,3.7545,3.8212,3.8901,3.9541,3.9541,3.9511,3.9391,3.9391,3.9391,3.9391,3.9391,3.9391,3.9421,3.9511,0.0,0.0,0.0,0.0,0.0,0.0,0.0,0.0,4.33,4.33,4.33,4.33,0.0,0.0,0.0,0.0,0.0,4.6121,4.6939,4.7549,4.7369,4.7309,4.7309,4.7309,0.0,0.0,0.0,0.0,0.0,0.0,4.7538,0.0,0.0,0.0,0.0,6.016,6.3977,6.824,7.4197,7.5335,7.6574,7.898,7.8878,7.84,7.7861,7.7095,7.6437,7.5946,7.5275,7.4886,7.4886,7.4886,7.4886,7.4886,7.4796,7.4467,7.3881,7.3133,7.2445,7.1893,7.1218,7.0889,7.0859,7.0141,6.9512,6.8944,6.8151,6.7074,6.5787,6.5203,6.453,6.3797,6.3273,6.3108,6.3108,0.0,0.0,0.0,0.0,0.0,0.0,0.0,0.0,0.0,0.0,0.0,0.0,0.0,0.0,0.0,0.0,0.0,0.0,0.0,3.5511,3.5511,3.5511,3.5511,3.5759,3.6335,3.6455,3.7084,3.8251,3.8922,3.958,4.0247,4.0247,3.9939,3.9391,3.9391,3.9391,3.9391,3.9391,3.9391,3.9451,4.0038,0.0,0.0,0.0,0.0,0.0,0.0,0.0,0.0,4.33,4.33,4.33,4.33,0.0,0.0,0.0,0.0,0.0,4.6121,4.7608,4.8708,4.7578,4.7309,4.7309,4.7309,0.0,0.0,0.0,0.0,0.0,0.0,4.8633,4.9788,0.0,0.0,5.8906,0.0,0.0,7.1863,7.4587,7.7352,7.8382,7.6647,7.7382,7.7921,7.7813,7.6724,7.5988,7.5916,7.5275,7.4886,7.4886,7.4886,7.4886,7.4886,7.4347,7.4001,7.3881,7.2671,7.2013,7.1893,7.1218,7.0889,7.0829,6.9662,6.9093,6.8914,6.7657,6.637,6.5144,6.5024,6.4276,6.3227,6.3123,6.3108,6.3108,0.0,0.0,0.0,0.0,0.0,0.0,0.0,0.0,0.0,0.0,0.0,0.0,0.0,0.0,0.0,0.0,0.0,0.0,0.0,3.5511,3.5669,3.6028,3.6036,3.6186,3.6493,3.6493,3.7285,3.8952,3.9251,3.9939,4.0945,4.0576,4.0247,3.9909,3.9571,3.9391,3.9421,3.9789,3.9939,3.9969,0.0,0.0,0.0,0.0,0.0,0.0,0.0,0.0,0.0,0.0,4.33,4.33,4.33,0.0,0.0,0.0,0.0,0.0,4.6121,4.7249,4.8248,4.8338,4.8379,4.8188,4.7459,0.0,0.0,0.0,0.0,0.0,0.0,0.0,5.2354,5.5572,0.0,6.3154,6.7014,6.9139,7.1474,7.4527,7.6233,7.7083,7.6946,7.7472,7.7514,7.6844,7.6245,7.5736,7.5395,7.5065,7.4736,7.4377,7.4377,7.4197,7.3821,7.3133,7.2984,7.3343,7.2355,7.1713,7.1338,7.0679,7.041,7.032,6.9019,6.8451,6.8361,6.6999,6.5877,6.4964,6.459,6.3887,6.3108,6.3108,6.3108,6.3108,0.0,0.0,0.0,0.0,0.0,0.0,0.0,0.0,0.0,0.0,0.0,0.0,0.0,0.0,0.0,0.0,0.0,0.0,0.0,3.5511,3.5729,3.6246,3.6434,3.6635,3.6943,3.7084,3.8003,3.9631,3.9939,4.0546,4.1403,4.0885,4.0457,4.0157,3.964,3.9391,3.9421,3.9939,4.0277,4.0397,0.0,0.0,0.0,0.0,0.0,0.0,0.0,0.0,0.0,0.0,0.0,0.0,0.0,0.0,0.0,4.3967,4.4755,4.5663,4.6151,4.7029,4.7978,4.8858,4.8947,4.8798,4.8686,0.0,0.0,0.0,0.0,0.0,0.0,5.2199,0.0,6.0715,6.4171,6.6864,6.887,7.0007,7.1787,7.4976,7.5484,7.6096,7.7424,7.7424,7.6963,7.5976,7.5766,7.5437,7.4933,7.4886,7.4587,7.3911,7.3881,7.3582,7.2907,7.2235,7.2162,7.2654,7.2013,7.1308,7.0679,7.0217,6.9917,6.9678,6.8331,6.7778,6.7643,6.6311,6.5368,6.471,6.4216,6.3632,6.3108,6.3108,6.3108,6.3108,0.0,0.0,0.0,0.0,0.0,0.0,0.0,0.0,0.0,0.0,0.0,0.0,0.0,0.0,0.0,0.0,0.0,0.0,3.5511,3.5511,3.5511,3.5571,3.6156,3.7054,3.823,3.8862,3.955,4.0337,4.1583,4.1922,4.1403,4.1343,4.0666,3.9481,3.9421,3.9391,3.9391,3.9451,3.9819,4.0457,4.1074,0.0,0.0,0.0,0.0,0.0,0.0,0.0,0.0,0.0,0.0,0.0,0.0,0.0,4.4127,4.3539,4.4735,4.6241,4.63,4.7698,4.9048,4.8498,4.7919,0.0,5.1959,5.1828,0.0,5.4102,0.0,0.0,0.0,5.603,5.9548,6.2465,6.6715,7.032,7.2249,7.421,7.5719,7.6557,7.7215,7.7394,7.6916,7.6377,7.6006,7.5916,7.5335,7.4946,7.4886,7.4886,7.4587,7.3911,7.3881,7.3582,7.2907,7.2235,7.1923,7.1953,7.1278,7.0649,7.0067,7.0007,6.9678,6.9004,6.7657,6.7074,6.6984,6.5637,6.468,6.4066,6.4006,6.3632,6.3108,6.3108,6.3108,6.3108,0.0,0.0,0.0,0.0,0.0,0.0,0.0,0.0,0.0,0.0,0.0,0.0,0.0,0.0,0.0,0.0,0.0,0.0,3.5511,3.5511,3.5699,3.6096,3.6716,3.7473,3.8371,3.9071,4.0157,4.1643,4.2521,4.2651,4.2012,4.1583,4.0915,4.0029,4.0029,4.0029,4.0098,4.0915,4.1403,4.1682,4.1922,4.2241,0.0,0.0,0.0,0.0,0.0,0.0,0.0,0.0,4.33,4.33,4.33,4.3748,4.4247,4.3997,4.4755,4.5773,4.6181,4.7149,4.8188,4.8768,4.8738,0.0,0.0,0.0,0.0,0.0,0.0,0.0,0.0,0.0,6.3513,6.5802,6.9678,7.2954,7.4522,7.5437,7.6108,7.6719,7.7035,7.6946,7.6288,7.6018,7.5736,7.5305,7.5035,7.4706,7.4317,7.4287,7.3778,7.2701,7.2671,7.2325,7.165,7.1038,7.0726,7.0726,7.0456,7.0007,6.9333,6.8511,6.8002,6.7687,6.634,6.5757,6.5667,6.477,6.4246,6.3947,6.3602,6.3303,6.3108,6.3108,6.3108,6.3108,0.0,0.0,0.0,0.0,0.0,0.0,0.0,0.0,0.0,0.0,0.0,0.0,0.0,0.0,0.0,0.0,0.0,0.0,3.5511,3.5511,3.5699,3.6156,3.6776,3.7524,3.8371,3.9071,4.0268,4.2071,4.2701,4.2581,4.1772,4.1532,4.1035,4.0397,4.0606,4.0705,4.0765,4.1703,4.2191,4.241,4.241,4.2771,0.0,0.0,0.0,0.0,0.0,0.0,0.0,0.0,4.33,4.33,4.33,4.3748,4.4307,4.4307,4.4905,4.5723,4.6181,4.679,4.7578,0.0,0.0,0.0,5.3384,5.4777,5.6154,5.8753,5.9338,0.0,0.0,0.0,0.0,0.0,7.1354,7.4557,7.5467,7.5766,7.5958,7.6185,7.6377,7.6258,7.5647,7.5587,7.5305,7.4616,7.4587,7.4287,7.3612,7.3582,7.3073,7.1953,7.1697,7.1278,7.062,7.0007,6.9588,6.9349,6.9349,6.9139,6.866,6.7523,6.6879,6.661,6.5278,6.4665,6.462,6.3977,6.3722,6.3662,6.3243,6.3108,6.3108,6.3108,6.3108,6.3108,0.0,0.0,0.0,0.0,0.0,0.0,0.0,0.0,3.5511,3.5511,3.5511,0.0,0.0,0.0,0.0,0.0,0.0,0.0,3.5511,3.5511,3.5511,3.5511,3.6156,3.7092,3.8371,3.9071,4.0058,4.1403,4.2071,4.1712,4.0397,4.1094,4.1035,4.0427,4.1094,4.1403,4.1403,4.1403,4.1802,4.241,4.241,4.2771,4.33,0.0,0.0,0.0,0.0,0.0,0.0,0.0,4.33,4.33,4.33,4.3748,4.4307,4.4307,4.5254,4.63,4.63,4.6779,4.7459,0.0,0.0,0.0,5.6918,5.8115,5.961,6.4949,0.0,6.2151,6.2121,0.0,0.0,6.6789,7.1444,7.4886,7.4886,7.5467,7.5647,7.4976,7.5497,7.5617,7.4946,7.4886,7.4616,7.3941,7.3881,7.3582,7.2937,7.2877,7.2565,7.1893,7.1248,7.059,7.0007,6.9319,6.866,6.7987,6.7987,6.7987,6.7958,6.7284,6.661,6.5922,6.4575,6.3977,6.3947,6.3333,6.3108,6.3108,6.3108,6.3108,6.3108,6.3108,6.3108,6.3108,0.0,0.0,0.0,0.0,0.0,0.0,0.0,0.0,3.5511,3.5511,3.5511,0.0,0.0,0.0,0.0,0.0,0.0,0.0,3.5511,3.5511,3.5511,3.5511,3.6558,3.7315,3.7704,3.9281,4.0516,4.1403,4.2071,4.1712,4.0397,4.1094,4.1035,4.0457,4.1583,4.2101,4.2131,4.2551,4.2861,4.302,4.302,4.313,4.33,0.0,0.0,0.0,0.0,0.0,0.0,0.0,0.0,0.0,4.33,4.4087,4.5005,4.5005,4.5623,4.639,4.6879,4.7149,0.0,4.9841,0.0,0.0,0.0,6.0222,0.0,0.0,6.7134,6.5967,6.5024,6.6849,0.0,6.8405,7.1667,7.4377,7.4826,7.5065,7.5125,7.4916,7.5065,7.5125,7.4916,7.4467,7.4091,7.3911,7.303,7.2402,7.2206,7.1757,7.1218,7.0576,7.0366,6.9931,6.9303,6.8166,6.7493,6.7284,6.634,6.6131,6.658,6.5906,6.5218,6.4545,6.3722,6.3363,6.3333,6.3153,6.3108,6.3108,6.3108,6.3108,6.3108,6.3108,6.3108,6.3108,0.0,0.0,0.0,0.0,0.0,0.0,0.0,0.0,3.5511,3.5511,3.5511,3.5511,0.0,0.0,0.0,0.0,0.0,0.0,3.5511,3.5511,3.5511,3.5511,3.6477,3.7285,3.7793,3.9499,4.0457,4.0616,4.1283,4.1074,4.0029,4.0945,4.1343,4.1254,4.2571,4.316,4.3169,4.3529,4.3688,4.3688,4.3688,4.3878,4.4057,0.0,0.0,0.0,0.0,0.0,0.0,0.0,0.0,0.0,4.3688,4.4426,4.5334,4.5633,4.5971,4.645,4.7119,4.7698,0.0,5.1008,5.3491,5.6705,6.1868,0.0,0.0,0.0,0.0,6.863,6.8046,6.9079,0.0,7.0141,7.2491,7.4437,7.4826,7.4886,7.4886,7.4886,7.4646,7.4497,7.4497,7.3881,7.3283,7.2744,7.1966,7.1278,7.0769,7.035,6.9842,6.9245,6.896,6.8511,6.7807,6.6729,6.6221,6.6191,6.5398,6.5069,6.5203,6.48,6.4381,6.3977,6.3363,6.3108,6.3108,6.3108,6.3108,6.3108,6.3108,6.3108,6.3108,6.3108,6.3108,6.3108,0.0,0.0,3.5511,3.5511,0.0,0.0,0.0,0.0,3.5511,3.5511,3.5511,3.5511,0.0,0.0,0.0,0.0,0.0,0.0,0.0,3.5511,3.5519,3.5579,3.6276,3.7233,3.8461,3.9679,3.9999,3.9391,4.0058,4.0088,3.9511,4.0795,4.1792,4.2521,4.3688,4.4247,4.4307,4.4307,4.4307,4.4307,4.4366,4.4766,4.5225,4.4556,0.0,0.0,0.0,0.0,0.0,0.0,0.0,0.0,4.4396,4.4845,4.5514,4.6121,4.633,4.654,4.7268,4.8457,0.0,5.2187,5.5448,0.0,6.5159,6.8838,7.1427,7.2578,0.0,7.0606,7.1068,7.0769,7.0815,7.1893,7.3629,7.4826,7.4886,7.4856,7.4826,7.4886,7.4317,7.3881,7.3881,7.3253,7.2279,7.1009,7.0739,7.0171,6.9064,6.8824,6.8481,6.7928,6.7254,6.658,6.5906,6.5233,6.4904,6.4904,6.4845,6.45,6.3917,6.3977,6.3977,6.3887,6.3333,6.3108,6.3108,6.3108,6.3108,6.3108,6.3108,6.3108,6.3108,6.3108,6.3108,6.3108,0.0,0.0,3.5511,3.5511,0.0,0.0,0.0,0.0,0.0,3.5511,0.0,0.0,0.0,0.0,0.0,0.0,0.0,0.0,0.0,3.5511,3.5721,3.6246,3.7383,3.8362,3.9161,3.9481,3.9541,3.9391,4.0058,4.0337,4.0217,4.1014,4.2022,4.313,4.3389,4.3818,4.4307,4.4307,4.4307,4.4366,4.4885,4.5155,4.5225,4.4556,4.4636,0.0,0.0,0.0,0.0,0.0,0.0,0.0,4.5095,4.5544,4.6121,4.6271,4.6659,4.7369,4.8547,4.9804,0.0,0.0,6.1283,6.6386,6.9213,7.1202,7.2398,7.2146,7.303,7.3719,7.3313,7.3569,7.3748,7.3492,7.3821,7.4317,7.4826,7.4437,7.4317,7.4826,7.4317,7.3881,7.3881,7.2804,7.1787,7.0949,6.9498,6.872,6.9004,6.7508,6.6819,6.7194,6.655,6.5877,6.5203,6.456,6.4216,6.4216,6.3737,6.3422,6.3303,6.3767,6.3737,6.3273,6.3168,6.3108,6.3108,6.3108,6.3108,6.3108,6.3108,6.3108,6.3108,6.3108,6.3108,6.3108,0.0,0.0,0.0,0.0,0.0,0.0,0.0,0.0,0.0,0.0,0.0,0.0,0.0,0.0,0.0,0.0,0.0,0.0,0.0,3.5511,3.5938,3.6896,3.7862,3.8721,3.9391,3.9391,3.9391,3.9391,4.0058,4.0397,4.0397,4.1094,4.2073,4.33,4.3628,4.3967,4.4307,4.4307,4.4307,4.4337,4.4676,4.5214,4.5713,4.5025,4.5204,4.5743,4.5373,0.0,0.0,0.0,0.0,0.0,0.0,0.0,4.679,4.679,4.7029,4.7519,4.8547,0.0,0.0,5.9099,0.0,6.8437,7.0097,7.1487,7.2415,7.2385,7.3719,7.4796,7.4437,7.4646,7.4676,7.4001,7.4151,7.4287,7.3971,7.3911,7.3911,7.3941,7.3359,7.2924,7.2924,7.1773,7.0576,6.9588,6.8271,6.7403,6.7103,6.6086,6.5518,6.5562,6.5233,6.4755,6.4096,6.3737,6.3572,6.3572,6.3243,6.3108,6.3108,6.3422,6.3393,6.3108,6.3108,6.3108,6.3108,6.3108,6.3108,6.3108,6.3108,6.3108,6.3108,6.3108,6.3108,6.3108,0.0,0.0,0.0,0.0,0.0,0.0,0.0,0.0,0.0,0.0,0.0,0.0,0.0,0.0,0.0,0.0,0.0,0.0,0.0,0.0,0.0,3.7516,3.8212,3.8841,3.9391,3.9391,3.9451,3.9571,4.0127,4.0576,4.0896,4.1364,4.2252,4.3509,4.4057,4.4307,4.4307,4.4426,4.4396,4.4307,4.4426,4.5194,4.6211,4.5424,4.5633,4.629,4.6181,4.5862,4.5574,4.6251,0.0,0.0,0.0,0.0,4.7309,4.7309,4.7309,4.7489,4.8248,5.1181,5.5521,6.1716,6.5652,0.0,6.9678,7.0995,7.2072,7.2624,7.3702,7.4587,7.4706,7.4616,7.4407,7.3971,7.4168,7.4048,7.3027,7.3283,7.3402,7.2937,7.2206,7.1743,7.1743,7.0456,6.9139,6.7928,6.7104,6.6176,6.5054,6.48,6.447,6.4006,6.3887,6.3602,6.3108,6.3108,6.3108,6.3108,6.3108,6.3108,6.3108,6.3108,6.3108,6.3108,6.3108,6.3108,6.3108,6.3108,6.3108,6.3108,6.3108,6.3108,6.3108,6.3108,6.3108,6.3108,0.0,0.0,0.0,0.0,0.0,0.0,0.0,0.0,0.0,0.0,3.5511,3.5511,0.0,3.5511,3.5511,3.5511,3.5511,3.5511,3.5511,0.0,0.0,3.8212,3.8892,3.9302,3.9391,3.9391,3.969,4.0277,4.0367,4.1255,4.2911,4.2481,4.296,4.4177,4.4267,4.4307,4.4337,4.4915,4.4825,4.4366,4.4945,4.5623,4.6151,4.4905,4.5194,4.6211,4.5623,4.5743,4.6271,4.6939,4.7189,0.0,0.0,0.0,4.7309,4.7309,4.7309,4.7578,4.8828,0.0,5.8487,0.0,6.5967,6.8347,0.0,0.0,7.1923,7.2013,7.2624,7.3326,7.3911,7.3552,7.3343,7.3821,7.3,7.2445,7.2847,7.2475,7.2372,7.2847,7.1816,7.1038,7.1038,6.9349,6.7942,6.7194,6.5966,6.5174,6.5024,6.3947,6.3542,6.3977,6.3482,6.3197,6.3108,6.3108,6.3108,6.3108,6.3108,6.3108,6.3108,6.3108,6.3108,6.3108,6.3108,6.3108,6.3108,6.3108,6.3108,6.3108,6.3108,6.3108,6.3108,6.3108,6.3108,6.3108,0.0,0.0,0.0,0.0,0.0,0.0,0.0,0.0,0.0,0.0,0.0,3.5511,3.5511,3.5511,3.5511,3.5511,3.5511,3.5669,3.6036,3.7255,3.8101,3.8401,3.9041,3.9391,3.9391,3.9391,3.9729,4.0397,4.0765,4.1953,4.3878,4.3968,4.4327,4.4855,4.4855,4.4855,4.4885,4.5155,4.4915,4.4366,4.5035,4.5484,4.5713,4.5503,4.5792,4.63,4.6401,4.6371,4.639,4.7059,4.7309,4.7309,4.7309,0.0,0.0,0.0,4.7309,4.7986,5.1181,5.4491,5.8095,0.0,6.5218,6.7134,6.8092,6.9618,7.0726,7.035,7.1068,7.2116,7.3163,7.3086,7.2877,7.2791,7.2595,7.2295,7.183,7.1846,7.1743,7.1308,7.0739,7.0247,6.9871,6.8391,6.7164,6.649,6.5203,6.4306,6.3947,6.3393,6.3213,6.3482,6.3257,6.3108,6.3108,6.3108,6.3108,6.3108,6.3108,6.3108,6.3108,6.3108,6.3108,6.3108,6.3108,6.3108,6.3108,6.3108,6.3108,6.3108,6.3108,6.3108,6.3108,6.3108,6.3108,6.3108,0.0,0.0,0.0,0.0,0.0,0.0,0.0,0.0,0.0,0.0,0.0,3.5511,3.5511,0.0,0.0,0.0,3.5669,3.6088,3.6943,3.7862,3.849,3.864,3.9131,3.9391,3.9391,3.9391,3.9819,4.0636,4.1164,4.2561,4.4805,4.5324,4.5813,4.6302,4.5973,4.5813,4.5793,4.5633,4.5354,4.5084,4.5244,4.5394,4.5603,4.5922,4.6151,4.636,4.6879,4.6719,4.639,4.7059,4.7309,4.7309,4.7309,4.7309,0.0,0.0,0.0,4.8117,5.1917,5.4054,5.6209,6.0489,6.3318,6.5323,6.649,6.8181,6.9409,6.9064,6.9752,7.0709,7.171,7.2159,7.2235,7.1743,7.2056,7.192,7.059,7.0859,7.0755,6.9618,6.9199,6.878,6.8286,6.7029,6.6041,6.5533,6.4425,6.3572,6.3123,6.3108,6.3108,6.3108,6.3108,6.3018,6.2854,6.2674,6.2584,6.2584,6.2764,6.2854,6.2854,6.3003,6.3108,6.3108,6.3108,6.3108,6.3108,6.3108,6.3108,6.3108,6.3108,6.3108,6.3108,6.3108,6.3108,6.3108,0.0,0.0,0.0,0.0,0.0,0.0,0.0,0.0,0.0,0.0,0.0,3.5511,3.5511,3.5511,3.5511,3.5511,3.6066,3.6972,3.8221,3.8371,3.8691,3.9331,3.9391,0.0,3.9391,3.9391,4.0029,4.1343,4.1373,4.304,4.6211,4.6241,4.7279,4.9048,4.7758,4.7189,4.7149,4.651,4.66,4.704,4.5793,4.5693,4.6181,4.5574,4.5743,4.63,4.633,4.633,4.639,4.7059,4.7309,4.7309,4.7309,4.7309,4.7309,0.0,0.0,0.0,4.9127,5.0942,5.3204,5.6555,5.9891,6.2959,6.5458,6.7134,6.8271,6.8884,6.9064,6.9123,6.9183,7.0201,7.1009,7.0949,7.0979,7.056,6.9273,6.9123,6.8884,6.8197,6.6969,6.6176,6.6161,6.4934,6.4126,6.4096,6.3512,6.3123,6.3108,6.3108,6.3108,6.3108,6.3108,6.2794,6.2151,6.1509,6.121,6.121,6.1852,6.2151,6.2181,6.2794,6.3108,6.3108,6.3108,6.3108,6.3108,6.3108,6.3108,6.3108,6.3108,6.3108,6.3108,6.3108,6.3108,6.3108,0.0,0.0,0.0,0.0,0.0,0.0,0.0,0.0,0.0,0.0,0.0,0.0,0.0,3.5511,3.5661,3.6096,3.7114,3.7922,3.8371,3.9209,3.9798,4.0029,4.0457,4.0666,4.0666,4.0666,4.1134,4.2041,4.2041,4.3289,4.5663,4.6091,4.6909,4.8008,4.7978,4.7948,4.7919,4.7249,4.6839,4.6659,4.661,4.6461,4.633,4.652,4.6461,0.0,0.0,0.0,0.0,4.7059,4.7309,4.7309,4.7309,4.7309,4.7309,4.7309,4.7309,4.7687,4.9422,5.0398,5.1726,5.5059,5.7723,6.0013,6.1792,6.4216,6.6011,6.5832,6.7164,6.8092,6.7238,6.8495,6.9692,6.9692,6.9692,6.9363,6.8481,6.8361,6.7942,6.6849,6.6281,6.5817,6.5398,6.453,6.4006,6.4006,6.3452,6.3108,6.3108,6.2674,6.2644,6.3108,6.2285,6.1702,6.1449,6.121,6.109,6.109,6.1329,6.1449,6.1493,6.2151,6.2211,6.1852,6.2271,6.2465,6.2465,6.2465,6.2465,6.2465,6.2465,6.2734,6.3108,6.3108,6.3108,6.3108,0.0,0.0,0.0,0.0,0.0,3.5511,3.5511,3.5511,3.5511,3.5511,0.0,0.0,0.0,0.0,3.6417,3.7084,3.8131,3.8751,3.8751,3.9978,4.0645,4.0397,4.1035,4.1403,4.1403,4.1194,4.1493,4.241,4.2161,4.3169,4.5304,4.5743,4.655,4.7638,4.7859,4.8218,4.8618,4.8158,0.0,4.7298,0.0,4.7029,4.6719,4.7638,0.0,0.0,0.0,0.0,0.0,4.7249,4.7309,4.7309,4.7309,4.7309,4.7309,4.7309,4.7309,4.7568,4.8873,4.9381,5.041,5.3982,5.5508,5.6872,5.9787,6.1792,6.3154,6.3588,6.5278,6.6445,6.5787,6.6924,6.8076,6.8286,6.8525,6.8361,6.7463,6.7134,6.6595,6.5473,6.5144,6.4844,6.4425,6.3947,6.3692,6.3692,6.3333,6.3003,6.2764,6.2345,6.2181,6.2435,6.1343,6.0761,6.0761,6.0521,6.0432,6.0432,6.0655,6.0761,6.0805,6.1463,6.1509,6.112,6.1569,6.1762,6.1762,6.1762,6.1762,6.1792,6.2002,6.2375,6.2794,6.3018,6.3108,6.3108,0.0,0.0,3.5511,3.5511,3.5511,3.5511,3.5519,3.5519,3.5541,3.5541,0.0,0.0,0.0,0.0,0.0,3.8401,3.9041,3.9451,3.9451,4.0705,4.1134,4.0487,4.1094,4.1463,4.1463,4.0825,4.1124,4.244,4.1762,4.2741,4.5255,4.5244,4.6332,4.8188,4.7578,4.8038,4.9228,0.0,4.9258,4.9187,0.0,4.7328,4.7519,0.0,0.0,0.0,4.9067,4.8917,0.0,4.7608,4.7358,4.7369,4.7298,4.7309,4.7309,4.7309,4.7309,4.7309,0.0,0.0,0.0,5.3042,5.3084,5.3641,5.9474,5.9863,5.9727,6.2405,6.3482,6.4126,6.4815,6.5518,6.6191,6.6805,6.7493,6.7463,6.6131,6.5398,6.474,6.4066,6.3452,6.3108,6.3108,6.3108,6.3108,6.3108,6.3063,6.2794,6.2121,6.2061,6.1762,6.106,6.0416,6.007,6.004,5.9428,5.9099,5.9069,5.9741,6.007,6.01,6.0761,6.106,6.103,6.106,6.106,6.103,6.106,6.106,6.115,6.1822,6.2091,6.2195,6.2854,6.3108,6.3108,0.0,3.5511,3.5511,3.5511,3.5511,3.5669,3.6156,3.6216,3.6387,0.0,0.0,0.0,3.7165,3.7734,3.858,3.9748,4.0008,4.0337,4.0825,4.1652,4.2041,4.1862,4.2432,4.2771,4.2771,4.2592,4.2681,4.305,4.2871,4.313,4.3878,4.4366,4.5114,4.6183,4.747,4.7978,4.7848,4.7848,0.0,4.9187,4.7859,4.8125,0.0,0.0,0.0,0.0,0.0,4.9774,5.029,0.0,4.9093,4.8588,0.0,4.7309,4.7309,4.7309,4.7309,4.7309,4.7309,0.0,0.0,0.0,0.0,0.0,5.3449,5.5136,5.6885,5.9026,6.0761,6.2271,6.3408,6.453,6.5188,6.4874,6.5802,6.6101,6.4755,6.4395,6.4036,6.3422,6.3183,6.3108,6.3108,6.3108,6.3108,6.3108,6.2644,6.2315,6.2121,6.1642,6.0851,5.9684,5.9951,5.9638,5.8667,5.8936,5.8846,5.8384,5.9069,5.9368,5.9398,6.0057,6.0116,5.9697,6.0176,6.0086,5.9684,6.0176,6.04,6.0446,6.1104,6.1672,6.2195,6.2854,6.3108,6.3108,3.5511,3.5511,3.5579,3.5887,3.5916,3.6118,3.6784,3.6874,3.7015,0.0,0.0,0.0,3.8593,3.9239,3.9966,4.0765,4.1064,4.1274,4.1403,4.2262,4.2661,4.241,4.299,4.33,4.33,4.305,4.305,4.33,4.305,4.305,4.33,4.3997,4.4666,4.5374,4.683,4.7399,4.7309,4.7309,0.0,0.0,4.8218,0.0,0.0,4.9871,5.0649,0.0,0.0,0.0,5.2713,5.1786,5.084,0.0,0.0,0.0,0.0,0.0,0.0,0.0,0.0,0.0,4.8057,4.9565,0.0,0.0,5.1588,5.2594,5.376,5.6004,5.7859,5.9458,6.0775,6.2316,6.3244,6.2855,6.3917,6.4605,6.4066,6.3767,6.3482,6.3123,6.3108,6.2988,6.2704,6.2674,6.2555,6.2285,6.1912,6.1553,6.1297,6.0625,5.9774,5.8726,5.9069,5.877,5.7679,5.8338,5.8487,5.8115,5.8786,5.9099,5.9129,5.9488,5.9458,5.9129,5.9518,5.9458,5.9129,5.9518,5.9668,5.9741,6.0416,6.1104,6.1762,6.2435,6.2854,6.3108,0.0,3.5661,3.5908,3.6485,3.6665,3.6904,3.7516,3.7635,3.7635,0.0,3.8242,3.9119,4.0496,4.1094,4.1463,4.1603,4.2101,4.2191,4.1633,4.2681,4.305,4.2521,4.308,4.3389,4.33,4.286,4.283,4.33,4.2771,4.28,4.3419,4.4027,4.4696,4.5424,4.6031,4.6659,4.7309,4.7309,0.0,4.7429,4.8816,4.9853,0.0,0.0,5.3725,5.4418,5.4329,5.479,5.5192,5.3785,5.2426,0.0,0.0,0.0,0.0,0.0,4.8828,0.0,0.0,0.0,0.0,0.0,4.9853,0.0,5.1899,5.1427,5.1026,5.3461,5.4982,5.6299,5.7739,5.9564,6.0821,6.0671,6.1986,6.3213,6.3797,6.3452,6.3063,6.3003,6.2988,6.2734,6.2061,6.2002,6.1732,6.115,6.103,6.0655,5.9921,5.9308,5.8667,5.7995,5.7995,5.7679,5.7017,5.7649,5.7995,5.7995,5.8667,5.9039,5.9099,5.9099,5.9099,5.9099,5.9099,5.9099,5.9099,5.9099,5.9099,5.9159,5.9831,6.0505,6.118,6.1852,6.2525,6.3108,3.6306,3.6686,3.7067,3.7186,3.7682,3.8242,3.8913,3.9002,3.9191,3.9729,3.9918,4.0526,4.1862,4.1643,4.1813,4.2831,4.2591,4.2541,4.2921,4.315,4.324,4.313,4.3758,4.3848,4.33,4.3698,4.3708,4.33,4.319,4.3459,4.4117,4.4247,4.4954,4.6121,4.6241,4.6659,4.7309,4.7309,0.0,4.7448,4.9291,0.0,5.2677,5.3037,5.4306,5.5743,5.5192,5.5748,5.6436,5.461,5.3102,5.1768,0.0,0.0,0.0,0.0,0.0,0.0,0.0,0.0,0.0,0.0,0.0,0.0,4.9565,5.0152,5.1295,5.2366,5.3216,5.4503,5.6855,5.8501,5.9129,5.8052,6.0356,6.2525,6.3183,6.3153,6.2884,6.2375,6.2315,6.2032,6.1359,6.1299,6.1239,6.112,6.0595,5.9757,5.8547,5.8367,5.7979,5.7304,5.7304,5.7017,5.6372,5.6987,5.7304,5.7304,5.7979,5.8577,5.9099,5.9099,5.9099,5.9099,5.9099,5.9099,5.9099,5.9099,5.9099,5.9159,5.9831,6.0505,6.118,6.1852,6.2525,6.3108,3.6956,3.7186,3.7524,3.7853,3.8452,3.9131,3.9789,4.0178,4.0526,4.0855,4.1194,4.1652,4.2321,4.2381,4.2592,4.324,4.3319,4.3479,4.3788,4.4117,4.4307,4.4307,4.4606,4.4636,4.4307,4.4636,4.4636,4.4307,4.4307,4.4486,4.4825,4.5134,4.5642,4.63,4.6659,4.6999,4.7309,0.0,4.7309,4.7549,5.014,0.0,5.3348,5.4653,5.6179,5.7616,5.7287,5.7992,5.874,5.6436,5.5406,0.0,0.0,5.1708,5.16,0.0,5.0732,5.0612,0.0,0.0,0.0,5.0631,0.0,0.0,0.0,4.9512,4.9942,5.0612,5.1013,5.1851,5.3803,5.497,5.5867,5.6539,5.8065,5.9741,6.1357,6.1896,6.1852,6.1178,6.0805,6.0475,6.0133,5.9803,5.9594,5.9594,5.8979,5.8471,5.8115,5.7769,5.7304,5.6658,5.6658,5.6342,5.57,5.6329,5.6808,5.7094,5.7769,5.8457,5.9099,5.9099,5.9099,5.9099,5.9099,5.9099,5.9099,5.9099,5.9099,5.9115,5.9458,5.9997,6.0685,6.1343,6.2032,6.2644,3.7635,3.7695,3.7994,3.867,3.934,3.9999,4.0666,4.1244,4.1643,4.1753,4.2241,4.267,4.294,4.3379,4.3778,4.4047,4.4326,4.4606,4.4875,4.5155,4.5315,4.5315,4.5424,4.5424,4.5315,4.5424,4.5424,4.5315,4.5315,4.5364,4.5514,4.6042,4.636,4.651,4.7059,4.7309,4.7309,0.0,0.0,4.7938,0.0,5.2366,5.2947,5.582,5.7603,5.859,5.9099,5.9997,6.0535,5.8112,5.7573,5.741,5.4503,5.3862,0.0,0.0,0.0,0.0,0.0,0.0,0.0,0.0,0.0,5.0702,0.0,0.0,0.0,4.9415,4.9486,4.9834,5.0978,5.1846,5.2965,5.4773,5.5683,5.6791,5.8514,5.9458,5.9893,5.9727,5.9009,5.859,5.871,5.8128,5.7799,5.7919,5.7304,5.7154,5.7709,5.7214,5.6628,5.6042,5.6013,5.5743,5.5222,5.5743,5.6299,5.6928,5.759,5.8248,5.8906,5.9039,5.9099,5.9099,5.8966,5.8906,5.8906,5.8906,5.8906,5.8906,5.9069,5.9578,6.037,6.088,6.1613,6.2375,3.852,3.8772,3.9391,4.0068,4.0735,4.1403,4.2071,4.2231,4.2481,4.3,4.315,4.3638,4.4836,4.5035,0.0,0.0,0.0,0.0,4.6879,0.0,4.5315,4.5315,4.5862,4.5922,4.5304,4.5892,4.5892,4.5315,4.5315,4.5603,4.6181,4.6271,4.661,4.7179,4.7279,4.7309,0.0,0.0,4.7978,0.0,5.1361,5.1546,0.0,5.4832,5.6402,5.6821,5.9142,6.007,5.998,0.0,5.7649,5.6944,0.0,5.461,5.4299,0.0,0.0,0.0,0.0,0.0,0.0,0.0,5.4653,0.0,0.0,0.0,5.1439,5.0338,0.0,5.0338,5.1056,0.0,0.0,5.1116,5.3862,5.5683,5.4186,5.5072,5.6466,5.8128,5.7244,5.6731,5.7287,5.6778,5.6628,5.7184,5.6658,5.6342,5.6402,5.6342,5.6013,5.5341,5.5311,5.5281,5.5192,5.5281,5.5641,5.6312,5.6928,5.7573,5.8234,5.8816,5.9099,5.9069,5.8487,5.8205,5.8205,5.8205,5.8205,5.8264,5.889,5.9877,6.1,6.106,6.1912,6.3003,3.9748,4.0098,4.0636,4.0915,4.1523,4.2081,4.2351,4.3359,4.4028,4.3908,4.4566,4.5403,0.0,0.0,0.0,0.0,0.0,4.6711,0.0,0.0,4.6471,4.6471,4.673,4.676,4.6471,4.6741,4.673,4.6471,4.6471,4.661,4.6879,4.6879,4.7029,4.7309,4.7309,0.0,4.7339,0.0,4.7978,0.0,0.0,0.0,0.0,5.5495,5.7796,5.8677,6.0146,6.0685,6.0475,0.0,5.874,0.0,0.0,0.0,0.0,0.0,0.0,0.0,0.0,0.0,0.0,0.0,0.0,0.0,5.1965,0.0,5.0877,0.0,0.0,0.0,0.0,0.0,0.0,0.0,5.2456,5.3414,5.3713,5.3593,5.4042,5.5645,5.5012,5.4576,5.4803,5.4952,5.5149,5.5388,5.4832,5.4815,5.5581,5.5251,5.5102,5.5192,5.5192,5.5192,5.5192,5.5192,5.5551,5.6192,5.6462,5.6898,5.753,5.7812,5.7932,5.7932,5.762,5.75,5.7543,5.7935,5.8085,5.8188,5.8846,5.9668,6.0565,6.094,6.1702,6.2584,4.1265,0.0,4.1463,4.1652,4.2081,4.2521,4.288,4.4117,4.4975,4.4865,4.5862,0.0,4.7986,4.7986,0.0,0.0,0.0,4.8925,0.0,0.0,4.7668,0.0,0.0,0.0,0.0,4.7309,4.7309,4.7309,4.7309,4.7309,4.7309,4.7309,4.7309,4.7309,4.7668,4.7848,4.7919,0.0,4.9284,4.9363,5.1457,5.2312,5.2749,5.6243,5.862,6.016,6.0655,6.094,6.091,5.9548,5.9548,5.9771,5.7962,5.7709,0.0,0.0,0.0,0.0,5.5466,0.0,0.0,0.0,0.0,0.0,0.0,0.0,0.0,0.0,0.0,0.0,0.0,0.0,5.1133,5.1828,0.0,5.2115,5.3222,5.2384,5.2205,5.3743,5.3665,5.3486,5.3486,5.3743,5.3922,5.3922,5.3306,5.3336,5.4324,5.4251,5.4418,5.491,5.5102,5.5192,5.5192,5.5192,5.5431,5.5923,5.6102,5.6432,5.6868,5.7017,5.7094,5.7107,5.6928,5.6958,5.7137,5.7633,5.7935,5.8188,5.8846,5.9518,6.016,6.0655,6.1253,6.1912,4.319,4.2262,0.0,0.0,4.2381,4.282,4.4037,4.4307,4.4775,0.0,0.0,0.0,0.0,0.0,0.0,0.0,0.0,5.3019,5.3019,0.0,4.8648,0.0,0.0,0.0,0.0,0.0,4.7309,4.7309,4.7309,4.7309,4.7309,4.7309,4.7309,4.7369,4.8648,4.9228,4.9378,5.1271,5.2815,5.403,5.479,5.6196,5.7739,0.0,5.7855,6.01,6.013,6.0535,6.091,5.9548,5.9548,5.9861,5.8517,5.8085,0.0,0.0,0.0,0.0,0.0,0.0,0.0,5.585,0.0,0.0,0.0,0.0,5.4683,0.0,0.0,0.0,0.0,5.4144,5.4192,5.1624,5.2306,0.0,0.0,5.0697,5.0996,5.3007,5.3773,5.4179,5.4179,5.3605,5.3216,5.3216,5.2618,5.2247,5.2306,5.3503,5.4209,5.4239,5.485,5.5192,5.5192,5.5192,5.5222,5.5251,5.5893,5.6222,5.6252,5.6838,5.7094,5.7077,5.6492,5.6551,5.7094,5.7124,5.75,5.8188,5.8846,5.9518,6.01,6.013,6.0565,6.1239,4.4536,0.0,0.0,0.0,0.0,4.3289,4.4187,4.5443,0.0,0.0,0.0,0.0,0.0,0.0,5.6166,0.0,0.0,5.4995,5.4563,5.2438,0.0,0.0,0.0,4.8409,0.0,0.0,0.0,4.7309,4.7309,4.7309,4.7309,4.7309,4.7309,4.7339,4.8248,4.8648,0.0,0.0,0.0,0.0,0.0,5.7287,5.9338,5.8441,5.865,5.9488,5.9951,5.9967,5.9774,5.9757,5.9621,5.9368,5.8906,5.8756,5.8667,5.8248,5.8577,5.9053,5.8816,5.9907,6.0326,5.7214,0.0,0.0,0.0,0.0,0.0,0.0,0.0,0.0,0.0,5.3575,5.3426,5.2097,5.2247,5.2217,0.0,5.0996,5.1277,5.2396,5.2354,5.2043,5.1594,5.1756,5.1528,5.0684,5.0414,5.0642,5.1487,5.2396,5.3282,5.4179,5.485,5.5192,5.5192,5.5192,5.5192,5.5192,5.5431,5.5551,5.5551,5.576,5.585,5.582,5.5641,5.5641,5.591,5.6735,5.7244,5.7543,5.865,5.9249,5.9488,5.9951,6.0819,6.1852,4.5503,4.5454,0.0,0.0,0.0,4.4237,4.4895,0.0,0.0,0.0,5.3892,0.0,5.9817,0.0,5.9861,0.0,5.9771,5.7945,5.6346,5.5029,0.0,5.1636,5.1001,0.0,0.0,0.0,0.0,0.0,0.0,4.7769,4.7309,4.7309,4.7309,4.7369,4.8476,4.8985,4.9194,5.2318,5.3366,0.0,0.0,5.8245,5.9711,5.9249,5.9398,5.9817,5.9757,5.9608,5.9488,5.9681,5.9787,5.9774,5.9518,5.9608,5.9697,5.8996,5.9428,6.001,5.9578,6.0565,6.1104,5.8471,5.7992,5.7496,5.4875,0.0,5.5628,0.0,0.0,0.0,0.0,5.4413,5.3964,5.3054,5.2695,5.2157,0.0,5.1056,5.1265,5.1457,5.1517,0.0,5.0936,5.1086,5.0679,4.9408,4.9288,4.9666,5.0481,5.1367,5.2456,5.3803,5.4491,5.497,5.5192,5.5192,5.5192,5.5192,5.5192,5.5192,5.5192,5.5192,5.5192,5.5192,5.5192,5.5341,5.5641,5.6675,5.7244,5.7573,5.868,5.9099,5.9159,5.9578,6.0595,6.1852,4.6211,4.5832,0.0,0.0,4.5364,0.0,0.0,0.0,5.1816,0.0,5.6898,6.0146,6.2241,6.3003,6.4111,6.5966,6.441,0.0,5.8653,5.8354,0.0,0.0,5.3097,5.2767,5.1427,0.0,0.0,0.0,0.0,4.8618,4.7399,4.7339,4.7309,4.7388,4.9321,5.0177,5.0416,5.4443,5.6222,5.6462,5.8351,5.9129,5.9159,5.9129,5.9893,6.088,5.9564,5.9518,5.9951,5.9308,5.9953,6.088,6.028,6.0535,6.094,6.034,6.016,6.019,6.019,6.0685,6.088,5.9534,5.9638,5.9442,5.6911,5.7796,5.862,0.0,0.0,0.0,0.0,0.0,5.57,5.4329,5.3545,5.2426,5.0518,5.0817,5.0966,5.0387,5.1385,0.0,0.0,0.0,5.0619,4.9348,4.9228,4.9228,4.9258,5.0451,5.1768,5.3097,5.3832,5.4521,5.5192,5.5192,5.5192,5.5192,5.5192,5.5192,5.5192,5.5192,5.5192,5.5192,5.5251,5.5611,5.6252,5.6898,5.7543,5.8188,5.8846,5.9129,5.9159,5.9159,5.9997,6.121,4.6909,4.6909,4.68,0.0,4.6371,4.6091,0.0,0.0,0.0,0.0,6.0296,6.4066,6.7583,6.7239,6.7134,6.8136,6.6849,0.0,0.0,0.0,0.0,5.8155,5.6808,5.5478,5.4192,5.3216,0.0,5.093,0.0,0.0,4.8768,4.7769,4.7309,4.7388,4.9321,4.9949,4.9774,5.3755,5.6286,5.7709,5.8697,5.9398,5.9801,5.9279,5.9608,6.025,5.9398,5.9219,5.9338,5.9159,5.9338,5.9668,6.001,6.022,6.0416,6.0745,6.1194,6.1597,6.1597,6.2076,6.2241,6.091,6.0326,5.9801,5.862,5.9142,5.9561,5.856,5.9009,5.8933,5.6808,5.591,5.4862,5.2995,5.2157,5.1546,0.0,0.0,0.0,5.1636,0.0,0.0,5.0757,5.0566,4.9931,4.8637,4.8098,4.8038,4.8528,4.977,5.1056,5.2396,5.3581,5.4521,5.5192,5.5192,5.5192,5.5192,5.5192,5.5192,5.5192,5.5192,5.5192,5.5222,5.5743,5.6042,5.6282,5.7393,5.7935,5.8188,5.8846,5.9398,5.9831,5.9831,6.0386,6.121,4.7249,0.0,0.0,4.7399,0.0,0.0,4.8514,5.1139,0.0,5.7679,6.1808,0.0,6.7956,6.863,6.9139,6.9782,6.8615,0.0,6.5114,0.0,0.0,6.0655,5.9727,5.8411,5.6526,5.5192,0.0,5.1756,0.0,4.9045,4.8828,4.7788,4.7309,4.7388,4.9321,5.0009,4.9942,5.3935,5.6765,5.8577,5.8936,5.9338,0.0,5.8465,5.8289,5.8484,5.7403,5.7915,5.9099,5.9099,5.9308,5.9638,6.0326,6.0759,6.1118,6.1762,6.2255,6.2555,6.2555,6.2794,6.2914,6.2151,6.1687,6.1148,6.0192,6.0266,6.0356,5.9668,5.9368,5.886,5.7676,5.6,5.4102,5.2097,5.1457,0.0,0.0,0.0,0.0,0.0,5.1696,5.1367,5.0697,5.0129,4.9374,4.8368,4.7948,4.7919,4.8278,4.9501,5.0697,5.1726,5.3623,5.467,5.476,5.5598,5.576,5.5192,5.5192,5.5192,5.5192,5.5192,5.5371,5.5671,5.6042,5.6192,5.6282,5.7274,5.7649,5.7769,5.8726,5.9518,6.01,6.01,6.0715,6.1628,4.7309,0.0,0.0,0.0,0.0,0.0,0.0,5.3473,0.0,5.8607,0.0,6.6026,6.67,6.8764,7.0366,7.0979,0.0,6.809,6.5682,6.646,6.5383,6.1778,6.2091,6.1134,5.8547,5.6877,0.0,0.0,0.0,4.9342,4.8397,4.7638,4.7309,4.7388,4.9262,5.0097,5.0345,5.4074,5.6679,5.8335,5.8369,5.8532,5.8621,5.7004,5.6508,5.6494,5.4947,5.6294,5.8784,5.8784,5.9368,6.022,6.088,6.1539,6.2241,6.2884,6.3108,6.3108,6.3108,6.3108,6.3108,6.3108,6.3108,6.2794,6.1642,6.1359,6.1164,6.0519,5.9368,5.8563,5.88,5.6154,5.3341,5.1505,0.0,0.0,0.0,0.0,0.0,0.0,0.0,0.0,5.1397,5.0253,4.9247,4.8498,4.8338,4.8248,4.8158,4.9392,5.0398,5.1056,5.3593,5.479,5.4461,5.6137,5.6509,5.5568,5.5401,5.5341,5.5341,5.5341,5.5641,5.6222,5.6372,5.6462,5.6492,5.7107,5.7363,5.7483,5.865,5.9518,6.01,6.019,6.1014,6.2181,0.0,0.0,0.0,0.0,0.0,5.2307,5.6305,5.9428,6.1956,6.3588,6.7342,7.0141,7.0785,7.0799,7.1009,7.1683,7.0576,0.0,0.0,0.0,0.0,6.4396,6.3902,6.269,6.0611,5.7088,5.5037,0.0,4.9936,4.8207,4.9108,4.7878,4.7309,4.7369,4.8816,4.9442,4.9601,5.1791,5.335,5.4333,5.4445,5.5524,5.6948,5.5385,5.5589,5.6494,5.4947,5.5574,5.7117,5.7117,5.8453,6.022,6.088,6.1539,6.2241,6.2884,6.3108,6.3108,6.3108,6.3108,6.3108,6.3108,6.3108,6.3048,6.2794,6.2734,6.2555,6.1882,6.112,5.9923,5.7842,5.476,5.2235,5.1367,0.0,0.0,0.0,0.0,0.0,0.0,0.0,5.2767,5.2097,5.1307,5.0391,4.9217,4.8618,4.8068,4.7489,4.8727,4.9733,5.0357,5.2426,5.4294,5.582,5.6192,5.6778,5.759,5.6539,5.6013,5.6013,5.6013,5.6102,5.6252,5.7304,5.7769,5.7829,5.8471,5.874,5.877,5.9009,5.9518,6.016,6.0715,6.1433,6.2135,0.0,0.0,0.0,0.0,0.0,0.0,0.0,6.0836,6.282,6.3001,6.4399,6.5524,6.5856,6.7113,6.8084,6.8389,6.7866,6.7118,6.614,6.5491,6.4284,6.2402,6.1984,0.0,5.9021,5.5538,5.395,5.4384,4.9539,4.7928,4.9258,4.7919,4.7309,4.7336,4.802,4.9031,5.0277,5.1093,5.2016,5.3061,5.3699,5.458,5.5327,5.3775,5.3612,5.4061,5.2497,5.2929,5.4549,5.6551,5.7355,5.7816,5.9361,6.0016,6.0324,6.069,6.1668,6.2584,6.2584,6.2824,6.3108,6.3108,6.3108,6.3108,6.3108,6.3108,6.2914,6.2255,6.1583,6.0162,5.7197,5.476,5.2905,5.1876,0.0,0.0,0.0,0.0,0.0,0.0,0.0,0.0,0.0,5.1696,5.105,4.9438,4.9007,4.8368,4.7369,4.8865,4.9763,4.9733,5.2677,5.4533,5.5162,5.6496,5.7154,5.7094,5.6808,5.6299,5.5683,5.6042,5.6372,5.6688,5.7304,5.756,5.7603,5.7932,5.8261,5.8607,5.8966,5.9727,6.0655,6.097,6.1732,6.2614,0.0,5.1586,0.0,0.0,5.3824,5.6218,5.8384,6.0355,6.1713,6.2005,6.1634,6.133,6.133,6.3656,6.5186,6.5186,6.4965,6.4413,6.3446,6.317,6.2037,5.9883,5.98,5.8912,5.7055,5.3989,5.2596,0.0,4.9178,4.7859,4.8821,4.7936,4.7336,4.7059,4.6998,4.7954,4.9648,5.0007,5.0832,5.1929,5.2857,5.3471,5.37,5.2112,5.1694,5.1787,5.0165,5.0616,5.2474,5.5632,5.6132,5.5803,5.8138,5.856,5.8337,5.8909,6.018,6.1426,6.1709,6.2296,6.2914,6.3063,6.2988,6.2884,6.2884,6.2764,6.2495,6.1806,6.1044,5.9594,5.6731,5.5222,5.397,5.2636,0.0,0.0,0.0,0.0,0.0,0.0,0.0,0.0,5.1295,5.1816,5.1439,4.9625,4.9366,4.8828,4.7788,4.9183,4.9841,4.9516,5.2917,5.4743,5.464,5.6662,5.7393,5.6821,5.7017,5.6555,5.5641,5.6299,5.6868,5.7334,5.7453,5.7526,5.7526,5.7526,5.7842,5.8367,5.8876,5.9833,6.088,6.106,6.1852,6.2914,0.0,0.0,0.0,0.0,0.0,5.6588,5.9024,5.9207,6.0427,6.4332,6.4787,6.4737,6.4737,6.503,6.5186,6.5186,6.4192,6.3529,6.3418,6.2369,6.1181,5.9855,5.98,5.8912,5.7055,5.3801,5.171,0.0,4.8753,4.7615,4.7402,4.7951,4.7536,4.6281,4.5753,4.5227,4.4877,4.6944,4.8297,4.9083,4.9251,5.0498,5.2066,5.0451,5.0727,5.1787,5.0165,5.0616,5.2145,5.3101,5.4615,5.6485,5.872,5.8468,5.7725,5.9742,5.9721,5.9247,6.036,6.1424,6.2345,6.2944,6.2644,6.2181,6.2181,6.1732,6.1104,6.0429,5.9265,5.7919,5.6462,5.5611,5.4683,5.3306,5.2546,0.0,0.0,0.0,0.0,0.0,0.0,0.0,5.1445,5.1816,5.1606,5.0207,4.9625,4.9258,4.9127,4.9288,4.9625,5.0088,5.2247,5.4246,5.6013,5.6252,5.7197,5.88,5.7663,5.7034,5.6944,5.762,5.7935,5.8038,5.8637,5.8919,5.8919,5.8919,5.8949,5.8996,5.9069,5.9548,6.028,6.088,6.1539,6.2285,0.0,0.0,0.0,5.5029,5.5175,5.5956,5.8197,5.8621,5.9326,6.1089,6.1581,6.179,6.179,6.179,6.179,6.179,6.1353,6.0786,6.0143,5.9637,5.8722,5.7225,5.685,5.6153,5.5041,5.2433,5.095,0.0,0.0,4.7567,4.7539,4.7125,4.6421,4.5532,4.5204,4.5049,4.5148,4.6621,4.7622,4.8292,4.8996,4.978,5.0525,5.0201,5.0489,5.0988,5.0714,5.1028,5.1613,5.1876,5.2304,5.3118,5.536,5.5608,5.5222,5.61,5.6975,5.801,5.949,6.0511,6.1469,6.2772,6.2614,6.2091,6.2091,6.1569,6.091,6.025,5.9338,5.8291,5.6987,5.6222,5.5371,5.4012,5.3246,0.0,0.0,0.0,0.0,0.0,0.0,0.0,0.0,5.1427,5.1546,5.1427,5.044,4.9673,4.9318,4.9655,4.9949,5.0207,5.2157,5.3785,5.497,5.6149,5.6958,5.7377,5.7992,5.7706,5.6598,5.762,5.8085,5.8115,5.8384,5.8726,5.9056,5.8667,5.8726,5.9099,5.9099,5.9757,6.0745,6.1,6.1792,6.2734,5.5212,5.4884,5.5077,5.66,5.6355,5.6429,5.7907,5.8585,5.8956,5.8956,5.9257,5.9483,5.9483,5.9483,5.9483,5.9483,5.9207,5.8704,5.7951,5.76,5.6721,5.5232,5.4798,0.0,5.3482,5.1783,5.0832,5.068,4.899,0.0,4.7703,4.6509,4.5817,4.5484,4.5215,4.5458,4.6174,4.6995,4.7666,4.8234,4.9213,4.969,4.9891,5.0252,5.0503,5.072,5.1163,5.1289,5.1289,5.1289,5.0896,5.0805,5.3082,5.3279,5.2799,5.3459,5.4659,5.6096,5.7634,5.9123,6.0563,6.1998,6.2061,6.1822,6.1822,6.112,6.0312,5.9638,5.8979,5.8171,5.7047,5.6492,5.5833,5.467,5.3785,5.3097,0.0,5.2606,0.0,0.0,5.1666,5.1636,5.1247,5.1206,5.1397,5.1876,5.1026,5.0398,5.0175,5.017,5.0387,5.0787,5.2366,5.3635,5.4491,5.6047,5.6718,5.6492,5.8052,5.8082,5.6808,5.7889,5.8384,5.8384,5.8384,5.8667,5.9069,5.8577,5.8667,5.9099,5.9099,5.9923,6.109,6.109,6.1942,6.3108,5.5947,5.6427,5.6799,5.6972,5.7926,5.8654,5.8685,5.9156,5.9483,5.9483,5.9483,5.9483,5.9483,5.9483,5.9483,5.9483,5.8529,5.7901,5.7901,5.6846,5.5742,0.0,0.0,5.4077,5.292,5.236,5.1523,5.0393,0.0,4.9117,4.7468,4.6391,4.6099,4.6442,4.5788,4.609,4.7129,4.7666,4.8234,4.8843,4.938,4.9916,5.0402,5.0402,5.077,5.1289,5.1289,5.1289,5.1289,5.1289,5.0896,5.0805,5.3082,5.2256,5.087,5.313,5.3356,5.3113,5.4312,5.7034,5.9687,6.0366,6.0837,6.112,6.112,6.0073,5.8936,5.8264,5.759,5.6928,5.6312,5.6192,5.5983,5.5311,5.4054,5.3426,0.0,5.3605,0.0,5.2276,5.2767,5.2648,5.1337,5.1206,5.1206,5.1206,5.1206,5.1487,5.2127,5.0907,5.0817,5.2127,5.2827,5.3845,5.5162,5.5863,5.6521,5.7094,5.7799,5.8085,5.8085,5.8786,5.9099,5.9099,5.9099,5.9099,5.9099,5.9099,5.9099,5.9099,5.9099,5.9923,6.109,6.109,6.1942,6.3108,5.6122,5.6906,5.7664,5.8102,5.8459,5.871,5.871,5.9156,5.9357,5.8987,5.9282,5.9483,5.9483,5.9483,5.9483,5.9483,5.9182,5.8679,5.7951,5.7549,5.6696,5.5207,5.4798,5.4228,5.3439,5.2912,5.2109,5.0996,5.0934,4.9827,4.7754,4.704,4.6781,4.6925,4.7505,4.8149,4.8862,4.9816,5.0334,5.051,5.0686,5.0862,5.1046,5.1423,5.1674,5.19,5.226,5.2385,5.2335,5.1975,5.1724,5.1624,5.1969,5.1602,5.1229,5.2325,5.3273,5.4125,5.4928,5.6183,5.7664,5.9389,5.9306,5.9065,6.0164,5.9385,5.8367,5.8145,5.7573,5.6928,5.6312,5.6192,5.5983,5.5311,5.4461,5.3803,5.3545,0.0,5.2276,5.1606,5.1696,5.1846,5.1887,5.1457,5.1576,5.2486,5.1738,5.1307,5.1517,5.1546,5.1756,5.2187,5.3294,5.4102,5.4521,5.606,5.6688,5.6479,5.8052,5.8786,5.8786,5.9009,5.9099,5.9099,5.9099,5.9099,5.9099,5.9099,5.9099,5.9099,5.9099,5.9923,6.109,6.109,6.1942,6.3108,5.6778,5.7556,5.8328,5.8635,5.8861,5.8987,5.8987,5.9282,5.9382,5.9037,5.9307,5.9483,5.9483,5.9332,5.9282,5.9483,5.9131,5.8604,5.7951,5.7499,5.6595,5.5157,5.4773,5.4228,5.3432,5.3063,5.2561,5.19,5.1272,5.0117,4.8535,4.8193,4.8143,4.8378,4.933,4.9933,5.0284,5.0987,5.1289,5.1289,5.1289,5.1414,5.1641,5.1975,5.2226,5.2435,5.2787,5.2895,5.2845,5.2511,5.2277,5.2051,5.1699,5.1599,5.1574,5.1498,5.2324,5.3388,5.3749,5.485,5.6197,5.7351,5.782,5.8306,5.9458,5.8876,5.8085,5.8085,5.7393,5.6658,5.6282,5.5983,5.5683,5.5281,5.4431,5.3773,5.3605,5.2576,5.1756,0.0,5.1576,5.1726,5.2157,5.1816,5.1905,5.2767,5.1828,5.1295,5.1546,5.1977,5.2306,5.2558,5.3623,5.4431,5.494,5.6376,5.7034,5.6928,5.8411,5.9099,5.9099,5.9099,5.9099,5.9099,5.9099,5.9099,5.9099,5.9099,5.9099,5.9099,5.9099,5.9923,6.109,6.109,6.1942,6.3108,5.7851,5.8384,5.8761,5.8761,5.9182,5.9483,5.9483,5.9483,5.9483,5.9483,5.9483,5.9483,5.9433,5.8987,5.8886,5.9332,5.8478,5.7876,5.7851,5.6828,5.5767,5.4697,5.4622,5.4077,5.2988,5.2937,5.2895,5.2895,5.1306,5.0252,4.9766,4.9757,5.0017,5.0553,5.1096,5.1389,5.1414,5.1414,5.1414,5.1414,5.1414,5.1699,5.2176,5.2176,5.246,5.2895,5.2895,5.2895,5.2895,5.2895,5.2561,5.2176,5.2176,5.2126,5.19,5.0829,5.0978,5.1514,5.1423,5.3298,5.5165,5.4697,5.6522,5.8552,5.9014,5.8577,5.8085,5.8085,5.7107,5.6192,5.6192,5.5641,5.5179,5.5132,5.4054,5.3396,5.397,5.2414,5.1457,5.2127,5.2187,5.2247,5.2336,5.2306,5.2276,5.2336,5.1726,5.1606,5.2247,5.2306,5.2606,5.3246,5.3952,5.494,5.6192,5.6838,5.7513,5.8175,5.8786,5.9099,5.9099,5.9099,5.9099,5.9099,5.9099,5.9099,5.9099,5.9099,5.9099,5.9099,5.9099,5.9893,6.103,6.109,6.1912,6.3048,5.8384,5.8956,5.9307,5.9307,5.9408,5.9483,5.9483,5.9483,5.9483,5.9483,5.9483,5.9332,5.8936,5.8786,5.8585,5.8303,5.8052,5.77,5.7255,5.696,5.6326,5.5257,5.4823,5.4253,5.3532,5.3113,5.2895,5.2895,5.2084,5.1632,5.1498,5.1071,5.1172,5.1699,5.185,5.2151,5.2511,5.2511,5.2511,5.2511,5.2511,5.2611,5.2711,5.2711,5.2787,5.2895,5.2895,5.2895,5.2895,5.2895,5.2812,5.2711,5.2711,5.2435,5.2051,5.1774,5.2685,5.3567,5.2742,5.3257,5.4098,5.4441,5.6185,5.806,5.8895,5.8577,5.8085,5.8085,5.7107,5.6192,5.6192,5.5641,5.5029,5.4521,5.3755,5.3067,5.2725,5.1816,5.1457,5.2127,5.2187,5.2606,5.3623,5.3264,5.3186,5.3683,5.3126,5.2797,5.2947,5.3443,5.379,5.3952,5.5102,5.5893,5.6192,5.7304,5.8188,5.889,5.9026,5.9099,5.9099,5.9099,5.9099,5.9099,5.9099,5.9099,5.9099,5.9099,5.9099,5.9099,5.9099,5.9608,6.0386,6.091,6.1598,6.2405,5.8961,5.9106,5.9207,5.9458,5.9307,5.9232,5.9458,5.9483,5.9483,5.9483,5.9483,5.9382,5.9106,5.8836,5.8585,5.8284,5.7782,5.7355,5.701,5.6778,5.6251,5.5458,5.4898,5.4303,5.3708,5.3163,5.2895,5.2895,5.2611,5.246,5.246,5.2176,5.2201,5.246,5.246,5.2636,5.2895,5.2895,5.2895,5.2895,5.2895,5.2895,5.2895,5.2895,5.2895,5.2895,5.2895,5.2895,5.2895,5.2895,5.2895,5.2895,5.2895,5.2711,5.246,5.246,5.2911,5.3293,5.2691,5.2911,5.34,5.3951,5.511,5.6477,5.771,5.8283,5.8577,5.8577,5.7739,5.6987,5.6658,5.609,5.5341,5.4359,5.3635,5.2989,5.2306,5.1606,5.1457,5.2127,5.2456,5.3054,5.4089,5.3862,5.3803,5.4179,5.3575,5.3336,5.3623,5.4281,5.467,5.467,5.5671,5.6492,5.7064,5.8052,5.8726,5.9099,5.9099,5.9099,5.9099,5.9099,5.9099,5.9099,5.9099,5.9099,5.9099,5.9099,5.9099,5.9099,5.9099,5.9697,6.0595,6.097,6.1732,6.2614,5.9156,5.8956,5.8836,5.9307,5.8987,5.8836,5.9307,5.9382,5.9382,5.9382,5.9433,5.9433,5.9282,5.8836,5.851,5.8334,5.7455,5.691,5.6985,5.6502,5.6018,5.5541,5.5006,5.4429,5.3858,5.3213,5.2895,5.2895,5.2895,5.2895,5.2895,5.2895,5.2895,5.2895,5.2895,5.2895,5.2895,5.2895,5.2895,5.2895,5.2895,5.2895,5.2895,5.2895,5.2895,5.2895,5.2895,5.2895,5.2895,5.2895,5.2895,5.2895,5.2895,5.2895,5.2895,5.2895,5.2586,5.2226,5.2226,5.2561,5.3071,5.3769,5.4294,5.5067,5.6693,5.8109,5.9099,5.9099,5.8577,5.7919,5.7214,5.6611,5.5743,5.4281,5.3575,5.2917,5.2157,5.1636,5.1606,5.2276,5.2947,5.3665,5.4431,5.4491,5.4491,5.4491,5.3964,5.3905,5.4461,5.5042,5.5431,5.5628,5.6179,5.7034,5.8234,5.8816,5.9099,5.9099,5.9099,5.9099,5.9099,5.9099,5.9099,5.9099,5.9099,5.9099,5.9099,5.9099,5.9099,5.9129,5.9219,5.9967,6.097,6.118,6.1972,6.2944,5.8027,5.8434,5.8736,5.8811,5.8761,5.8736,5.8811,5.8811,5.8811,5.8811,5.9232,5.9156,5.8252,5.8077,5.765,5.6652,5.6426,5.6527,5.696,5.6502,5.615,5.6093,5.5541,5.5006,5.4471,5.3457,5.2895,5.2895,5.2895,5.2895,5.2895,5.2895,5.2895,5.2895,5.2895,5.2895,5.2895,5.2895,5.2895,5.2895,5.2895,5.2895,5.2895,5.2895,5.2895,5.2895,5.2895,5.2895,5.2895,5.2895,5.2895,5.2895,5.2895,5.2895,5.2895,5.2895,5.2845,5.2787,5.2787,5.2837,5.3334,5.5177,5.5694,5.6265,5.8291,5.8936,5.9099,5.9099,5.8577,5.7919,5.7214,5.6611,5.5564,5.3665,5.3288,5.2767,5.1517,5.1756,5.2276,5.2989,5.3623,5.4521,5.5773,5.5893,5.5893,5.5893,5.5803,5.5773,5.588,5.5983,5.6539,5.762,5.7739,5.8158,5.8949,5.9069,5.9099,5.9099,5.9099,5.9099,5.9099,5.9099,5.9099,5.9099,5.9099,5.9099,5.9099,5.9099,5.9099,5.9159,5.9727,6.007,6.0386,6.1523,6.2061,6.2345,5.7851,5.7907,5.8008,5.8234,5.8083,5.8108,5.8635,5.8434,5.8478,5.9056,5.9106,5.8861,5.8384,5.8334,5.8001,5.7198,5.6828,5.6753,5.6985,5.6502,5.62,5.62,5.5691,5.5006,5.4127,5.3607,5.3188,5.2895,5.2895,5.2895,5.2895,5.2895,5.2895,5.2895,5.2895,5.2895,5.2895,5.2895,5.2895,5.2895,5.2895,5.2895,5.2895,5.2895,5.2895,5.2895,5.2895,5.2895,5.2895,5.2895,5.2895,5.2895,5.2895,5.2895,5.2895,5.2895,5.2895,5.2895,5.2895,5.2686,5.2911,5.4783,5.5675,5.6495,5.8013,5.9015,5.9548,5.9189,5.8846,5.8427,5.7769,5.7124,5.6149,5.4533,5.3665,5.2977,5.2366,5.2247,5.2725,5.4114,5.4563,5.5239,5.6568,5.6688,5.6688,5.6688,5.6688,5.6688,5.6688,5.7047,5.75,5.8085,5.8457,5.8786,5.9099,5.9099,5.9099,5.9099,5.9099,5.9099,5.9099,5.9099,5.9099,5.9099,5.9099,5.9099,5.9099,5.9099,5.9099,5.9159,5.9831,6.034,6.0745,6.1732,6.2345,6.2674,5.7499,5.7374,5.7349,5.765,5.7549,5.765,5.8234,5.8183,5.8303,5.8855,5.8886,5.8736,5.8359,5.8434,5.8234,5.7575,5.7079,5.6809,5.6809,5.6426,5.62,5.62,5.5691,5.4913,5.3934,5.3758,5.3457,5.2895,5.2895,5.2895,5.2895,5.2895,5.2895,5.2895,5.2895,5.2895,5.2895,5.2895,5.2895,5.2895,5.2895,5.2895,5.2895,5.2895,5.2895,5.2895,5.2895,5.2895,5.2895,5.2895,5.2895,5.2895,5.2895,5.2895,5.2895,5.2895,5.2895,5.2895,5.2895,5.2611,5.2649,5.4187,5.551,5.6634,5.7639,5.9015,5.9951,5.9428,5.9219,5.8906,5.8205,5.756,5.6675,5.5401,5.4204,5.3366,5.3216,5.2875,5.3294,5.5012,5.5341,5.594,5.7214,5.7334,5.7334,5.7334,5.7334,5.7334,5.7334,5.7829,5.8175,5.8338,5.8816,5.9099,5.9099,5.9099,5.9099,5.9099,5.9099,5.9189,5.9338,5.9338,5.9338,5.9338,5.9338,5.9249,5.9099,5.9099,5.9099,5.9189,6.001,6.0655,6.121,6.2032,6.2674,6.3108,5.6344,5.6702,5.7035,5.706,5.7506,5.77,5.7186,5.8008,5.8284,5.7311,5.8485,5.8855,5.7286,5.7606,5.7524,5.6401,5.6276,5.6251,5.6251,5.6226,5.62,5.62,5.5691,5.5132,5.4547,5.4002,5.3457,5.2895,5.2895,5.2895,5.2895,5.2895,5.2895,5.2895,5.2895,5.2895,5.2895,5.2895,5.2895,5.2895,5.2895,5.2895,5.2895,5.2895,5.2895,5.2895,5.2895,5.2895,5.2895,5.2895,5.2895,5.2895,5.2895,5.2895,5.2895,5.2895,5.2895,5.2895,5.2895,5.2887,5.3096,5.4236,5.5739,5.7212,5.8209,5.9295,6.01,6.004,5.9518,5.8906,5.8205,5.756,5.6675,5.5401,5.461,5.3922,5.3276,5.3683,5.4341,5.5089,5.5743,5.6628,5.7919,5.8038,5.8038,5.8038,5.8038,5.8038,5.8038,5.8055,5.8384,5.8996,5.9056,5.9099,5.9099,5.9099,5.9099,5.9099,5.9099,5.9428,6.004,6.004,6.004,6.004,6.004,5.9668,5.9099,5.9099,5.9099,5.9249,6.0521,6.106,6.1269,6.2555,6.3063,6.3108,5.62,5.6351,5.6502,5.6502,5.6677,5.6878,5.6985,5.7104,5.7255,5.7506,5.7782,5.7706,5.706,5.7186,5.7029,5.6251,5.62,5.62,5.62,5.62,5.62,5.62,5.6,5.5509,5.4622,5.4396,5.3808,5.2895,5.2895,5.2895,5.2895,5.2895,5.2895,5.2895,5.2895,5.2895,5.2895,5.2895,5.2895,5.2895,5.2895,5.2895,5.2895,5.2895,5.2895,5.2895,5.2895,5.2895,5.2895,5.2895,5.2895,5.2895,5.2895,5.2895,5.2895,5.2895,5.2895,5.2895,5.2895,5.2895,5.3265,5.4687,5.5544,5.6564,5.8643,5.9422,5.9913,6.058,6.0176,5.9651,5.9398,5.8457,5.7423,5.6526,5.585,5.5341,5.5085,5.5281,5.582,5.6872,5.7201,5.7739,5.8637,5.8726,5.8726,5.8726,5.8726,5.8726,5.8726,5.8726,5.8846,5.9099,5.9099,5.9099,5.9099,5.9099,5.9099,5.9099,5.9099,5.9458,6.01,6.01,6.034,6.0715,6.028,6.0176,6.0282,5.9444,5.9338,5.9817,6.0745,6.109,6.1269,6.2614,6.3108,6.3108,5.62,5.62,5.62,5.62,5.6326,5.6527,5.6728,5.6728,5.6897,5.7323,5.7455,5.7387,5.7035,5.7161,5.7054,5.6502,5.6301,5.62,5.62,5.62,5.62,5.62,5.62,5.5691,5.4622,5.4597,5.4052,5.2895,5.2895,5.2895,5.2895,5.2895,5.2895,5.2895,5.2895,5.2895,5.2895,5.2895,5.2895,5.2895,5.2895,5.2895,5.2895,5.2895,5.2895,5.2895,5.2895,5.2895,5.2895,5.2895,5.2895,5.2895,5.2895,5.2895,5.2895,5.2895,5.2895,5.2895,5.2895,5.2895,5.3179,5.4332,5.5015,5.5877,5.7784,5.8879,5.971,6.0437,6.0499,6.0416,6.0416,5.9325,5.8278,5.7812,5.7017,5.6492,5.6492,5.6658,5.7124,5.7995,5.8308,5.8607,5.9069,5.9099,5.9099,5.9099,5.9099,5.9099,5.9099,5.9099,5.9099,5.9099,5.9099,5.9099,5.9099,5.9099,5.9099,5.9099,5.9308,5.9638,6.01,6.0549,6.0759,6.0775,6.0745,6.0625,6.0402,5.9697,5.9548,5.9847,6.0535,6.091,6.1239,6.2375,6.2914,6.3108,5.62,5.62,5.6219,5.62,5.6652,5.6809,5.6276,5.7173,5.7474,5.6369,5.7656,5.824,5.7111,5.7531,5.765,5.7035,5.6502,5.62,5.62,5.62,5.62,5.6175,5.6175,5.5691,5.4622,5.4597,5.4052,5.2895,5.2895,5.2895,5.2895,5.2895,5.2895,5.2895,5.2895,5.2895,5.2895,5.2895,5.2895,5.2895,5.2895,5.2895,5.2895,5.2895,5.2895,5.2895,5.2895,5.2895,5.2895,5.2895,5.2895,5.2895,5.2895,5.2895,5.2895,5.2895,5.2895,5.2895,5.2895,5.2895,5.2895,5.2895,5.413,5.537,5.5403,5.7511,5.9484,5.9513,6.0352,6.1106,6.112,6.0013,5.9129,5.9099,5.7992,5.7137,5.7137,5.7679,5.8115,5.8115,5.8697,5.9099,5.9099,5.9099,5.9099,5.9099,5.9099,5.9099,5.9099,5.9099,5.9099,5.9099,5.9099,5.9099,5.9099,5.9099,5.9099,5.9129,5.9757,6.01,6.016,6.1477,6.1357,6.019,6.1493,6.0954,5.9189,5.9831,5.9697,5.9189,5.9831,6.0505,6.118,6.1852,6.2525,6.3108,5.62,5.5892,5.5767,5.6125,5.6018,5.5968,5.615,5.6495,5.6595,5.6226,5.6953,5.7236,5.6527,5.6953,5.7054,5.6502,5.6652,5.6778,5.6778,5.6778,5.6426,5.5666,5.5641,5.5308,5.4622,5.4177,5.3607,5.2895,5.2895,5.2895,5.2895,5.2895,5.2895,5.2895,5.2895,5.2895,5.2895,5.2895,5.2895,5.2895,5.2895,5.2895,5.2895,5.2895,5.2895,5.2895,5.2895,5.2895,5.2895,5.2895,5.2895,5.2895,5.2895,5.2895,5.2895,5.2895,5.2895,5.2895,5.2895,5.2895,5.2895,5.2895,5.3299,5.3954,5.5132,5.6029,5.7295,5.9723,6.0088,6.0369,6.1594,6.109,6.0192,5.9249,5.9534,5.9564,5.865,5.9069,5.9488,5.9488,5.9249,5.9099,5.9099,5.9099,5.9099,5.9099,5.9099,5.9099,5.9099,5.9099,5.9099,5.9099,5.9099,5.9099,5.9099,5.9099,5.9099,5.9099,5.9308,5.9638,6.01,6.0519,6.0759,6.0821,6.121,6.1299,6.1134,6.04,6.0266,6.0462,6.022,6.0505,6.118,6.1852,6.2525,6.3108,5.5842,5.5616,5.5491,5.5817,5.5792,5.5817,5.615,5.62,5.62,5.62,5.6677,5.6885,5.6552,5.6809,5.686,5.6552,5.6627,5.6677,5.6677,5.6677,5.6401,5.5742,5.5491,5.5031,5.4253,5.4127,5.3683,5.2895,5.3113,5.3113,5.2895,5.2895,5.2895,5.2895,5.2895,5.2895,5.2895,5.2895,5.2895,5.2895,5.2895,5.2895,5.2895,5.2895,5.2895,5.2895,5.2895,5.2895,5.2895,5.2895,5.2895,5.2895,5.2895,5.2895,5.2895,5.2895,5.2895,5.2895,5.2895,5.2895,5.2895,5.2895,5.2895,5.3179,5.4164,5.4916,5.5984,5.806,5.9224,6.0216,6.1277,6.1469,6.1224,6.0416,6.0731,6.0821,6.0013,6.0475,6.0789,6.0535,6.0386,6.0086,5.9548,5.9488,5.9398,5.9129,5.9099,5.9099,5.9099,5.9099,5.9099,5.9099,5.9099,5.9099,5.9099,5.9099,5.9099,5.9099,5.9368,5.9578,5.9727,6.0236,6.0446,6.0342,6.088,6.103,6.0864,6.034,6.0176,6.0252,5.9847,6.0266,6.115,6.1553,6.2315,6.3108,5.5232,5.5333,5.5333,5.5333,5.5691,5.6,5.61,5.6143,5.6168,5.6175,5.6677,5.6985,5.6935,5.696,5.6985,5.6935,5.6577,5.6351,5.6351,5.6351,5.6294,5.6143,5.5666,5.4888,5.3808,5.4253,5.4027,5.297,5.3414,5.3364,5.2895,5.2895,5.2895,5.2895,5.2895,5.2895,5.2895,5.2895,5.2895,5.2895,5.2895,5.2895,5.2895,5.2895,5.2895,5.2895,5.2895,5.2895,5.2895,5.2895,5.2895,5.2895,5.2895,5.2895,5.2895,5.2895,5.2895,5.2895,5.2895,5.2895,5.2895,5.2895,5.2895,5.2895,5.2895,5.4089,5.5231,5.537,5.7886,6.0072,6.0252,6.1072,6.175,6.1863,6.1401,6.1085,6.1196,6.1732,6.1852,6.118,6.1583,6.1417,6.013,6.001,5.9771,5.9159,5.9159,5.9189,5.9189,5.9189,5.9189,5.9189,5.9115,5.9099,5.9099,5.9099,5.9099,5.9129,5.9727,5.9727,5.9249,6.0402,6.0282,5.9249,6.0462,6.0312,5.9249,5.9861,5.9741,5.9189,5.9129,5.9863,6.103,6.109,6.1912,6.3003,5.483,5.4755,5.4755,5.4755,5.4479,5.4536,5.544,5.5566,5.5717,5.6125,5.6677,5.6835,5.6426,5.6734,5.6835,5.6401,5.7097,5.7524,5.7524,5.7524,5.6947,5.5616,5.544,5.5082,5.4421,5.4077,5.3758,5.3532,5.3213,5.2995,5.2895,5.2895,5.2895,5.2895,5.2895,5.2895,5.2895,5.2895,5.2895,5.2895,5.2895,5.2895,5.2895,5.2895,5.2895,5.2895,5.2895,5.2895,5.2895,5.2895,5.2895,5.2895,5.2895,5.2895,5.2895,5.2895,5.2895,5.2895,5.2895,5.2895,5.2895,5.2895,5.2895,5.2895,5.2895,5.3179,5.3827,5.5132,5.5984,5.694,5.8277,5.874,5.9163,5.9927,6.0381,6.094,6.1771,6.2002,6.1852,6.118,6.0775,6.0206,5.9398,5.9308,5.9249,5.9129,5.9578,5.9891,5.9891,5.9891,5.9891,5.9891,5.9368,5.9099,5.9099,5.9099,5.9099,5.9099,5.9249,5.9518,5.9891,5.9638,5.9668,5.9891,6.019,6.016,5.9877,6.004,6.001,5.9831,5.9308,5.9608,6.04,6.091,6.1613,6.2405,5.4177,5.4177,5.4177,5.4177,5.4152,5.4429,5.5282,5.5408,5.5591,5.6143,5.6451,5.6502,5.6226,5.6451,5.6502,5.6226,5.6728,5.7097,5.7097,5.7097,5.6696,5.5817,5.5792,5.5516,5.4981,5.4429,5.4002,5.3708,5.3432,5.3163,5.2895,5.2895,5.2895,5.2895,5.2895,5.2895,5.2895,5.2895,5.2895,5.2895,5.2895,5.2895,5.2895,5.2895,5.2895,5.2895,5.2895,5.2895,5.2895,5.2895,5.2895,5.2895,5.2895,5.2895,5.2895,5.2895,5.2895,5.2895,5.2895,5.2895,5.2895,5.2895,5.2895,5.2895,5.2895,5.2895,5.3145,5.4038,5.4832,5.5683,5.6585,5.7448,5.8178,5.8697,5.975,6.0709,6.1263,6.205,6.2345,6.1672,6.1253,6.0669,5.9668,5.9279,5.9099,5.9099,5.9428,5.9608,5.9608,5.9608,5.9608,5.9608,5.9279,5.9099,5.9099,5.9099,5.9099,5.9099,5.9428,5.9771,6.01,5.9741,5.9771,6.007,5.9771,5.9608,5.9608,5.9608,5.9608,5.9578,5.9249,5.9518,6.013,6.0475,6.1253,6.2181,5.349,5.3632,5.3683,5.3582,5.4052,5.4629,5.5182,5.5358,5.5591,5.6143,5.62,5.62,5.62,5.62,5.6226,5.6326,5.6326,5.6326,5.6326,5.6326,5.6301,5.62,5.62,5.5968,5.5408,5.4856,5.4303,5.3708,5.3607,5.3339,5.2895,5.2895,5.2895,5.2895,5.2895,5.2895,5.2895,5.2895,5.2895,5.2895,5.2895,5.2895,5.2895,5.2895,5.2895,5.2895,5.2895,5.2895,5.2895,5.2895,5.2895,5.2895,5.2895,5.2895,5.2895,5.2895,5.2895,5.2895,5.2895,5.2895,5.2895,5.2895,5.2895,5.2895,5.2895,5.2895,5.2895,5.2895,5.4004,5.4966,5.4966,5.6141,5.7224,5.7512,5.8731,5.9736,6.0039,6.1555,6.2405,6.1736,6.1726,6.1297,6.004,5.9428,5.9099,5.9099,5.9219,5.9279,5.9279,5.9279,5.9279,5.9279,5.9159,5.9099,5.9099,5.9099,5.9099,5.9129,5.9907,6.028,6.028,6.028,6.028,6.022,5.9548,5.9219,5.9099,5.9099,5.9099,5.9099,5.9099,5.9428,5.9951,6.019,6.1058,6.2181,5.3088,5.3364,5.354,5.3088,5.3439,5.4027,5.4622,5.5107,5.5591,5.6143,5.62,5.62,5.62,5.62,5.6376,5.6835,5.6885,5.6885,5.6885,5.6885,5.6684,5.6226,5.62,5.5968,5.5408,5.4856,5.4303,5.3708,5.3239,5.297,5.2895,5.2895,5.2895,5.2895,5.2895,5.2895,5.2895,5.2895,5.2895,5.2895,5.2895,5.2895,5.2895,5.2895,5.2895,5.2895,5.2895,5.2895,5.2895,5.2895,5.2895,5.2895,5.2895,5.2895,5.2895,5.2895,5.2895,5.2895,5.2895,5.2895,5.2895,5.2895,5.2895,5.2895,5.2895,5.2895,5.2895,5.2895,5.3076,5.3247,5.3247,5.3427,5.4055,5.5502,5.5935,5.6618,5.8119,5.9795,6.0608,5.9942,6.0167,6.007,5.9308,5.9159,5.9099,5.9099,5.9651,5.9951,5.9951,5.9951,5.9951,5.9951,5.9398,5.9099,5.9099,5.9099,5.9099,5.9129,6.0386,6.097,6.097,6.097,6.097,6.094,6.028,5.9651,5.9099,5.9099,5.9099,5.9099,5.9099,5.9159,5.9368,6.0535,6.1463,6.2181,5.2962,5.3088,5.3188,5.2945,5.3113,5.3557,5.4454,5.4798,5.5257,5.6093,5.62,5.62,5.62,5.62,5.6301,5.6527,5.6552,5.6552,5.6552,5.6552,5.6301,5.5767,5.5742,5.534,5.4461,5.4228,5.3808,5.3264,5.3013,5.2895,5.2895,5.2895,5.2895,5.2895,5.2895,5.2895,5.2895,5.2895,5.2895,5.2895,5.2895,5.2895,5.2895,5.2895,5.2895,5.2895,5.2895,5.2895,5.2895,5.2895,5.2895,5.2895,5.2895,5.2895,5.2895,5.2895,5.2895,5.2895,5.2895,5.2895,5.2895,5.2895,5.2895,5.2895,5.2895,5.2895,5.2895,5.2895,5.2895,5.2895,5.2895,5.2895,5.3145,5.3869,5.4792,5.5666,5.6423,5.8025,5.8751,5.7779,5.8291,5.8451,5.7835,5.858,5.9099,5.9099,5.9368,5.9548,5.9548,5.9548,5.9548,5.9548,5.9249,5.9099,5.9099,5.9099,5.9099,5.9129,6.0086,6.0535,6.0565,6.094,6.088,6.0505,5.9817,5.9368,5.9099,5.9099,5.9099,5.9099,5.9099,5.9099,5.9219,6.0176,6.0715,6.1134]},{"header":{"parameterUnit":"m.s-1","parameterCategory":1,"la1":30.6,"la2":28.766,"lo1":-90.7593,"lo2":-88.6598,"dy":0.0162,"dx":0.0183,"nx":116,"ny":114,"refTime":"2024-05-08T12:00:00:Z","depth":0,"parameterNumber":3,"parameterNumberName":"V-component_of_WINDS"},"data":[0.0,0.0,0.0,0.0,0.0,0.0,0.0,0.0,0.0,0.0,0.0,0.0,0.0,0.0,0.0,0.0,0.0,0.0,0.0,0.0,0.0,0.0,0.0,0.0,0.0,0.0,0.0,0.0,0.0,0.0,0.0,0.0,0.0,0.0,0.0,0.0,0.0,0.0,0.0,0.0,0.0,0.0,0.0,0.0,0.0,0.0,0.0,0.0,0.0,0.0,0.0,0.0,0.0,0.0,0.0,0.0,0.0,0.0,0.0,0.0,0.0,0.0,0.0,0.0,0.0,0.0,0.0,0.0,0.0,0.0,0.0,0.0,0.0,0.0,0.0,0.0,0.0,0.0,0.0,0.0,0.0,0.0,0.0,0.0,0.0,0.0,0.0,0.0,0.0,0.0,0.0,0.0,0.0,0.0,0.0,0.0,0.0,0.0,0.0,0.0,0.0,0.0,0.0,0.0,0.0,0.0,0.0,0.0,0.0,0.0,0.0,0.0,0.0,0.0,0.0,0.0,0.0,0.0,0.0,0.0,0.0,0.0,0.0,0.0,0.0,0.0,0.0,0.0,0.0,0.0,0.0,0.0,0.0,0.0,0.0,0.0,0.0,0.0,0.0,0.0,0.0,0.0,0.0,0.0,0.0,0.0,0.0,0.0,0.0,0.0,0.0,0.0,0.0,0.0,0.0,0.0,0.0,0.0,0.0,0.0,0.0,0.0,0.0,0.0,0.0,0.0,0.0,0.0,0.0,0.0,0.0,0.0,0.0,0.0,0.0,0.0,0.0,0.0,0.0,0.0,0.0,0.0,0.0,0.0,0.0,0.0,0.0,0.0,0.0,0.0,0.0,0.0,0.0,0.0,0.0,0.0,0.0,0.0,0.0,0.0,0.0,0.0,0.0,0.0,0.0,0.0,0.0,0.0,0.0,0.0,0.0,0.0,0.0,0.0,0.0,0.0,0.0,0.0,0.0,0.0,0.0,0.0,0.0,0.0,0.0,0.0,0.0,0.0,0.0,0.0,0.0,0.0,0.0,0.0,0.0,0.0,0.0,0.0,0.0,0.0,0.0,0.0,0.0,0.0,0.0,0.0,0.0,0.0,0.0,0.0,0.0,0.0,0.0,0.0,0.0,0.0,0.0,0.0,0.0,0.0,0.0,0.0,0.0,0.0,0.0,0.0,0.0,0.0,0.0,0.0,0.0,0.0,0.0,0.0,0.0,0.0,0.0,0.0,0.0,0.0,0.0,0.0,0.0,0.0,0.0,0.0,0.0,0.0,0.0,0.0,0.0,0.0,0.0,0.0,0.0,0.0,0.0,0.0,0.0,0.0,0.0,0.0,0.0,0.0,0.0,0.0,0.0,0.0,0.0,0.0,0.0,0.0,0.0,0.0,0.0,0.0,0.0,0.0,0.0,0.0,0.0,0.0,0.0,0.0,0.0,0.0,0.0,0.0,0.0,0.0,0.0,0.0,0.0,0.0,0.0,0.0,0.0,0.0,0.0,0.0,0.0,0.0,0.0,0.0,0.0,0.0,0.0,0.0,0.0,0.0,0.0,0.0,0.0,0.0,0.0,0.0,0.0,0.0,0.0,0.0,0.0,0.0,0.0,0.0,0.0,0.0,0.0,0.0,0.0,0.0,0.0,0.0,0.0,0.0,0.0,0.0,0.0,0.0,0.0,0.0,0.0,0.0,0.0,0.0,0.0,0.0,0.0,0.0,0.0,0.0,0.0,0.0,0.0,0.0,0.0,0.0,0.0,0.0,0.0,0.0,0.0,0.0,0.0,0.0,0.0,0.0,0.0,0.0,0.0,0.0,0.0,0.0,0.0,0.0,0.0,0.0,0.0,0.0,0.0,0.0,0.0,0.0,0.0,0.0,0.0,0.0,0.0,0.0,0.0,0.0,0.0,0.0,0.0,0.0,0.0,0.0,0.0,0.0,0.0,0.0,0.0,0.0,0.0,0.0,0.0,0.0,0.0,0.0,0.0,0.0,0.0,0.0,0.0,0.0,0.0,0.0,0.0,0.0,0.0,0.0,0.0,0.0,0.0,0.0,0.0,0.0,0.0,0.0,0.0,0.0,0.0,0.0,0.0,0.0,0.0,0.0,0.0,0.0,0.0,0.0,0.0,0.0,0.0,0.0,0.0,0.0,0.0,0.0,0.0,0.0,0.0,0.0,0.0,0.0,0.0,0.0,0.0,0.0,0.0,0.0,0.0,0.0,0.0,0.0,0.0,0.0,0.0,0.0,0.0,0.0,0.0,0.0,0.0,0.0,0.0,0.0,0.0,0.0,0.0,0.0,0.0,0.0,0.0,0.0,0.0,0.0,0.0,0.0,0.0,0.0,0.0,0.0,0.0,0.0,0.0,0.0,0.0,0.0,0.0,0.0,0.0,0.0,0.0,0.0,0.0,0.0,0.0,0.0,0.0,0.0,0.0,0.0,0.0,0.0,0.0,0.0,0.0,0.0,0.0,0.0,0.0,0.0,0.0,0.0,0.0,0.0,0.0,0.0,0.0,0.0,0.0,0.0,0.0,0.0,0.0,0.0,0.0,0.0,0.0,0.0,0.0,0.0,0.0,0.0,0.0,0.0,0.0,0.0,0.0,0.0,0.0,0.0,0.0,0.0,0.0,0.0,0.0,0.0,0.0,0.0,0.0,0.0,0.0,0.0,0.0,0.0,0.0,0.0,0.0,0.0,0.0,0.0,0.0,0.0,0.0,0.0,0.0,0.0,0.0,0.0,0.0,0.0,0.0,0.0,0.0,0.0,0.0,0.0,0.0,0.0,0.0,0.0,0.0,0.0,0.0,0.0,0.0,0.0,0.0,0.0,0.0,0.0,0.0,0.0,0.0,0.0,0.0,0.0,0.0,0.0,0.0,0.0,0.0,0.0,0.0,0.0,0.0,0.0,0.0,0.0,0.0,0.0,0.0,0.0,0.0,0.0,0.0,0.0,0.0,0.0,0.0,0.0,0.0,0.0,0.0,0.0,0.0,0.0,0.0,0.0,0.0,0.0,0.0,0.0,0.0,0.0,0.0,0.0,0.0,0.0,0.0,0.0,0.0,0.0,0.0,0.0,0.0,0.0,0.0,0.0,0.0,0.0,0.0,0.0,0.0,0.0,0.0,0.0,0.0,0.0,0.0,0.0,0.0,0.0,0.0,0.0,0.0,0.0,0.0,0.0,0.0,0.0,0.0,0.0,0.0,0.0,0.0,0.0,0.0,0.0,0.0,0.0,0.0,0.0,0.0,0.0,0.0,0.0,0.0,0.0,0.0,0.0,0.0,0.0,0.0,0.0,0.0,0.0,0.0,0.0,0.0,0.0,0.0,0.0,0.0,0.0,0.0,0.0,0.0,0.0,0.0,0.0,0.0,0.0,0.0,0.0,0.0,0.0,0.0,0.0,0.0,0.0,0.0,0.0,0.0,0.0,0.0,0.0,0.0,0.0,0.0,0.0,0.0,0.0,0.0,0.0,0.0,0.0,0.0,0.0,0.0,0.0,0.0,0.0,0.0,0.0,0.0,0.0,0.0,0.0,0.0,0.0,0.0,0.0,0.0,0.0,0.0,0.0,0.0,0.0,0.0,0.0,0.0,0.0,0.0,0.0,0.0,0.0,0.0,0.0,0.0,0.0,0.0,0.0,0.0,0.0,0.0,0.0,0.0,0.0,0.0,0.0,0.0,0.0,0.0,0.0,0.0,0.0,0.0,0.0,0.0,0.0,0.0,0.0,0.0,0.0,0.0,0.0,0.0,0.0,0.0,0.0,0.0,0.0,0.0,0.0,0.0,0.0,0.0,0.0,0.0,0.0,0.0,0.0,0.0,0.0,0.0,0.0,0.0,0.0,0.0,0.0,0.0,0.0,0.0,0.0,0.0,0.0,0.0,0.0,0.0,0.0,0.0,0.0,0.0,0.0,0.0,0.0,0.0,0.0,0.0,0.0,0.0,0.0,0.0,0.0,0.0,0.0,0.0,0.0,0.0,0.0,0.0,0.0,0.0,0.0,0.0,0.0,0.0,0.0,0.0,0.0,0.0,0.0,0.0,0.0,0.0,0.0,0.0,0.0,0.0,0.0,0.0,0.0,0.0,0.0,0.0,0.0,0.0,0.0,0.0,0.0,0.0,0.0,0.0,0.0,0.0,0.0,0.0,0.0,0.0,0.0,0.0,0.0,0.0,0.0,0.0,0.0,0.0,0.0,0.0,0.0,0.0,0.0,0.0,0.0,0.0,0.0,0.0,0.0,0.0,0.0,0.0,0.0,0.0,0.0,0.0,0.0,0.0,0.0,0.0,0.0,0.0,0.0,0.0,0.0,0.0,0.0,0.0,0.0,0.0,0.0,0.0,0.0,0.0,0.0,0.0,0.0,0.0,0.0,0.0,0.0,0.0,0.0,0.0,0.0,0.0,0.0,0.0,0.0,0.0,0.0,0.0,0.0,0.0,0.0,0.0,0.0,0.0,0.0,0.0,0.0,0.0,0.0,0.0,0.0,0.0,0.0,0.0,0.0,0.0,0.0,0.0,0.0,0.0,0.0,0.0,0.0,0.0,0.0,0.0,0.0,0.0,0.0,0.0,0.0,0.0,0.0,0.0,0.0,0.0,0.0,0.0,0.0,0.0,0.0,0.0,0.0,0.0,0.0,0.0,0.0,0.0,0.0,0.0,0.0,0.0,0.0,0.0,0.0,0.0,0.0,0.0,0.0,0.0,0.0,0.0,0.0,0.0,0.0,0.0,0.0,0.0,0.0,0.0,0.0,0.0,0.0,0.0,0.0,0.0,0.0,0.0,0.0,0.0,0.0,0.0,0.0,0.0,0.0,0.0,0.0,0.0,0.0,0.0,0.0,0.0,0.0,0.0,0.0,0.0,0.0,0.0,0.0,0.0,0.0,0.0,0.0,0.0,0.0,0.0,0.0,0.0,0.0,0.0,0.0,0.0,0.0,0.0,0.0,0.0,0.0,0.0,0.0,0.0,0.0,0.0,0.0,0.0,0.0,0.0,0.0,0.0,0.0,0.0,0.0,0.0,0.0,0.0,0.0,0.0,0.0,0.0,0.0,0.0,0.0,0.0,0.0,0.0,0.0,0.0,0.0,0.0,0.0,0.0,0.0,0.0,0.0,0.0,0.0,0.0,0.0,0.0,0.0,0.0,0.0,0.0,0.0,0.0,0.0,0.0,0.0,0.0,0.0,0.0,0.0,0.0,0.0,0.0,0.0,0.0,0.0,0.0,0.0,0.0,0.0,0.0,0.0,0.0,0.0,0.0,0.0,0.0,0.0,0.0,0.0,0.0,0.0,0.0,0.0,0.0,0.0,0.0,0.0,0.0,0.0,0.0,0.0,0.0,0.0,0.0,0.0,0.0,0.0,0.0,0.0,0.0,0.0,0.0,0.0,0.0,0.0,0.0,0.0,0.0,0.0,0.0,0.0,0.0,0.0,0.0,0.0,0.0,0.0,0.0,0.0,0.0,0.0,0.0,0.0,0.0,0.0,0.0,0.0,0.0,0.0,0.0,0.0,0.0,0.0,0.0,0.0,0.0,0.0,0.0,0.0,0.0,0.0,0.0,0.0,0.0,0.0,0.0,0.0,0.0,0.0,0.0,0.0,0.0,0.0,0.0,0.0,0.0,0.0,0.0,0.0,0.0,0.0,0.0,0.0,0.0,0.0,0.0,0.0,0.0,0.0,0.0,0.0,0.0,0.0,0.0,0.0,0.0,0.0,0.0,0.0,0.0,0.0,0.0,0.0,0.0,0.0,0.0,0.0,0.0,0.0,0.0,0.0,0.0,0.0,0.0,0.0,0.0,0.0,0.0,0.0,0.0,0.0,0.0,0.0,0.0,0.0,0.0,0.0,0.0,0.0,0.0,0.0,0.0,0.0,0.0,0.0,0.0,0.0,0.0,0.0,0.0,0.0,0.0,0.0,0.0,0.0,0.0,0.0,0.0,0.0,0.0,0.0,0.0,0.0,0.0,0.0,0.0,0.0,0.0,0.0,0.0,0.0,0.0,0.0,0.0,0.0,0.0,0.0,0.0,0.0,0.0,0.0,0.0,0.0,0.0,0.0,0.0,0.0,0.0,0.0,0.0,0.0,0.0,0.0,2.0042,1.9001,0.0,0.0,0.0,0.0,0.0,0.0,0.0,0.0,0.0,0.0,0.0,0.0,0.0,0.0,0.0,0.0,0.0,0.0,0.0,0.0,0.0,0.0,0.0,2.1913,2.2162,2.1739,2.1884,2.1996,2.1996,0.0,0.0,0.0,0.0,0.0,2.1552,2.1962,2.2187,2.2187,2.3141,2.3707,2.3897,2.3788,2.3396,2.2791,0.0,0.0,0.0,0.0,0.0,0.0,0.0,0.0,0.0,0.0,0.0,0.0,0.0,0.0,0.0,0.0,0.0,0.0,0.0,0.0,0.0,0.0,0.0,0.0,0.0,0.0,0.0,0.0,0.0,0.0,0.0,0.0,0.0,0.0,0.0,0.0,0.0,0.0,0.0,0.0,0.0,0.0,0.0,0.0,0.0,0.0,0.0,0.0,0.0,0.0,0.0,0.0,0.0,0.0,0.0,0.0,0.0,0.0,0.0,0.0,0.0,0.0,0.0,0.0,0.0,0.0,0.0,0.0,0.0,0.0,2.2529,2.0992,0.0,0.0,0.0,0.0,0.0,0.0,0.0,0.0,0.0,0.0,0.0,0.0,0.0,0.0,0.0,0.0,0.0,0.0,0.0,0.0,0.0,2.341,2.2511,2.2891,2.3255,2.3304,2.3588,2.3723,2.3523,2.3576,0.0,0.0,0.0,2.2081,2.2003,2.2402,2.2703,2.2896,2.4658,2.5613,2.5845,2.5685,2.5234,2.4529,2.3919,0.0,0.0,0.0,0.0,0.0,0.0,0.0,0.0,0.0,0.0,0.0,0.0,0.0,0.0,0.0,0.0,0.0,0.0,0.0,0.0,0.0,0.0,0.0,0.0,0.0,0.0,0.0,0.0,0.0,0.0,0.0,0.0,0.0,0.0,0.0,0.0,0.0,0.0,0.0,0.0,0.0,0.0,0.0,0.0,0.0,0.0,0.0,0.0,0.0,0.0,0.0,0.0,0.0,0.0,0.0,0.0,0.0,0.0,0.0,0.0,0.0,0.0,0.0,2.8334,2.8738,2.8978,2.8978,2.9238,2.9481,2.5934,2.4049,2.3388,2.2158,0.0,0.0,0.0,0.0,0.0,0.0,0.0,0.0,0.0,0.0,0.0,0.0,0.0,0.0,0.0,0.0,0.0,0.0,0.0,2.4601,2.4061,2.4825,2.5261,2.4928,2.4953,2.4554,2.3573,2.3882,2.3443,2.1957,2.2557,2.2791,2.2431,2.283,2.3504,2.4502,2.7097,2.8097,2.7611,2.9576,3.0416,3.0179,2.7198,2.6718,2.8022,0.0,0.0,0.0,0.0,0.0,0.0,0.0,0.0,0.0,0.0,0.0,0.0,0.0,0.0,0.0,0.0,0.0,0.0,0.0,0.0,0.0,0.0,0.0,0.0,0.0,0.0,0.0,0.0,0.0,0.0,0.0,0.0,0.0,0.0,0.0,0.0,0.0,0.0,0.0,0.0,0.0,2.3053,2.3081,0.0,0.0,0.0,0.0,0.0,0.0,0.0,0.0,0.0,0.0,0.0,0.0,0.0,2.8099,2.8914,3.0522,3.1206,3.0923,3.1738,3.1968,3.169,3.169,3.2105,3.2762,3.1845,0.0,2.693,2.5609,0.0,0.0,0.0,0.0,0.0,0.0,0.0,0.0,0.0,0.0,0.0,0.0,0.0,0.0,0.0,0.0,0.0,0.0,0.0,0.0,0.0,2.6028,2.6614,2.6504,2.7292,2.7293,2.6154,2.6878,2.6494,2.4562,2.4207,2.4278,2.4734,2.4279,2.5507,2.8522,2.9965,3.1172,3.2138,3.2783,3.3451,3.4025,3.2207,3.066,2.9319,2.8011,0.0,0.0,0.0,0.0,0.0,0.0,0.0,0.0,0.0,0.0,0.0,0.0,0.0,0.0,0.0,0.0,0.0,0.0,0.0,0.0,0.0,0.0,0.0,0.0,0.0,0.0,0.0,0.0,0.0,0.0,0.0,0.0,0.0,0.0,0.0,0.0,0.0,0.0,0.0,2.3415,2.3638,2.317,2.3521,2.3649,0.0,0.0,0.0,0.0,0.0,0.0,0.0,0.0,0.0,2.89,2.9936,3.0893,3.1719,3.2984,3.375,3.4046,3.4668,3.5016,3.5075,3.5075,3.5371,3.592,3.5508,3.4199,3.2148,2.9367,2.7298,2.5759,0.0,0.0,0.0,0.0,2.2414,2.2614,0.0,0.0,0.0,0.0,0.0,0.0,0.0,0.0,0.0,0.0,0.0,0.0,2.6854,2.7603,2.8299,2.8678,2.9641,2.9718,2.862,2.906,2.8503,2.6578,2.5682,2.563,2.6483,2.649,2.8218,3.178,3.344,3.5063,3.6668,3.6764,3.7284,3.8114,3.7287,3.4977,3.161,3.0293,2.8789,2.7228,0.0,0.0,0.0,0.0,0.0,0.0,0.0,0.0,0.0,0.0,0.0,0.0,0.0,0.0,0.0,0.0,0.0,0.0,0.0,0.0,0.0,0.0,0.0,0.0,0.0,0.0,0.0,0.0,0.0,0.0,0.0,0.0,0.0,0.0,0.0,0.0,0.0,2.4028,2.4371,2.3385,2.4332,2.4684,0.0,0.0,0.0,0.0,0.0,0.0,2.8281,2.9322,3.0552,3.2007,3.3004,3.4,3.5042,3.582,3.6662,3.7638,3.7891,3.8221,3.8595,3.8595,3.8693,3.8868,3.8476,3.7734,3.6526,3.2742,2.9991,2.8092,2.7578,2.7109,2.6644,2.6023,2.5867,2.601,0.0,0.0,0.0,0.0,0.0,0.0,0.0,0.0,0.0,0.0,0.0,2.7896,2.942,3.0102,3.0844,3.188,3.1565,3.0855,2.9784,2.8753,2.7693,2.6555,2.6452,2.6442,2.6504,2.951,3.1656,3.282,3.7707,4.007,4.0098,4.2301,4.3347,4.3354,4.1722,3.9443,3.6606,3.3408,3.1969,3.1584,2.8471,0.0,0.0,0.0,0.0,0.0,0.0,0.0,0.0,0.0,0.0,0.0,0.0,0.0,0.0,0.0,0.0,0.0,0.0,0.0,0.0,0.0,0.0,0.0,0.0,0.0,0.0,0.0,0.0,0.0,0.0,0.0,0.0,0.0,0.0,0.0,0.0,0.0,0.0,2.3906,2.5593,0.0,0.0,0.0,0.0,2.8008,2.89,3.0146,3.1846,3.2359,3.3379,3.5134,3.6387,3.7851,3.9551,4.0001,4.084,4.207,4.1699,4.1738,4.2148,4.2148,4.1953,4.1582,4.1172,4.0253,3.8769,3.5329,3.2851,3.1196,3.0332,2.976,2.9389,2.9353,2.9598,2.9915,0.0,0.0,0.0,0.0,0.0,2.6508,2.6508,2.6508,2.67,2.7236,2.7896,2.8966,3.0643,3.1637,3.2641,3.3724,3.395,3.357,3.2525,3.1727,3.081,2.97,2.8302,2.8192,2.962,3.3254,3.637,3.8881,4.2135,4.4226,4.521,4.6055,4.6261,4.5884,4.4579,4.3062,4.1215,3.7506,3.4707,3.2654,3.1085,2.9152,0.0,0.0,0.0,0.0,0.0,0.0,0.0,0.0,0.0,0.0,0.0,0.0,0.0,0.0,0.0,0.0,0.0,0.0,0.0,0.0,0.0,0.0,0.0,0.0,0.0,0.0,0.0,0.0,0.0,0.0,0.0,0.0,0.0,0.0,0.0,0.0,0.0,2.7552,2.9648,0.0,2.9755,3.0307,3.0859,3.1172,3.2519,3.3961,3.5407,3.668,3.8144,3.9844,4.0644,4.1465,4.2344,4.25,4.2773,4.3222,4.2832,4.2715,4.2832,4.2538,4.2187,4.1797,4.1641,4.0996,3.9942,3.873,3.6719,3.432,3.3437,3.2847,3.2492,3.2492,3.2398,3.2289,0.0,0.0,0.0,2.6508,2.6508,2.6508,2.6508,2.665,2.6968,2.7503,2.869,3.0111,3.1798,3.3316,3.4636,3.5718,3.5819,3.5342,3.4237,3.3129,3.21,3.116,3.0433,3.108,3.3311,3.6996,4.0426,4.3592,4.5788,4.7531,4.8746,4.8746,4.8545,4.8153,4.7079,4.619,4.5286,4.1932,3.8414,3.4929,3.3603,3.1849,2.9801,0.0,0.0,0.0,0.0,0.0,0.0,0.0,0.0,0.0,0.0,0.0,0.0,0.0,0.0,0.0,0.0,0.0,0.0,0.0,0.0,0.0,0.0,0.0,0.0,0.0,0.0,0.0,0.0,0.0,0.0,0.0,0.0,0.0,0.0,0.0,3.0591,3.1064,3.3512,3.4766,3.3821,3.4352,3.488,3.5176,3.6541,3.7928,3.918,4.0488,4.1699,4.2792,4.3281,4.373,4.412,4.4004,4.4082,4.4355,4.3945,4.3652,4.3536,4.3223,4.2675,4.1992,4.1992,4.1523,4.0742,4.0742,3.957,3.7637,3.6465,3.5759,3.5368,3.5231,3.4899,3.4512,0.0,2.572,2.6508,2.6508,2.6508,2.6508,2.6508,2.6968,2.7478,2.8021,2.9594,3.1301,3.3014,3.5187,3.6959,3.8065,3.7135,3.6029,3.4879,3.2692,3.1235,3.0713,3.2807,3.5052,3.7324,4.0641,4.3693,4.6411,4.8611,4.9967,5.0477,5.0477,5.0477,5.0402,4.9355,4.8868,4.8718,4.6517,4.3101,3.8894,3.6019,3.4519,3.3705,0.0,0.0,0.0,0.0,0.0,0.0,0.0,0.0,0.0,0.0,0.0,0.0,0.0,0.0,0.0,0.0,0.0,0.0,0.0,0.0,0.0,0.0,0.0,0.0,0.0,0.0,0.0,0.0,0.0,0.0,0.0,0.0,0.0,2.8431,3.1391,3.3754,3.4254,3.697,3.8319,3.7086,3.8083,3.9159,4.0,4.0859,4.1875,4.3126,4.3574,4.3808,4.3828,4.4258,4.4687,4.5057,4.4687,4.4904,4.5705,4.5254,4.4803,4.4433,4.4414,4.3671,4.2441,4.2421,4.1953,4.1211,4.1211,4.1191,4.1015,3.9315,3.8379,3.7912,3.7519,3.7107,3.6616,2.4808,2.572,2.6508,2.6508,2.6508,2.6508,2.6508,2.6968,2.7478,2.8021,3.0246,3.2706,3.5228,3.7475,3.9559,4.1468,3.9886,3.8303,3.7174,3.4285,3.2727,3.2993,3.5114,3.7902,4.1331,4.4267,4.6913,4.9273,5.072,5.1682,5.2192,5.2192,5.2009,5.1599,5.0912,5.0385,4.9866,4.8476,4.6718,4.4453,4.0099,3.7517,3.5933,0.0,0.0,0.0,0.0,0.0,0.0,0.0,0.0,0.0,0.0,0.0,0.0,0.0,0.0,0.0,0.0,0.0,0.0,0.0,0.0,0.0,0.0,0.0,0.0,0.0,0.0,0.0,0.0,0.0,0.0,0.0,3.0259,3.1782,3.1206,3.4626,3.7693,3.9081,4.1601,4.3085,4.2734,4.3026,4.3339,4.3573,4.4142,4.4748,4.5391,4.5799,4.6191,4.6526,4.6663,4.6601,4.6384,4.6267,4.6189,4.6133,4.5703,4.5451,4.5334,4.4687,4.4023,4.33,4.2675,4.2109,4.1601,4.1328,4.1191,4.1113,4.0293,3.9726,3.9297,3.8848,3.8223,3.7404,2.5093,2.5879,2.6508,2.6508,2.6508,2.6508,2.6508,2.7144,2.7754,2.8063,3.0899,3.371,3.5807,3.8429,4.0651,4.2158,4.0489,3.8668,3.7062,3.4751,3.3983,3.5239,3.8077,4.1117,4.4306,4.7064,4.9348,5.1105,5.2009,5.2711,5.3239,5.3239,5.3188,5.3148,5.2821,5.2344,5.1707,5.0636,4.9665,4.8494,4.4428,4.1656,3.9595,3.6283,3.4787,3.415,3.1739,3.0825,3.0451,2.8449,0.0,0.0,0.0,0.0,0.0,0.0,0.0,0.0,0.0,0.0,0.0,0.0,0.0,0.0,0.0,0.0,0.0,0.0,0.0,0.0,0.0,0.0,0.0,0.0,3.348,3.5781,3.6387,3.8788,4.1133,4.2872,4.4863,4.6094,4.6094,4.6094,4.6094,4.6094,4.6328,4.6604,4.6816,4.7246,4.75,4.76,4.76,4.7483,4.7207,4.6833,4.6618,4.6562,4.6133,4.5861,4.5666,4.4961,4.4316,4.3672,4.2988,4.2363,4.1777,4.1562,4.1348,4.1152,0.0,0.0,0.0,0.0,3.8516,3.7756,2.5485,2.6088,2.6508,2.6508,2.6508,2.6508,2.6508,2.7403,2.8088,2.8088,3.1486,3.4288,3.5294,3.8341,4.0613,4.1327,3.981,3.7902,3.5745,3.4764,3.5328,3.7763,4.1443,4.4532,4.6813,4.9373,5.123,5.2377,5.2787,5.3339,5.3984,5.3858,5.4127,5.4697,5.4622,5.4303,5.3733,5.2729,5.1975,5.1264,4.862,4.6185,4.374,4.0502,3.9149,3.8664,3.6152,3.4298,3.2795,3.1144,0.0,0.0,0.0,0.0,0.0,0.0,0.0,0.0,0.0,0.0,0.0,0.0,0.0,0.0,0.0,0.0,0.0,0.0,0.0,0.0,0.0,0.0,0.0,0.0,3.6816,3.9921,4.248,4.332,4.424,4.5725,4.6995,4.7757,4.7815,4.7776,4.7776,4.7815,4.7776,4.7757,4.7757,4.8086,0.0,0.0,0.0,4.7718,4.7679,4.6894,4.668,4.697,4.6621,4.625,4.59,4.5391,4.4725,4.3965,4.3419,4.2735,4.1992,4.1855,4.1562,4.1152,4.0664,4.0508,4.0352,3.912,3.8398,3.7931,2.5485,2.6088,2.6508,2.6508,2.6508,2.6508,2.6508,2.7403,2.8088,2.8088,3.1486,3.4137,3.4767,3.7462,3.9974,4.1858,3.966,3.7625,3.6306,3.6457,3.8153,4.1719,4.4704,4.7566,5.0284,5.1707,5.2962,5.412,5.3733,5.4293,5.5698,5.483,5.4705,5.5232,5.4798,5.4547,5.4378,5.3683,5.3063,5.246,5.1046,4.8611,4.5522,4.2637,4.1245,4.0617,3.9237,3.8797,3.8548,3.6345,3.5302,3.4525,3.2076,0.0,0.0,0.0,0.0,0.0,0.0,0.0,0.0,0.0,0.0,0.0,0.0,0.0,0.0,0.0,0.0,0.0,0.0,0.0,0.0,3.701,3.9883,4.2558,4.5195,4.6504,4.7207,4.7229,4.8069,4.8773,4.9098,4.8851,4.8773,4.9098,4.8832,4.8659,4.8659,4.8714,4.8737,4.8659,4.8659,4.846,4.8086,4.793,4.7715,4.7461,4.7386,0.0,4.721,4.6406,4.5957,4.5723,4.4238,4.3496,4.3262,4.2226,4.1562,4.1152,4.0664,4.0508,4.0391,3.9434,3.9023,3.8828,2.5929,2.6298,2.6508,2.6508,2.6508,2.6575,2.6868,2.7578,2.8188,2.8455,3.115,3.3269,3.3847,3.5881,3.7638,3.8743,3.7325,3.6483,3.6783,3.8341,4.0989,4.4895,4.7732,5.0117,5.2076,5.3457,5.4436,5.5006,5.4963,5.5523,5.6602,5.6068,5.5942,5.6175,5.5917,5.5491,5.4981,5.468,5.4059,5.3239,5.241,5.0946,4.8912,4.6115,4.4869,4.4403,4.2746,4.2144,4.1811,3.9516,3.8447,3.7646,3.5367,3.3706,3.2263,0.0,0.0,0.0,0.0,0.0,0.0,0.0,0.0,0.0,0.0,0.0,0.0,0.0,0.0,3.0799,3.1942,0.0,3.7374,4.1571,4.4415,4.7193,5.0329,5.1299,5.1191,4.9806,5.0466,5.1034,5.0965,5.1194,5.1234,5.0986,5.0945,5.0844,5.0664,5.1757,5.1326,4.8963,4.9805,4.973,4.8558,4.8128,4.7891,4.7891,4.7698,4.76,4.7581,4.6914,4.6482,4.625,4.5156,4.4316,4.3613,4.2324,4.168,4.1465,4.1016,4.0723,4.045,4.0001,3.9552,3.9101,2.6373,2.6508,2.6508,2.6508,2.6508,2.6675,2.7211,2.7754,2.8288,2.8822,3.0748,3.219,3.2577,3.3961,3.4867,3.4867,3.5143,3.6045,3.7726,4.0524,4.3862,4.7767,5.0393,5.2277,5.3364,5.4813,5.5641,5.5885,5.6219,5.6753,5.7462,5.7261,5.723,5.733,5.7211,5.6627,5.5691,5.5591,5.4963,5.3959,5.3314,5.2787,5.2151,4.9665,4.8494,4.7958,4.5834,4.4529,4.3539,4.1742,4.0638,3.9772,3.8417,3.6998,3.5596,3.4378,3.2228,0.0,0.0,0.0,0.0,0.0,0.0,0.0,0.0,0.0,3.1434,3.1345,3.2979,3.4938,3.6538,3.8851,4.195,4.6438,4.9156,5.1807,5.49,5.5315,5.4776,5.3364,5.35,5.3393,5.2601,5.3533,5.3933,5.3251,5.3013,5.2945,5.308,5.4433,5.3682,5.0348,5.1719,5.1563,4.961,4.8893,4.8486,4.832,4.8011,4.7855,4.7835,4.7285,4.6853,4.6504,4.584,4.4844,4.3613,4.2422,4.1875,4.1758,4.1367,4.0957,4.0625,4.0528,4.0059,3.9394,2.6298,2.6508,2.6508,2.6508,2.6508,2.6675,2.7211,2.7754,2.8288,2.8822,3.0397,3.1336,3.0924,3.1893,3.257,3.257,3.5668,3.8329,4.001,4.3212,4.6768,5.0661,5.2503,5.3959,5.5089,5.5767,5.662,5.7625,5.7154,5.7706,5.9207,5.8252,5.8033,5.8485,5.8027,5.7449,5.6784,5.6301,5.5767,5.5132,5.4034,5.3582,5.3381,5.2126,5.072,4.9188,4.7425,4.5533,4.3765,4.3514,4.2395,4.1088,4.0901,4.0707,3.9829,3.625,0.0,3.4108,3.1432,3.0689,3.089,3.1811,3.2144,3.2513,0.0,0.0,3.4737,3.7017,3.6901,3.8037,4.3459,4.4828,4.658,5.0972,5.3019,5.4473,5.5676,5.5789,5.6416,5.8215,5.6702,5.4829,5.3091,5.4605,5.5754,5.6021,5.3827,5.3346,5.5399,5.3771,5.3482,5.4983,5.5289,5.4346,5.2027,5.1901,5.0841,4.8812,4.8776,4.8757,4.8737,4.7894,4.7503,4.7366,4.5781,4.4549,4.3633,4.2714,4.2109,4.1758,4.1367,4.1172,4.1074,4.0645,4.045,4.0235,2.6348,2.6508,2.6508,2.6508,2.6751,2.7144,2.767,2.8213,2.8756,2.9343,3.003,3.0382,3.0156,3.0532,3.0809,3.0809,3.4037,3.735,4.0312,4.3926,4.7983,5.2503,5.3976,5.5214,5.6301,5.7204,5.7882,5.8378,5.8428,5.8805,5.9483,5.9031,5.878,5.8685,5.8459,5.8033,5.7481,5.6903,5.6351,5.5767,5.468,5.4009,5.3557,5.2151,5.0368,4.8435,4.7114,4.5407,0.0,4.2295,4.1628,4.1188,4.0563,4.0362,3.9919,3.7592,3.5927,0.0,3.2895,0.0,0.0,0.0,3.6269,3.7372,3.8701,4.0102,4.1521,4.289,4.434,4.6105,4.8469,4.9816,5.169,0.0,5.663,5.7947,5.9685,5.9616,5.9018,5.8026,5.8529,5.8338,5.6798,5.8202,5.8907,5.819,5.7623,5.7468,5.7865,5.8247,5.7671,5.5922,5.7154,5.6766,5.4455,5.4433,5.3926,5.2947,5.1597,5.0796,5.0466,4.8743,4.7676,4.7129,4.5642,4.4647,4.4023,4.287,4.2167,4.1758,4.1367,4.1191,4.1172,4.0996,4.0723,4.041,2.6373,2.6508,2.6508,2.6508,2.7069,2.7654,2.8037,2.8555,2.9107,2.9704,2.9814,2.9814,2.9814,2.9814,2.9814,2.9814,3.2656,3.607,3.981,4.384,4.8234,5.3055,5.4762,5.6143,5.7211,5.8334,5.8911,5.8911,5.9307,5.9483,5.9483,5.9483,5.9307,5.8911,5.8911,5.861,5.8077,5.7506,5.6853,5.6118,5.5031,5.4052,5.3055,5.1289,4.9088,4.6863,4.5934,4.4242,4.2183,4.0425,4.0073,4.0273,3.9672,3.9672,3.9672,3.8391,3.6566,3.4993,3.5162,0.0,0.0,3.9339,4.0942,4.24,4.3854,4.5657,4.7344,4.8372,5.021,5.1934,5.3066,5.4237,5.587,5.8514,5.9684,6.0865,6.2552,6.2074,6.0616,5.8133,5.9271,6.005,5.9411,6.077,6.1301,6.0329,6.0483,6.061,6.0523,6.1631,6.1004,5.8138,5.9653,5.9325,5.6854,5.6854,5.653,5.5879,5.4169,5.2845,5.1817,4.9194,4.7558,4.6677,4.5506,4.4822,4.4453,4.3007,4.2226,4.1914,4.1406,4.1191,4.1191,4.1191,4.0976,4.0625,2.6373,2.6508,2.6508,2.6508,2.7361,2.8088,2.8088,2.8555,2.9107,2.9704,2.9814,2.9814,2.9814,2.9814,2.9814,2.9814,3.2315,3.5353,3.8718,4.3076,4.7521,5.1933,5.4737,5.6721,5.7851,5.893,5.9483,5.9483,5.9483,5.9483,5.9483,5.9483,5.9483,5.9483,5.9483,5.9182,5.8635,5.8102,5.7223,5.6118,5.5031,5.3625,5.1925,4.9707,4.7145,4.4629,4.4077,4.1795,3.8944,3.8291,3.809,3.8191,3.8743,3.9635,0.0,3.8492,3.7199,3.6811,0.0,0.0,4.115,4.4449,4.6075,4.7246,4.8588,4.9397,5.0627,5.3317,5.2665,5.3003,5.7624,5.808,5.8521,6.0742,6.1993,6.272,6.2781,6.1396,6.0322,6.0213,5.8892,5.8409,0.0,6.1016,6.2173,6.2675,6.117,6.1208,6.3444,6.1966,6.1777,6.3427,6.3527,6.214,5.9222,5.9201,5.8098,5.5901,5.5813,5.4588,5.2279,4.908,4.7129,4.6269,4.5389,4.4998,4.4842,4.3124,4.2402,4.2304,4.1523,4.1191,4.1191,4.1191,4.1191,4.1054,2.6373,2.6508,2.6508,2.6508,2.7386,2.8088,2.8088,2.89,2.9578,2.9754,2.9814,0.0,0.0,0.0,0.0,0.0,3.1612,3.4048,3.7046,4.1381,4.5678,4.9732,5.2879,5.5239,5.6746,5.7876,5.8604,5.8961,5.9332,5.9483,5.9483,5.9483,5.9483,5.9483,5.9483,5.9207,5.866,5.8127,5.7876,5.7568,5.4278,5.303,5.2653,4.7832,4.4514,4.2155,0.0,3.8492,3.7085,3.612,3.6058,3.6459,3.706,3.7738,3.8115,3.721,3.7713,3.8831,3.9935,0.0,4.5056,4.8018,4.9875,5.1639,5.4322,5.5102,5.5498,5.643,5.5551,5.4919,5.5824,5.6116,5.6859,5.8709,6.0211,6.1547,6.2651,6.1999,6.0744,5.893,5.8535,0.0,0.0,0.0,0.0,6.2225,6.2763,6.3251,6.368,6.314,6.3226,6.4203,6.35,6.2803,6.2227,6.1836,6.1221,6.0448,5.8262,5.5999,5.3667,5.1916,5.0166,4.8464,4.7891,4.6497,4.4512,4.334,4.2519,4.1953,4.1406,4.1191,4.1191,4.1191,4.1191,4.1113,0.0,2.6508,2.6549,2.6742,2.7503,0.0,0.0,0.0,0.0,0.0,0.0,0.0,0.0,0.0,0.0,0.0,0.0,3.2742,3.5326,3.8919,4.2473,4.5974,4.8912,5.1055,5.2352,5.3281,5.411,5.4845,5.539,5.5986,5.6589,5.6972,5.7248,5.7449,5.7851,5.7851,5.7455,5.6721,5.6143,5.5433,5.1774,5.0017,4.9079,4.4367,4.1304,0.0,3.686,3.5678,3.5111,3.4385,3.4603,3.5269,3.5655,3.6306,3.7009,3.7436,3.8856,4.0738,4.2886,4.5723,4.8786,5.1732,5.3439,5.5046,5.7581,5.7857,5.7506,5.7323,5.6075,5.4694,5.36,5.3524,5.421,5.6093,5.7449,5.9131,6.1572,6.0919,5.9765,5.8604,5.8234,5.7757,0.0,0.0,0.0,6.1642,6.327,6.4149,6.3998,6.4354,6.4551,6.4496,6.3776,6.34,6.3375,6.3003,6.2802,6.2761,5.9614,5.7246,5.5578,5.3068,5.1011,4.9322,4.8104,4.6354,4.4316,4.3281,4.2519,4.1973,4.1406,4.1191,4.1191,4.1191,4.1191,4.1133,0.0,0.0,2.6675,0.0,0.0,0.0,0.0,0.0,0.0,0.0,0.0,0.0,0.0,0.0,0.0,0.0,0.0,0.0,3.3596,3.5842,3.8291,4.0938,4.3259,4.4754,4.5361,4.5924,4.6712,4.7782,4.8375,4.9497,5.1063,5.2084,5.2837,5.3381,5.4436,5.4931,5.483,5.3733,5.2084,5.0001,4.7726,4.497,4.1998,3.966,3.7775,3.6192,3.4511,3.3581,3.319,3.314,3.3872,0.0,0.0,0.0,3.6996,3.9208,4.0738,4.2758,4.7647,5.0275,5.2394,5.5591,5.6728,5.7361,5.8459,5.7782,5.6734,5.6075,5.4167,5.226,0.0,0.0,5.0954,5.3206,5.4278,5.6136,5.994,5.8685,5.7907,0.0,0.0,0.0,0.0,0.0,0.0,6.116,6.2767,6.3948,6.445,6.5459,6.5559,6.4551,6.4471,6.3923,6.2852,6.2827,6.2802,6.2731,5.9971,5.8423,5.7857,5.2913,5.0146,4.907,4.6491,4.5016,4.4336,4.2987,4.2421,4.2324,4.1504,4.1191,4.1191,4.1191,4.1191,4.1133,0.0,0.0,0.0,0.0,0.0,0.0,0.0,0.0,0.0,0.0,0.0,0.0,0.0,0.0,0.0,0.0,0.0,0.0,3.1376,3.4251,3.6446,3.7612,4.0979,4.3065,4.3642,4.4554,4.5382,4.61,4.6677,4.7154,4.7581,4.7842,4.8068,4.8193,4.8485,4.841,4.8024,4.7722,4.7506,4.7064,4.4012,4.2772,4.2361,3.8504,3.677,3.6192,3.4511,3.4073,3.4237,0.0,0.0,0.0,0.0,3.7625,3.9283,0.0,0.0,4.7521,5.0469,5.3683,5.6595,5.8252,5.8459,5.8359,5.8635,5.7204,5.5189,5.2997,5.0427,4.7867,0.0,0.0,0.0,5.149,5.5139,0.0,6.2345,6.2345,0.0,6.1416,0.0,5.9363,5.9106,5.9332,0.0,0.0,6.2973,6.3948,6.445,6.4752,6.4978,6.5103,6.3877,6.3324,6.3475,6.3028,6.2601,6.2174,6.1055,6.0222,5.9633,5.7907,5.5234,5.1854,5.0855,4.8296,4.4744,4.3457,4.2715,4.2324,4.1504,4.1191,4.1191,4.1191,4.1191,4.1172,0.0,0.0,0.0,0.0,0.0,0.0,0.0,0.0,0.0,0.0,0.0,0.0,0.0,0.0,0.0,0.0,0.0,0.0,0.0,3.2896,3.4313,3.4935,3.7046,3.8353,3.8642,3.9245,4.0174,4.1507,4.1542,4.2194,4.3413,4.3413,4.3539,4.3776,4.4267,4.4331,4.403,4.3765,4.3438,0.0,0.0,3.9094,3.873,3.6256,3.5301,3.52,3.45,3.4776,0.0,0.0,0.0,3.8065,3.9333,4.089,4.2811,4.5788,0.0,5.1247,5.421,5.6928,5.9106,5.9709,5.9263,5.8384,5.7173,5.5207,5.267,4.943,4.6903,0.0,4.2308,4.3765,4.6376,0.0,0.0,0.0,6.1994,6.2617,6.2642,0.0,6.2195,0.0,6.0995,6.119,6.1718,0.0,6.3324,6.4048,6.4802,6.5078,6.5233,6.5283,6.4153,6.3475,6.3324,6.2978,6.2651,6.2325,6.1818,6.1366,6.1,5.9217,5.6949,5.4288,5.1673,4.8894,4.6015,4.3729,4.2656,4.2324,4.1504,4.1191,4.1191,4.1191,4.1191,4.1191,0.0,0.0,0.0,0.0,0.0,0.0,0.0,0.0,0.0,0.0,2.9814,2.9814,0.0,0.0,0.0,0.0,0.0,0.0,0.0,0.0,3.2365,3.2953,3.3065,3.309,3.309,3.309,3.4056,3.5966,3.5442,3.6434,3.8831,3.8831,3.9069,3.9559,4.0552,4.0992,4.0967,4.0437,3.9421,3.7989,3.6544,3.51,3.3796,0.0,3.3936,3.4098,3.4689,0.0,0.0,0.0,4.0137,4.0626,4.2925,4.4909,4.7094,5.0761,5.2703,5.4468,5.8058,5.9815,6.0593,6.0442,5.9489,5.7832,5.5006,5.2495,4.9656,4.5839,0.0,4.2171,4.0487,4.1781,4.4407,4.8375,0.0,5.5272,6.0858,6.1637,6.224,6.3827,6.3877,6.3626,6.3178,6.355,6.3847,6.3902,6.3902,6.4325,6.5254,6.5735,6.571,6.5128,6.4551,6.3802,6.2827,6.2802,6.2756,6.2701,6.2225,6.1918,6.1682,5.8745,5.7053,5.6104,5.1349,4.8862,4.7923,4.4442,4.294,4.2723,4.168,4.125,4.1191,4.1191,4.1191,4.1191,0.0,0.0,0.0,0.0,0.0,0.0,0.0,0.0,0.0,0.0,2.9814,2.9814,0.0,0.0,0.0,0.0,0.0,0.0,0.0,0.0,0.0,3.234,3.2828,3.309,3.309,3.309,3.3291,3.3668,3.3567,3.3768,3.4246,3.4246,3.4296,3.4396,3.4597,3.4684,3.4673,3.4572,3.436,3.407,3.3793,3.3492,3.3291,3.3721,0.0,0.0,0.0,0.0,0.0,0.0,4.2361,4.3539,4.6225,4.8862,5.1448,5.3934,5.6111,5.8146,6.0205,6.1567,6.2149,6.1266,5.9533,5.7198,5.3941,5.0427,0.0,0.0,4.1795,4.0412,3.873,4.1304,4.507,4.9414,5.3213,5.7575,6.3144,0.0,6.435,0.0,0.0,0.0,0.0,0.0,0.0,0.0,6.5007,6.5082,6.5283,6.5383,6.4982,6.4002,6.3379,6.3003,6.2802,6.2802,6.2576,6.2144,6.2024,6.1517,6.0593,5.9993,5.8442,5.6171,5.4896,5.2982,5.052,4.7476,4.5737,4.4815,4.2565,4.1504,4.1191,4.1191,4.1191,4.1191,0.0,0.0,0.0,0.0,0.0,0.0,2.9814,2.9814,2.9814,2.9814,2.9814,2.9814,2.9814,2.9814,2.9814,0.0,0.0,0.0,0.0,0.0,0.0,3.2641,3.2964,3.309,3.309,3.309,3.3355,3.3922,0.0,3.338,3.3922,3.3355,3.309,3.309,3.309,3.309,3.309,3.309,3.309,3.309,3.309,3.3266,3.3556,0.0,0.0,0.0,0.0,0.0,0.0,0.0,4.2986,4.5683,4.9022,5.1983,5.4662,5.6872,5.8478,5.9885,6.1592,6.24,6.2476,6.109,5.8654,5.5491,5.1256,0.0,0.0,0.0,4.0049,3.9747,3.868,4.1167,0.0,4.7716,5.0795,5.4913,6.1034,0.0,0.0,0.0,0.0,0.0,0.0,0.0,6.5434,6.571,6.571,6.571,6.571,6.571,6.5208,6.4149,6.3847,6.34,6.2827,6.2802,6.2676,6.2425,6.2425,6.1974,6.119,6.0889,5.9885,5.8216,5.6052,5.4351,5.2842,4.955,4.7168,4.5459,4.3993,4.2499,4.1191,4.1191,4.1191,4.1191,0.0,0.0,0.0,0.0,0.0,0.0,2.9789,2.9814,2.9814,2.9814,2.9814,2.9814,2.9814,2.9814,2.9814,0.0,0.0,0.0,0.0,0.0,0.0,0.0,0.0,0.0,0.0,0.0,0.0,0.0,3.3506,0.0,0.0,0.0,0.0,0.0,3.309,3.309,3.309,3.309,3.309,0.0,0.0,3.3531,0.0,0.0,0.0,0.0,0.0,0.0,0.0,0.0,4.2621,4.5859,4.954,5.3289,5.6677,5.8328,5.9608,6.0819,6.2375,6.2802,6.2375,6.0568,5.765,5.3951,4.9038,4.5612,0.0,0.0,3.8906,3.9383,3.8969,0.0,4.3277,0.0,4.7883,5.1548,5.8227,0.0,0.0,0.0,0.0,0.0,0.0,6.6187,0.0,6.6287,6.6187,6.609,6.609,6.5886,6.5358,6.4547,6.4249,6.3701,6.2827,6.2802,6.2802,6.2802,6.2802,6.2526,6.1994,6.1441,6.0864,6.0138,5.7053,5.5602,5.514,5.182,4.9099,4.6959,4.6024,4.4146,4.1989,4.187,4.156,4.1191,0.0,0.0,0.0,0.0,0.0,0.0,2.9704,2.9814,2.9814,2.9814,2.9814,2.9814,2.9814,2.9814,2.9814,0.0,0.0,0.0,0.0,0.0,0.0,0.0,0.0,0.0,0.0,0.0,0.0,0.0,0.0,0.0,0.0,0.0,0.0,0.0,0.0,0.0,3.309,3.309,0.0,0.0,0.0,0.0,0.0,0.0,0.0,0.0,0.0,0.0,0.0,0.0,0.0,4.2281,4.5196,5.1096,5.686,5.6577,0.0,0.0,6.2501,6.2802,6.2275,6.0111,5.7116,5.3491,4.901,0.0,0.0,3.9296,3.8894,3.8944,3.8894,3.9898,0.0,0.0,0.0,5.0393,5.7097,5.9351,0.0,0.0,0.0,0.0,0.0,6.6413,6.6338,6.6887,6.6413,6.609,6.609,6.5179,6.4601,6.4496,6.35,6.2902,6.2802,6.2802,6.2802,6.2802,6.2802,6.2526,6.1994,6.1441,6.0864,6.0267,5.9414,5.8512,5.7436,5.5145,5.3228,5.154,4.9114,4.6694,4.4491,4.4018,4.2732,4.1191,0.0,0.0,0.0,0.0,0.0,0.0,2.9754,2.9814,2.9814,2.9814,2.9814,2.9814,2.9814,2.9814,2.9814,2.9814,2.9814,0.0,0.0,0.0,0.0,0.0,0.0,0.0,0.0,0.0,3.2753,3.309,3.309,0.0,0.0,0.0,0.0,0.0,0.0,0.0,0.0,0.0,0.0,0.0,0.0,0.0,0.0,0.0,0.0,0.0,0.0,0.0,0.0,0.0,0.0,0.0,4.0463,4.4669,0.0,0.0,5.6369,5.8805,6.1572,6.2551,6.2275,6.006,5.6269,5.2118,4.8309,0.0,4.074,3.922,3.917,3.9383,3.9383,3.9722,4.0576,4.2219,4.276,0.0,5.0603,5.257,5.5609,6.1592,6.3354,0.0,0.0,0.0,6.6589,6.6463,6.6237,6.5961,6.5634,6.5229,6.4827,6.4521,6.3751,6.3153,6.2802,6.2802,6.2802,6.2802,6.2802,6.235,6.1492,6.1311,6.0688,5.9784,5.9257,5.8604,5.7819,5.6586,5.4632,5.2244,5.0908,4.8119,4.4972,4.5617,4.4623,4.3113,0.0,0.0,0.0,0.0,0.0,2.9603,2.9754,2.9814,2.9814,2.9814,2.9814,2.9814,2.9814,2.9814,2.9814,2.9814,2.9814,0.0,0.0,0.0,0.0,0.0,0.0,0.0,0.0,0.0,3.2351,3.309,3.2903,3.2939,0.0,0.0,0.0,0.0,0.0,0.0,0.0,0.0,0.0,0.0,0.0,0.0,0.0,0.0,0.0,0.0,0.0,0.0,0.0,0.0,0.0,0.0,0.0,0.0,0.0,0.0,5.3381,5.647,5.9859,6.1773,6.2275,6.006,5.5767,5.1256,0.0,4.3801,4.0236,3.9346,3.9434,3.9697,3.9697,3.9697,3.9823,4.0186,4.0211,4.1856,4.6687,4.8325,5.154,0.0,0.0,6.2476,0.0,6.6865,6.699,6.6413,6.6212,6.5936,6.5559,6.5254,6.4827,6.4274,6.3898,6.3425,6.2827,6.2802,6.2802,6.2802,6.2802,6.2325,6.1416,6.1285,6.0663,5.9709,5.9162,5.8554,5.7876,5.743,5.5776,5.3452,5.2774,5.0187,4.6965,4.7643,4.6643,4.5164,0.0,0.0,0.0,0.0,0.0,2.9107,2.9704,2.9814,2.9814,2.9814,2.9814,2.9814,2.9814,2.9814,2.9814,2.9814,2.9814,0.0,0.0,0.0,0.0,0.0,0.0,0.0,3.2204,3.1687,3.1949,3.309,3.2516,3.2516,3.309,3.309,3.309,3.309,0.0,0.0,0.0,0.0,0.0,0.0,0.0,0.0,0.0,0.0,0.0,0.0,0.0,0.0,0.0,0.0,0.0,0.0,0.0,3.6808,3.8379,4.3955,4.9857,5.5099,5.7323,6.0317,6.2275,6.006,5.5767,5.1373,0.0,4.4052,4.0337,3.9798,3.9697,3.9697,3.9697,3.9697,3.9697,3.971,4.0575,4.2833,4.7351,4.8919,5.1247,0.0,0.0,5.8591,6.2476,6.5839,6.7568,6.7037,6.6438,6.609,6.609,6.5103,6.4249,6.3726,6.3701,6.3425,6.2827,6.2802,6.2802,6.2802,6.2802,6.2526,6.1969,6.1461,6.0864,6.0267,5.9734,5.888,5.7901,5.7901,5.7204,5.6057,5.4988,5.3327,5.1388,5.0342,4.8704,4.6955,0.0,0.0,0.0,0.0,0.0,0.0,2.9754,2.9814,2.9814,2.9814,2.9814,2.9814,2.9814,2.9814,2.9814,2.9814,2.9814,0.0,0.0,0.0,0.0,0.0,0.0,0.0,3.1637,3.1497,3.1748,3.248,3.2702,3.2903,3.309,3.309,3.309,3.309,3.309,3.309,0.0,3.309,0.0,0.0,0.0,0.0,0.0,0.0,0.0,0.0,0.0,0.0,0.0,0.0,0.0,0.0,0.0,0.0,0.0,4.015,4.4206,4.851,5.1858,5.3816,5.4587,5.3105,5.0142,4.7154,4.5472,4.2434,3.9898,3.9735,3.9697,3.9697,3.9697,3.9697,3.9948,4.0675,4.143,4.2537,0.0,0.0,0.0,5.5717,6.1697,6.5667,0.0,6.7191,6.7417,6.6463,6.586,6.5559,6.5559,6.5229,6.4802,6.4249,6.35,6.2978,6.2802,6.2802,6.2802,6.2802,6.2425,6.1969,6.1416,6.0839,6.0286,5.9734,5.9558,5.888,5.7901,5.7901,5.7223,5.6075,5.5006,5.3363,5.1631,5.1894,5.0734,4.9224,0.0,0.0,0.0,0.0,0.0,0.0,2.9814,2.9814,2.9814,2.9814,2.9814,2.9814,2.9814,2.9814,2.9814,2.9814,2.9814,0.0,0.0,0.0,0.0,0.0,0.0,0.0,3.1085,3.111,3.1461,3.2204,3.2566,3.2889,3.309,3.309,3.309,3.309,3.309,3.309,0.0,3.309,0.0,0.0,0.0,0.0,3.3986,0.0,0.0,0.0,0.0,0.0,0.0,0.0,0.0,0.0,0.0,0.0,0.0,0.0,4.0087,4.3098,4.7616,5.0042,5.1038,4.9866,4.7531,4.5211,4.4066,4.1681,3.9697,3.9697,3.9697,3.9697,3.9697,3.9697,3.9923,4.0588,4.1016,0.0,0.0,0.0,0.0,5.5924,0.0,0.0,0.0,6.699,6.7191,6.6488,6.5735,6.5283,6.5283,6.4927,6.4551,6.4199,6.3701,6.3229,6.2802,6.2802,6.2802,6.2802,6.225,6.1718,6.1185,6.0588,6.001,5.9483,5.9483,5.888,0.0,5.7901,5.7223,5.6075,5.5006,5.3817,5.2748,5.2872,5.2137,5.1268,0.0,0.0,0.0,0.0,0.0,0.0,0.0,2.9814,2.9814,2.9814,2.9814,2.9814,2.9814,2.9814,2.9814,2.9814,2.9814,0.0,0.0,0.0,0.0,0.0,0.0,3.003,3.0538,3.0588,3.11,3.2154,3.2179,3.2516,3.309,3.309,3.309,3.309,3.309,3.309,3.309,3.309,0.0,0.0,3.3646,3.3847,0.0,0.0,0.0,0.0,0.0,0.0,0.0,0.0,0.0,0.0,0.0,0.0,0.0,0.0,0.0,0.0,0.0,4.8058,5.0234,4.9179,4.6994,4.4809,4.374,4.153,0.0,3.9697,3.9697,3.9697,3.9697,3.9697,3.9722,3.9798,3.9873,0.0,0.0,4.6496,0.0,0.0,6.0392,0.0,6.3676,6.5731,6.6987,6.6937,6.5882,6.5279,6.5283,6.4279,6.3701,6.3701,6.4174,6.3923,6.2827,6.2802,6.2802,6.2802,6.222,6.1667,6.1185,6.0537,5.9966,5.9483,5.9458,5.8855,5.7901,5.7851,5.7173,5.6043,5.5006,5.4572,5.4403,5.3289,5.2895,5.2895,0.0,0.0,0.0,0.0,0.0,0.0,0.0,0.0,0.0,0.0,2.9814,2.9814,2.9814,2.9814,2.9814,0.0,0.0,0.0,0.0,0.0,0.0,0.0,2.9814,2.9864,2.999,3.0397,3.0924,3.1587,3.2003,3.2516,3.309,3.309,3.309,3.309,3.309,3.309,3.309,3.309,0.0,0.0,3.3241,3.3291,0.0,0.0,0.0,0.0,3.5357,3.5894,0.0,0.0,0.0,0.0,0.0,0.0,0.0,0.0,3.7575,3.8391,4.0162,0.0,4.2359,4.2082,4.1544,4.0978,0.0,4.0149,3.9697,3.9697,0.0,3.9697,3.9697,3.9697,3.9973,4.0775,0.0,0.0,4.4378,0.0,0.0,6.095,6.476,6.6338,6.45,6.5932,6.6811,6.6338,6.5304,6.4877,6.5279,6.4279,6.3701,6.3701,6.3802,6.3525,6.2827,6.2802,6.2802,6.2802,6.1843,6.1336,6.116,6.0136,5.9608,5.9483,5.9081,5.851,5.7851,5.7405,5.6552,5.5516,5.4873,5.4303,5.3833,5.3163,5.2895,5.2895,0.0,0.0,0.0,0.0,0.0,0.0,0.0,0.0,0.0,0.0,2.9814,2.9814,2.9814,2.9814,2.9814,0.0,0.0,0.0,0.0,0.0,0.0,2.9814,2.9814,2.9814,2.9814,3.0322,3.0849,3.1396,3.1938,3.2516,3.309,3.309,3.309,3.309,3.309,3.309,3.309,3.309,0.0,0.0,3.309,0.0,0.0,0.0,0.0,0.0,3.5018,3.568,0.0,3.6393,3.6393,3.6393,0.0,0.0,0.0,0.0,3.7575,3.814,3.8743,3.9283,3.9697,3.9697,3.9697,3.9697,3.9697,0.0,0.0,0.0,0.0,3.9697,3.9697,3.9697,0.0,0.0,4.1667,0.0,0.0,0.0,5.7976,6.23,6.4659,6.586,6.5656,6.6234,6.6338,6.5785,6.4978,6.4526,6.4555,6.3751,6.3299,6.3299,6.3299,6.3128,6.2802,6.2802,6.2676,6.2425,6.1612,6.104,6.0763,5.9885,5.9483,5.9458,5.8936,5.8384,5.7851,5.7255,5.6376,5.5358,5.4823,5.4228,5.3632,5.3113,5.2895,5.2895,0.0,0.0,0.0,0.0,0.0,0.0,0.0,0.0,0.0,0.0,0.0,0.0,0.0,0.0,0.0,0.0,0.0,0.0,0.0,0.0,2.9814,2.9814,2.9814,2.9839,2.9905,3.0372,3.0899,3.1522,3.2064,3.2641,3.3215,3.3215,3.319,3.309,3.309,3.309,3.309,3.309,3.309,3.3115,3.319,0.0,0.0,0.0,0.0,0.0,0.0,0.0,0.0,3.6393,3.6393,3.6393,3.6393,0.0,0.0,0.0,0.0,0.0,3.8743,3.9409,3.9898,3.9747,3.9697,3.9697,3.9697,0.0,0.0,0.0,0.0,0.0,0.0,3.9911,0.0,0.0,0.0,0.0,5.0452,5.3683,5.7292,6.2225,6.3178,6.4254,6.6309,6.6187,6.5785,6.5333,6.4726,6.4174,6.3726,6.3128,6.2802,6.2802,6.2802,6.2802,6.2802,6.2727,6.245,6.1994,6.1366,6.0788,6.0292,5.9759,5.9483,5.9458,5.8855,5.8328,5.7851,5.7154,5.6251,5.5232,5.4773,5.4177,5.3532,5.3063,5.2895,5.2895,0.0,0.0,0.0,0.0,0.0,0.0,0.0,0.0,0.0,0.0,0.0,0.0,0.0,0.0,0.0,0.0,0.0,0.0,0.0,2.9814,2.9814,2.9814,2.9814,3.0005,3.0472,3.0573,3.11,3.2079,3.2677,3.323,3.3771,3.3771,3.3531,3.309,3.309,3.309,3.309,3.309,3.309,3.314,3.3596,0.0,0.0,0.0,0.0,0.0,0.0,0.0,0.0,3.6393,3.6393,3.6393,3.6393,0.0,0.0,0.0,0.0,0.0,3.8743,3.9948,4.0826,3.9923,3.9697,3.9697,3.9697,0.0,0.0,0.0,0.0,0.0,0.0,4.0853,4.1847,0.0,0.0,4.9455,0.0,0.0,6.0267,6.2551,6.4906,6.5807,6.435,6.4931,6.5383,6.5329,6.4379,6.3797,6.3701,6.3128,6.2802,6.2802,6.2802,6.2802,6.2802,6.235,6.2094,6.1994,6.0944,6.0392,6.0292,5.9759,5.9483,5.9433,5.8453,5.7976,5.7826,5.6771,5.5691,5.4723,5.4622,5.3934,5.2995,5.2937,5.2895,5.2895,0.0,0.0,0.0,0.0,0.0,0.0,0.0,0.0,0.0,0.0,0.0,0.0,0.0,0.0,0.0,0.0,0.0,0.0,0.0,2.9814,2.993,3.0231,3.0221,3.0347,3.0588,3.0588,3.1286,3.2702,3.2953,3.3531,3.4338,3.4048,3.3771,3.3506,3.3241,3.309,3.3115,3.3406,3.3531,3.3556,0.0,0.0,0.0,0.0,0.0,0.0,0.0,0.0,0.0,0.0,3.6393,3.6393,3.6393,0.0,0.0,0.0,0.0,0.0,3.8743,3.9647,4.0462,4.0538,4.0549,4.0412,3.9823,0.0,0.0,0.0,0.0,0.0,0.0,0.0,4.3955,4.6683,0.0,5.3022,5.62,5.7983,5.994,6.2501,6.3931,6.468,6.4601,6.5007,6.5078,6.4479,6.3977,6.355,6.3229,6.2952,6.2676,6.2375,6.2375,6.2225,6.1943,6.1366,6.124,6.1542,6.0713,6.0141,5.9859,5.9307,5.9081,5.9006,5.7882,5.7405,5.733,5.6219,5.5308,5.4572,5.4228,5.3607,5.2895,5.2895,5.2895,5.2895,0.0,0.0,0.0,0.0,0.0,0.0,0.0,0.0,0.0,0.0,0.0,0.0,0.0,0.0,0.0,0.0,0.0,0.0,0.0,2.9814,2.998,3.0397,3.0538,3.0723,3.0964,3.11,3.1888,3.3291,3.3531,3.4022,3.4703,3.4288,3.3947,3.3696,3.328,3.309,3.3115,3.3531,3.3796,3.3897,0.0,0.0,0.0,0.0,0.0,0.0,0.0,0.0,0.0,0.0,0.0,0.0,0.0,0.0,0.0,3.6934,3.7575,3.8316,3.8768,3.9484,4.0236,4.0951,4.1026,4.0901,4.0852,0.0,0.0,0.0,0.0,0.0,0.0,4.3776,0.0,5.0946,5.3876,5.6136,5.7757,5.871,6.0236,6.2877,6.3304,6.3852,6.5003,6.5003,6.458,6.3751,6.3576,6.3299,6.2807,6.2802,6.2551,6.2019,6.1994,6.1743,6.121,6.0613,6.0518,6.0964,6.0392,5.9834,5.9307,5.8886,5.8635,5.8434,5.7305,5.6809,5.6728,5.5641,5.4881,5.4328,5.3884,5.3364,5.2895,5.2895,5.2895,5.2895,0.0,0.0,0.0,0.0,0.0,0.0,0.0,0.0,0.0,0.0,0.0,0.0,0.0,0.0,0.0,0.0,0.0,0.0,2.9814,2.9814,2.9814,2.9864,3.0322,3.1075,3.2043,3.2627,3.3205,3.3847,3.4853,3.5118,3.4703,3.4653,3.4123,3.3165,3.3115,3.309,3.309,3.314,3.3431,3.3947,3.4427,0.0,0.0,0.0,0.0,0.0,0.0,0.0,0.0,0.0,0.0,0.0,0.0,0.0,3.7048,3.6594,3.7599,3.8843,3.8894,4.0023,4.1088,4.065,4.0186,0.0,4.3575,4.3489,0.0,4.5397,0.0,0.0,0.0,4.6988,4.9967,5.2385,5.5949,5.9006,6.0658,6.227,6.3571,6.4274,6.4827,6.4978,6.4576,6.4124,6.3776,6.3701,6.3178,6.2852,6.2802,6.2802,6.2551,6.2019,6.1994,6.1743,6.121,6.0613,6.0317,6.0342,5.9809,5.9282,5.8761,5.871,5.8434,5.7901,5.6771,5.6251,5.6175,5.5107,5.4303,5.3758,5.3708,5.3364,5.2895,5.2895,5.2895,5.2895,0.0,0.0,0.0,0.0,0.0,0.0,0.0,0.0,0.0,0.0,0.0,0.0,0.0,0.0,0.0,0.0,0.0,0.0,2.9814,2.9814,2.9955,3.0271,3.0809,3.1426,3.2179,3.2803,3.3696,3.4904,3.568,3.5768,3.5193,3.4853,3.4313,3.3607,3.3607,3.3607,3.3646,3.4313,3.4703,3.4917,3.5118,3.5406,0.0,0.0,0.0,0.0,0.0,0.0,0.0,0.0,3.6393,3.6393,3.6393,3.677,3.7148,3.6959,3.7575,3.8429,3.8793,3.9584,4.0412,4.0876,4.0851,0.0,0.0,0.0,0.0,0.0,0.0,0.0,0.0,0.0,5.3323,5.5153,5.8434,6.1215,6.2566,6.3299,6.3898,6.4446,6.4676,6.4601,6.4048,6.3822,6.355,6.3153,6.2927,6.2651,6.2325,6.23,6.1873,6.097,6.0944,6.0688,6.0155,5.9608,5.9313,5.9313,5.9087,5.871,5.8177,5.7455,5.7029,5.6796,5.5666,5.5207,5.5132,5.4378,5.3909,5.3658,5.3339,5.3088,5.2895,5.2895,5.2895,5.2895,0.0,0.0,0.0,0.0,0.0,0.0,0.0,0.0,0.0,0.0,0.0,0.0,0.0,0.0,0.0,0.0,0.0,0.0,2.9814,2.9814,2.9955,3.0322,3.0859,3.1486,3.2179,3.2803,3.3807,3.5244,3.583,3.573,3.4993,3.4792,3.4413,3.3897,3.4073,3.4137,3.4187,3.4954,3.5344,3.5508,3.5508,3.5869,0.0,0.0,0.0,0.0,0.0,0.0,0.0,0.0,3.6393,3.6393,3.6393,3.677,3.7198,3.7198,3.7701,3.8366,3.8793,3.9283,3.9923,0.0,0.0,0.0,4.4794,4.5989,4.7145,4.9273,4.9791,0.0,0.0,0.0,0.0,0.0,5.984,6.2526,6.3324,6.3576,6.3772,6.3927,6.4124,6.4023,6.3475,6.3425,6.3153,6.2576,6.2551,6.23,6.1768,6.1743,6.1316,6.0342,6.0161,5.9809,5.9257,5.871,5.8359,5.8158,5.8158,5.7983,5.7581,5.6627,5.6118,5.5892,5.4805,5.4321,5.4253,5.3683,5.3439,5.3389,5.3038,5.2895,5.2895,5.2895,5.2895,5.2895,0.0,0.0,0.0,0.0,0.0,0.0,0.0,0.0,2.9814,2.9814,2.9814,0.0,0.0,0.0,0.0,0.0,0.0,0.0,2.9814,2.9814,2.9814,2.9814,3.0322,3.109,3.2179,3.2803,3.3632,3.4703,3.5244,3.4942,3.3897,3.4463,3.4413,3.3922,3.4463,3.4703,3.4703,3.4703,3.5018,3.5508,3.5508,3.5869,3.6393,0.0,0.0,0.0,0.0,0.0,0.0,0.0,3.6393,3.6393,3.6393,3.677,3.7198,3.7198,3.8014,3.8894,3.8894,3.9296,3.9823,0.0,0.0,0.0,4.7813,4.8818,5.0074,5.4529,0.0,5.2151,5.2126,0.0,0.0,5.6043,5.9915,6.2802,6.2802,6.3324,6.3475,6.2877,6.335,6.345,6.2852,6.2802,6.2576,6.2044,6.1994,6.1743,6.1235,6.1185,6.0889,6.0292,5.9784,5.9232,5.871,5.8133,5.7581,5.6985,5.6985,5.6985,5.696,5.6426,5.5892,5.5315,5.4185,5.3683,5.3658,5.3113,5.2895,5.2895,5.2895,5.2895,5.2895,5.2895,5.2895,5.2895,0.0,0.0,0.0,0.0,0.0,0.0,0.0,0.0,2.9814,2.9814,2.9814,0.0,0.0,0.0,0.0,0.0,0.0,0.0,2.9814,2.9814,2.9814,2.9814,3.0693,3.1311,3.1637,3.2979,3.3997,3.4703,3.5244,3.4942,3.3897,3.4463,3.4413,3.3947,3.4853,3.5269,3.5294,3.5705,3.6004,3.6118,3.6118,3.623,3.6393,0.0,0.0,0.0,0.0,0.0,0.0,0.0,0.0,0.0,3.6393,3.7034,3.7764,3.7764,3.8303,3.8969,3.9358,3.9584,0.0,4.1845,0.0,0.0,0.0,5.0561,0.0,0.0,5.6301,5.5322,5.4561,5.6093,0.0,5.7399,6.0136,6.2375,6.2752,6.2952,6.3003,6.2827,6.2952,6.3003,6.2827,6.245,6.2169,6.2019,6.1246,6.0719,6.0588,6.0211,5.9759,5.9187,5.9012,5.8679,5.8152,5.7198,5.6602,5.6426,5.5666,5.5491,5.5867,5.5333,5.4755,5.416,5.3439,5.3138,5.3113,5.2962,5.2895,5.2895,5.2895,5.2895,5.2895,5.2895,5.2895,5.2895,0.0,0.0,0.0,0.0,0.0,0.0,0.0,0.0,2.9814,2.9814,2.9814,2.9814,0.0,0.0,0.0,0.0,0.0,0.0,2.9814,2.9814,2.9814,2.9814,3.0608,3.1286,3.1712,3.3144,3.3947,3.4062,3.4603,3.4427,3.3607,3.4338,3.4653,3.4577,3.5682,3.6195,3.6183,3.6545,3.672,3.672,3.672,3.6859,3.7009,0.0,0.0,0.0,0.0,0.0,0.0,0.0,0.0,0.0,3.672,3.7299,3.804,3.8291,3.8617,3.9019,3.9559,4.0023,0.0,4.2824,4.4909,4.7581,5.1942,0.0,0.0,0.0,0.0,5.7556,5.7097,5.7932,0.0,5.8855,6.0794,6.2425,6.2752,6.2802,6.2802,6.2802,6.2601,6.2476,6.2476,6.1994,6.1492,6.104,6.0387,5.9809,5.9382,5.9031,5.8604,5.8039,5.7832,5.7455,5.6897,5.5993,5.5566,5.5541,5.4906,5.4629,5.4712,5.4403,5.4052,5.3683,5.3138,5.2895,5.2895,5.2895,5.2895,5.2895,5.2895,5.2895,5.2895,5.2895,5.2895,5.2895,0.0,0.0,2.9814,2.9814,0.0,0.0,0.0,0.0,2.9814,2.9814,2.9814,2.9814,0.0,0.0,0.0,0.0,0.0,0.0,0.0,2.9814,2.9804,2.9854,3.0422,3.1225,3.2254,3.3294,3.3581,3.309,3.3632,3.3657,3.319,3.4212,3.5029,3.562,3.6659,3.7148,3.7198,3.7198,3.7198,3.7198,3.7248,3.7563,3.7927,3.7387,0.0,0.0,0.0,0.0,0.0,0.0,0.0,0.0,3.7274,3.765,3.8191,3.8743,3.8919,3.9095,3.9685,4.0638,0.0,4.379,4.6527,0.0,5.4705,5.7794,5.9935,6.0934,0.0,5.9212,5.9633,5.9382,5.9388,6.0292,6.1748,6.2752,6.2802,6.2777,6.2752,6.2802,6.2325,6.1994,6.1994,6.1466,6.0683,5.9583,5.9357,5.888,5.7951,5.775,5.743,5.6935,5.6401,5.5867,5.5333,5.4798,5.4522,5.4522,5.4471,5.4152,5.3632,5.3683,5.3683,5.3607,5.3113,5.2895,5.2895,5.2895,5.2895,5.2895,5.2895,5.2895,5.2895,5.2895,5.2895,5.2895,0.0,0.0,2.9814,2.9814,0.0,0.0,0.0,0.0,0.0,2.9814,0.0,0.0,0.0,0.0,0.0,0.0,0.0,0.0,0.0,2.9814,2.999,3.0397,3.1351,3.219,3.2878,3.3165,3.3215,3.309,3.3632,3.3847,3.3746,3.4377,3.5241,3.623,3.6468,3.6808,3.7198,3.7198,3.7198,3.7248,3.7663,3.7889,3.7927,3.7387,3.7475,0.0,0.0,0.0,0.0,0.0,0.0,0.0,3.7839,3.8216,3.8743,3.8869,3.9195,3.9747,4.0713,4.1768,0.0,0.0,5.1423,5.5673,5.8077,5.9778,6.0783,6.0537,6.1246,6.1823,6.1517,6.1697,6.1848,6.1667,6.1943,6.2325,6.2752,6.2425,6.2325,6.2752,6.2325,6.1994,6.1994,6.109,6.0236,5.9533,5.8284,5.7631,5.7901,5.6646,5.6068,5.6351,5.5842,5.5308,5.4773,5.4202,5.3884,5.3884,5.3482,5.3188,5.3088,5.3507,5.3482,5.3063,5.2945,5.2895,5.2895,5.2895,5.2895,5.2895,5.2895,5.2895,5.2895,5.2895,5.2895,5.2895,0.0,0.0,0.0,0.0,0.0,0.0,0.0,0.0,0.0,0.0,0.0,0.0,0.0,0.0,0.0,0.0,0.0,0.0,0.0,2.9814,3.0156,3.0959,3.1752,3.2491,3.309,3.309,3.309,3.309,3.3632,3.3897,3.3897,3.4463,3.5303,3.6393,3.6669,3.6934,3.7198,3.7198,3.7198,3.7223,3.7487,3.7939,3.8379,3.7801,3.7952,3.8404,3.8115,0.0,0.0,0.0,0.0,0.0,0.0,0.0,3.9283,3.9283,3.9484,3.9873,4.0713,0.0,0.0,4.959,0.0,5.7361,5.8786,5.9985,6.0763,6.0738,6.1823,6.2727,6.2425,6.2601,6.2626,6.2094,6.222,6.23,6.2069,6.2019,6.2019,6.2044,6.1522,6.119,6.119,6.0191,5.9187,5.8359,5.7255,5.6527,5.6337,5.5483,5.5006,5.5013,5.4737,5.4336,5.3783,5.3482,5.3314,5.3314,5.3038,5.2895,5.2895,5.3188,5.3163,5.2895,5.2895,5.2895,5.2895,5.2895,5.2895,5.2895,5.2895,5.2895,5.2895,5.2895,5.2895,5.2895,0.0,0.0,0.0,0.0,0.0,0.0,0.0,0.0,0.0,0.0,0.0,0.0,0.0,0.0,0.0,0.0,0.0,0.0,0.0,0.0,0.0,3.1497,3.2064,3.2591,3.309,3.309,3.314,3.3241,3.3671,3.4048,3.4335,3.4689,3.5454,3.6569,3.7009,3.7198,3.7198,3.7299,3.7274,3.7198,3.7299,3.7964,3.8818,3.8115,3.8291,3.8906,3.8793,3.8504,3.8241,3.8831,0.0,0.0,0.0,0.0,3.9697,3.9697,3.9697,3.9848,4.0462,4.2922,4.6562,5.1758,5.5028,0.0,5.8434,5.9539,6.0442,6.0939,6.1843,6.2551,6.2651,6.2576,6.24,6.2069,6.2199,6.2099,6.1311,6.1492,6.1592,6.1235,6.0588,6.0166,6.0166,5.9087,5.7983,5.6935,5.6276,5.5559,5.4647,5.4403,5.4127,5.3708,5.3607,5.3339,5.2895,5.2895,5.2895,5.2895,5.2895,5.2895,5.2895,5.2895,5.2895,5.2895,5.2895,5.2895,5.2895,5.2895,5.2895,5.2895,5.2895,5.2895,5.2895,5.2895,5.2895,5.2895,0.0,0.0,0.0,0.0,0.0,0.0,0.0,0.0,0.0,0.0,2.9814,2.9814,0.0,2.9814,2.9814,2.9814,2.9814,2.9814,2.9814,0.0,0.0,3.2064,3.2652,3.3014,3.309,3.309,3.3341,3.3796,3.3872,3.4636,3.6066,3.5606,3.6008,3.711,3.7185,3.7198,3.7223,3.7688,3.7613,3.7248,3.7713,3.8303,3.8768,3.7701,3.7964,3.8818,3.8303,3.8404,3.8869,3.9409,3.9597,0.0,0.0,0.0,3.9697,3.9697,3.9697,3.9923,4.0926,0.0,4.9104,0.0,5.5322,5.7286,0.0,0.0,6.0317,6.0392,6.0939,6.1562,6.2019,6.1718,6.1542,6.1943,6.1221,6.0788,6.116,6.0814,6.0693,6.116,6.0261,5.9608,5.9608,5.8158,5.6979,5.6351,5.5383,5.4748,5.4622,5.3658,5.3289,5.3683,5.3239,5.297,5.2895,5.2895,5.2895,5.2895,5.2895,5.2895,5.2895,5.2895,5.2895,5.2895,5.2895,5.2895,5.2895,5.2895,5.2895,5.2895,5.2895,5.2895,5.2895,5.2895,5.2895,5.2895,0.0,0.0,0.0,0.0,0.0,0.0,0.0,0.0,0.0,0.0,0.0,2.9814,2.9814,2.9814,2.9814,2.9814,2.9814,2.993,3.0221,3.126,3.1953,3.2204,3.2778,3.309,3.309,3.309,3.3355,3.3897,3.4187,3.5203,3.6859,3.6873,3.7174,3.7638,3.7638,3.7638,3.7663,3.7889,3.7688,3.7248,3.7789,3.8165,3.8379,3.8203,3.8467,3.8894,3.8956,3.8931,3.8969,3.9509,3.9697,3.9697,3.9697,0.0,0.0,0.0,3.9697,4.0288,4.2922,4.5723,4.872,0.0,5.4694,5.6301,5.7104,5.8384,5.9313,5.9031,5.9633,6.0512,6.1391,6.1361,6.1185,6.1045,6.0914,6.0663,6.0306,6.0286,6.0166,5.9834,5.9357,5.8911,5.8629,5.7355,5.6326,5.5792,5.4712,5.3959,5.3658,5.3163,5.3013,5.3239,5.302,5.2895,5.2895,5.2895,5.2895,5.2895,5.2895,5.2895,5.2895,5.2895,5.2895,5.2895,5.2895,5.2895,5.2895,5.2895,5.2895,5.2895,5.2895,5.2895,5.2895,5.2895,5.2895,5.2895,0.0,0.0,0.0,0.0,0.0,0.0,0.0,0.0,0.0,0.0,0.0,2.9814,2.9814,0.0,0.0,0.0,2.993,3.0281,3.0964,3.1752,3.2279,3.2405,3.2853,3.309,3.309,3.309,3.3431,3.4098,3.4502,3.5693,3.7637,3.8052,3.8442,3.8831,3.8555,3.8442,3.8404,3.8291,3.8077,3.7851,3.7965,3.809,3.8266,3.8555,3.8768,3.8944,3.9358,3.9245,3.8969,3.9509,3.9697,3.9697,3.9697,3.9697,0.0,0.0,0.0,4.0375,4.3564,4.5332,4.7139,5.0728,5.313,5.4813,5.5792,5.7179,5.8208,5.7951,5.8529,5.9332,6.0205,6.0582,6.0613,6.0166,6.0462,6.0381,5.9232,5.9458,5.9338,5.8384,5.8033,5.7681,5.7298,5.6244,5.5415,5.4988,5.4059,5.3314,5.2937,5.2895,5.2895,5.2895,5.2895,5.282,5.2711,5.2561,5.2485,5.2485,5.2636,5.2711,5.2711,5.2837,5.2895,5.2895,5.2895,5.2895,5.2895,5.2895,5.2895,5.2895,5.2895,5.2895,5.2895,5.2895,5.2895,5.2895,0.0,0.0,0.0,0.0,0.0,0.0,0.0,0.0,0.0,0.0,0.0,2.9814,2.9814,2.9814,2.9814,2.9814,3.0246,3.0989,3.2054,3.2179,3.2466,3.304,3.309,0.0,3.309,3.309,3.3607,3.4653,3.4678,3.6095,3.8818,3.8843,3.9672,4.1088,4.0074,3.9597,3.9584,3.907,3.9145,3.9471,3.8404,3.8341,3.8793,3.8241,3.8404,3.8894,3.8919,3.8919,3.8969,3.9509,3.9697,3.9697,3.9697,3.9697,3.9697,0.0,0.0,0.0,4.1177,4.2721,4.4644,4.7456,5.0226,5.2829,5.4956,5.6301,5.7255,5.7801,5.7951,5.8001,5.8052,5.8905,5.9583,5.9533,5.9558,5.9207,5.8127,5.8001,5.7801,5.7161,5.6194,5.5559,5.5516,5.4486,5.3808,5.3783,5.3264,5.2937,5.2895,5.2895,5.2895,5.2895,5.2895,5.2661,5.2151,5.1641,5.1389,5.1389,5.19,5.2151,5.2176,5.2661,5.2895,5.2895,5.2895,5.2895,5.2895,5.2895,5.2895,5.2895,5.2895,5.2895,5.2895,5.2895,5.2895,5.2895,0.0,0.0,0.0,0.0,0.0,0.0,0.0,0.0,0.0,0.0,0.0,0.0,0.0,2.9814,2.9939,3.0271,3.1125,3.1803,3.2179,3.2882,3.3395,3.3607,3.3947,3.4123,3.4123,3.4123,3.4477,3.5218,3.5218,3.6284,3.8316,3.8718,3.9383,4.0261,4.0236,4.0211,4.0186,3.9647,3.9346,3.9195,3.9132,3.9007,3.8919,3.9057,3.9007,0.0,0.0,0.0,0.0,3.9509,3.9697,3.9697,3.9697,3.9697,3.9697,3.9697,3.9697,4.0036,4.1493,4.2336,4.3427,4.62,4.8435,5.0385,5.185,5.3884,5.539,5.5239,5.6326,5.7104,5.642,5.7474,5.8478,5.8478,5.8478,5.8202,5.743,5.733,5.6979,5.6093,5.5616,5.5257,5.4906,5.4177,5.3708,5.3708,5.3213,5.2895,5.2895,5.2561,5.2536,5.2895,5.2234,5.1774,5.159,5.1389,5.1289,5.1289,5.149,5.159,5.1599,5.2151,5.2201,5.19,5.2251,5.2385,5.2385,5.2385,5.2385,5.2385,5.2385,5.2611,5.2895,5.2895,5.2895,5.2895,0.0,0.0,0.0,0.0,0.0,2.9814,2.9814,2.9814,2.9814,2.9814,0.0,0.0,0.0,0.0,3.0557,3.11,3.1978,3.2516,3.2516,3.3545,3.4087,3.3897,3.4413,3.4703,3.4703,3.4527,3.4778,3.5508,3.5319,3.6183,3.8015,3.8404,3.9082,3.9973,4.0136,4.0437,4.075,4.0387,0.0,3.971,0.0,3.9484,3.9245,3.9973,0.0,0.0,0.0,0.0,0.0,3.9647,3.9697,3.9697,3.9697,3.9697,3.9697,3.9697,3.9697,3.9936,4.1054,4.1482,4.2322,4.5296,4.6577,4.7747,5.0167,5.185,5.3022,5.3356,5.4745,5.5723,5.5232,5.6187,5.7123,5.7298,5.7499,5.733,5.6577,5.6301,5.5849,5.4938,5.4662,5.4411,5.4059,5.3658,5.3414,5.3414,5.3113,5.2837,5.2636,5.2285,5.2176,5.236,5.1473,5.1013,5.1013,5.0812,5.0736,5.0736,5.0896,5.1013,5.1021,5.1574,5.1641,5.1314,5.1691,5.1825,5.1825,5.1825,5.1825,5.185,5.2026,5.231,5.2661,5.282,5.2895,5.2895,0.0,0.0,2.9814,2.9814,2.9814,2.9814,2.9804,2.9804,2.9839,2.9839,0.0,0.0,0.0,0.0,0.0,3.2204,3.2778,3.314,3.314,3.4137,3.4477,3.3972,3.4463,3.4753,3.4753,3.4237,3.4488,3.5533,3.5004,3.5844,3.7952,3.7965,3.8856,4.0412,3.9923,4.0287,4.1239,0.0,4.1264,4.1227,0.0,3.9735,3.9873,0.0,0.0,0.0,4.1127,4.1001,0.0,3.9948,3.976,3.9747,3.971,3.9697,3.9697,3.9697,3.9697,3.9697,0.0,0.0,0.0,4.4532,4.4543,4.5035,4.9933,5.0259,5.0117,5.2335,5.3239,5.3808,5.4446,5.5006,5.5541,5.6025,5.6602,5.6577,5.5491,5.4906,5.4353,5.3758,5.3213,5.2895,5.2895,5.2895,5.2895,5.2895,5.2887,5.2661,5.2126,5.2076,5.1825,5.1264,5.0695,5.0377,5.0352,4.9866,4.959,4.9565,5.0101,5.0377,5.0402,5.1013,5.1264,5.1239,5.1264,5.1264,5.1239,5.1264,5.1264,5.1339,5.1875,5.2101,5.2159,5.2711,5.2895,5.2895,0.0,2.9814,2.9814,2.9814,2.9814,2.993,3.0322,3.0372,3.0532,0.0,0.0,0.0,3.1185,3.1662,3.2355,3.3334,3.3571,3.3847,3.4237,3.4892,3.5218,3.5068,3.5604,3.5929,3.5929,3.5778,3.5854,3.6143,3.5993,3.623,3.6859,3.7248,3.7876,3.873,3.981,4.0236,4.0149,4.0149,0.0,4.1227,4.0136,4.0426,0.0,0.0,0.0,0.0,0.0,4.1742,4.2222,0.0,4.1217,4.0725,0.0,3.9697,3.9697,3.9697,3.9697,3.9697,3.9697,0.0,0.0,0.0,0.0,0.0,4.4899,4.6291,4.7732,4.9556,5.1013,5.2251,5.3206,5.4177,5.473,5.4436,5.5214,5.5465,5.4336,5.4034,5.3733,5.3188,5.2988,5.2895,5.2895,5.2895,5.2895,5.2895,5.2536,5.226,5.2126,5.1724,5.1088,5.0108,5.0277,5.0042,4.9254,4.948,4.9405,4.9044,4.9565,4.9816,4.9841,5.0393,5.0444,5.0092,5.0494,5.0419,5.0108,5.0494,5.0653,5.072,5.1272,5.1749,5.2159,5.2711,5.2895,5.2895,2.9814,2.9814,2.9854,3.0096,3.0121,3.0306,3.0849,3.0924,3.106,0.0,0.0,0.0,3.2401,3.2907,3.3498,3.4187,3.4438,3.4614,3.4703,3.5442,3.5757,3.5508,3.6093,3.6393,3.6393,3.6143,3.6143,3.6393,3.6143,3.6143,3.6393,3.6959,3.75,3.8053,3.9295,3.9772,3.9697,3.9697,0.0,0.0,4.0437,0.0,0.0,4.187,4.2523,0.0,0.0,0.0,4.4256,4.3478,4.266,0.0,0.0,0.0,0.0,0.0,0.0,0.0,0.0,0.0,4.0325,4.1567,0.0,0.0,4.3288,4.4156,4.5135,4.7019,4.8576,4.9891,5.0996,5.2319,5.3097,5.2771,5.3632,5.421,5.3758,5.3507,5.3239,5.2937,5.2895,5.2795,5.2586,5.2561,5.246,5.2234,5.195,5.1649,5.1406,5.087,5.0184,4.9305,4.9565,4.9314,4.8426,4.8978,4.9104,4.8818,4.9355,4.959,4.9615,4.9916,4.9891,4.9615,4.9941,4.9891,4.9615,4.9941,5.0067,5.0101,5.0695,5.1272,5.1825,5.236,5.2711,5.2895,0.0,2.9939,3.0131,3.0598,3.0748,3.0949,3.1497,3.1597,3.1597,0.0,3.2089,3.2807,3.3961,3.4463,3.4753,3.489,3.5269,3.5344,3.4915,3.5854,3.6143,3.562,3.6168,3.6468,3.6393,3.5944,3.5919,3.6393,3.5869,3.5894,3.6494,3.6984,3.7525,3.8115,3.8668,3.9195,3.9697,3.9697,0.0,3.9798,4.0939,4.1831,0.0,0.0,4.5056,4.5688,4.5612,4.5974,4.6286,4.5106,4.3991,0.0,0.0,0.0,0.0,0.0,4.0926,0.0,0.0,0.0,0.0,0.0,4.1831,0.0,4.3525,4.3176,4.2864,4.4884,4.611,4.7214,4.8476,5.0008,5.1063,5.0937,5.1983,5.3013,5.3532,5.3213,5.2887,5.2837,5.2795,5.2611,5.2076,5.2026,5.18,5.1339,5.1239,5.0896,5.0252,4.9766,4.9254,4.8718,4.8718,4.8426,4.7817,4.84,4.8718,4.8718,4.9254,4.954,4.959,4.959,4.959,4.959,4.959,4.959,4.959,4.959,4.959,4.964,5.0176,5.077,5.1364,5.19,5.2435,5.2895,3.0447,3.0783,3.112,3.122,3.1602,3.2089,3.2688,3.2763,3.2903,3.3355,3.3495,3.3986,3.5068,3.4904,3.5066,3.5979,3.5718,3.5656,3.6055,3.6267,3.6343,3.623,3.6758,3.6833,3.6393,3.6708,3.6696,3.6393,3.6281,3.6507,3.706,3.7148,3.7763,3.8743,3.8843,3.9195,3.9697,3.9697,0.0,3.9836,4.1406,0.0,4.4177,4.4478,4.5518,4.6722,4.6286,4.6778,4.7355,4.5824,4.4583,4.3438,0.0,0.0,0.0,0.0,0.0,0.0,0.0,0.0,0.0,0.0,0.0,0.0,4.1567,4.2082,4.309,4.394,4.4629,4.5708,4.7707,4.9088,4.9615,4.8711,5.0645,5.2435,5.2988,5.2962,5.2737,5.231,5.226,5.2051,5.1515,5.1465,5.1414,5.1314,5.0845,5.0142,4.9154,4.9003,4.8677,4.8083,4.8083,4.7817,4.7249,4.7792,4.8083,4.8083,4.8677,4.9179,4.959,4.959,4.959,4.959,4.959,4.959,4.959,4.959,4.959,4.964,5.0176,5.077,5.1364,5.19,5.2435,5.2895,3.1009,3.122,3.1486,3.1763,3.2265,3.2853,3.3406,3.3732,3.3986,3.4262,3.4527,3.4892,3.5433,3.5543,3.5778,3.6343,3.6369,3.6483,3.6783,3.706,3.7198,3.7198,3.7449,3.7475,3.7198,3.7475,3.7475,3.7198,3.7198,3.7349,3.7613,3.7914,3.8341,3.8894,3.9195,3.9459,3.9697,0.0,3.9697,3.9898,4.2096,0.0,4.4715,4.5834,4.7114,4.8319,4.8043,4.8661,4.9289,4.7355,4.6517,0.0,0.0,4.3388,4.3274,0.0,4.2546,4.2445,0.0,0.0,0.0,4.2484,0.0,0.0,0.0,4.1569,4.1907,4.2445,4.2758,4.346,4.5146,4.6125,4.6878,4.7415,4.8695,5.0101,5.1456,5.1908,5.19,5.1306,5.1021,5.0745,5.0485,5.0209,5.0033,5.0033,4.949,4.9063,4.8818,4.8501,4.8083,4.7516,4.7516,4.7224,4.6712,4.7239,4.7641,4.7908,4.8501,4.9079,4.959,4.959,4.959,4.959,4.959,4.959,4.959,4.959,4.959,4.9631,4.9891,5.0343,5.0921,5.1473,5.2051,5.2536,3.1597,3.1647,3.1899,3.243,3.3029,3.3581,3.4123,3.4589,3.4904,3.5015,3.5406,3.5745,3.5971,3.642,3.6795,3.7021,3.7235,3.7449,3.7675,3.7889,3.8002,3.8002,3.8115,3.8115,3.8002,3.8115,3.8115,3.8002,3.8002,3.8065,3.8191,3.8655,3.8944,3.907,3.9509,3.9697,3.9697,0.0,0.0,4.0224,0.0,4.394,4.4403,4.6813,4.8335,4.9163,4.959,5.0343,5.0795,4.8761,4.8309,4.82,4.5708,4.5196,0.0,0.0,0.0,0.0,0.0,0.0,0.0,0.0,0.0,4.2521,0.0,0.0,0.0,4.1441,4.1478,4.1793,4.2799,4.3528,4.4443,4.5934,4.6672,4.76,4.9072,4.9891,5.0284,5.0117,4.9515,4.9163,4.9264,4.8802,4.8526,4.8626,4.8083,4.7958,4.8451,4.8008,4.749,4.6973,4.6948,4.6722,4.6311,4.6722,4.7214,4.7741,4.835,4.8903,4.9455,4.954,4.959,4.959,4.9506,4.9455,4.9455,4.9455,4.9455,4.9455,4.9565,4.9992,5.0628,5.1113,5.1699,5.231,3.2305,3.2552,3.309,3.3621,3.4162,3.4703,3.5244,3.5357,3.5606,3.6142,3.6267,3.6658,3.7601,3.7789,0.0,0.0,0.0,0.0,3.9358,0.0,3.8002,3.8002,3.8504,3.8555,3.8015,3.8529,3.8529,3.8002,3.8002,3.8266,3.8793,3.8869,3.9132,3.9609,3.9672,3.9697,0.0,0.0,4.0236,0.0,4.3073,4.3277,0.0,4.5984,4.7274,4.7626,4.9599,5.0377,5.0302,0.0,4.84,4.7782,0.0,4.5824,4.5587,0.0,0.0,0.0,0.0,0.0,0.0,0.0,4.5834,0.0,0.0,0.0,4.3162,4.2286,0.0,4.2286,4.2889,0.0,0.0,4.2939,4.5196,4.6672,4.5417,4.6185,4.738,4.8802,4.8033,4.755,4.8043,4.7616,4.749,4.7983,4.7516,4.7224,4.7274,4.7224,4.6948,4.6411,4.6386,4.6361,4.6286,4.6361,4.6662,4.7199,4.7741,4.8309,4.8919,4.938,4.959,4.9565,4.9104,4.8894,4.8894,4.8894,4.8894,4.8944,4.9414,5.0243,5.1214,5.1264,5.195,5.2837,3.3334,3.3646,3.4098,3.4313,3.4803,3.5232,3.5458,3.6322,3.6923,3.6884,3.7436,3.814,0.0,0.0,0.0,0.0,0.0,3.9195,0.0,0.0,3.8994,3.8994,3.9233,3.9258,3.8994,3.922,3.9233,3.8994,3.8994,3.9132,3.9358,3.9358,3.9484,3.9697,3.9697,0.0,3.9722,0.0,4.0236,0.0,0.0,0.0,0.0,4.6592,4.8469,4.9181,5.0469,5.0921,5.0745,0.0,4.9289,0.0,0.0,0.0,0.0,0.0,0.0,0.0,0.0,0.0,0.0,0.0,0.0,0.0,4.3628,0.0,4.2738,0.0,0.0,0.0,0.0,0.0,0.0,0.0,4.4016,4.4819,4.507,4.497,4.5347,4.6718,4.6135,4.5744,4.5959,4.6085,4.6276,4.6476,4.5984,4.5944,4.6612,4.6336,4.621,4.6286,4.6286,4.6286,4.6286,4.6286,4.6587,4.7099,4.7324,4.7716,4.83,4.851,4.8611,4.8611,4.8375,4.8275,4.8284,4.8667,4.8793,4.8853,4.9405,5.0067,5.082,5.1163,5.1774,5.2485,3.4625,0.0,3.4753,3.4892,3.5232,3.562,3.5921,3.6998,3.7739,3.7688,3.8504,0.0,4.0288,4.0288,0.0,0.0,0.0,4.1053,0.0,0.0,3.9998,0.0,0.0,0.0,0.0,3.9697,3.9697,3.9697,3.9697,3.9697,3.9697,3.9697,3.9697,3.9697,3.9998,4.0149,4.0186,0.0,4.1354,4.1443,4.3201,4.3944,4.4335,4.722,4.9188,5.0452,5.0896,5.1163,5.1138,4.9967,4.9967,5.0126,4.8636,4.8451,0.0,0.0,0.0,0.0,4.6567,0.0,0.0,0.0,0.0,0.0,0.0,0.0,0.0,0.0,0.0,0.0,0.0,0.0,4.2858,4.3489,0.0,4.3754,4.4683,4.398,4.3829,4.5095,4.5006,4.4855,4.4855,4.5095,4.5246,4.5246,4.4704,4.4729,4.5558,4.5522,4.5688,4.6075,4.621,4.6286,4.6286,4.6286,4.6486,4.6873,4.7023,4.7299,4.7691,4.7817,4.7908,4.7892,4.7741,4.7767,4.7917,4.836,4.8667,4.8853,4.9405,4.9941,5.0452,5.0896,5.1398,5.195,3.622,3.5442,0.0,0.0,3.5483,3.5871,3.6972,3.7198,3.7612,0.0,0.0,0.0,0.0,0.0,0.0,0.0,0.0,4.4439,4.4439,0.0,4.0775,0.0,0.0,0.0,0.0,0.0,3.9697,3.9697,3.9697,3.9697,3.9697,3.9697,3.9697,3.9747,4.0775,4.1239,4.1364,4.2997,4.4317,4.5361,4.5974,4.7154,4.8476,0.0,4.852,5.0402,5.0427,5.0795,5.1138,4.9967,4.9967,5.0201,4.9129,4.8793,0.0,0.0,0.0,0.0,0.0,0.0,0.0,4.6838,0.0,0.0,0.0,0.0,4.5859,0.0,0.0,0.0,0.0,4.5407,4.5472,4.3366,4.389,0.0,0.0,4.2587,4.2838,4.4453,4.5121,4.5487,4.5487,4.4955,4.4629,4.4629,4.4127,4.384,4.389,4.4895,4.5512,4.5537,4.6024,4.6286,4.6286,4.6286,4.6311,4.6336,4.6848,4.7124,4.7149,4.7666,4.7908,4.7867,4.735,4.74,4.7908,4.7933,4.8275,4.8853,4.9405,4.9941,5.0402,5.0427,5.082,5.1414,3.735,0.0,0.0,0.0,0.0,3.6344,3.7098,3.8153,0.0,0.0,0.0,0.0,0.0,0.0,4.7129,0.0,0.0,4.6095,4.5759,4.3976,0.0,0.0,0.0,4.0575,0.0,0.0,0.0,3.9697,3.9697,3.9697,3.9697,3.9697,3.9697,3.9722,4.0462,4.0775,0.0,0.0,0.0,0.0,0.0,4.8043,4.9791,4.9038,4.9213,4.9916,5.0277,5.0318,5.0184,5.0142,5.0001,4.9816,4.9455,4.933,4.9254,4.8903,4.9179,4.9524,4.938,5.0268,5.0619,4.8008,0.0,0.0,0.0,0.0,0.0,0.0,0.0,0.0,0.0,4.493,4.4805,4.3714,4.384,4.3815,0.0,4.2838,4.3051,4.3966,4.3955,4.3718,4.3341,4.3452,4.3237,4.2482,4.2256,4.247,4.3226,4.3966,4.4733,4.5487,4.6024,4.6286,4.6286,4.6286,4.6286,4.6286,4.6486,4.6587,4.6587,4.6763,4.6838,4.6813,4.6662,4.6662,4.6888,4.7606,4.8033,4.8284,4.9213,4.9715,4.9916,5.0277,5.1005,5.19,3.8203,3.814,0.0,0.0,0.0,3.716,3.7713,0.0,0.0,0.0,4.5221,0.0,5.0193,0.0,5.0201,0.0,5.0126,4.8595,4.728,4.6175,0.0,4.3352,4.2772,0.0,0.0,0.0,0.0,0.0,0.0,4.0061,3.9697,3.9697,3.9697,3.9747,4.0676,4.1103,4.1279,4.3876,4.4754,0.0,0.0,4.8846,5.0076,4.9715,4.9841,5.0193,5.0142,5.0017,4.9916,5.0051,5.0167,5.0184,4.9941,5.0017,5.0092,4.9531,4.9866,5.0327,4.9992,5.082,5.1272,4.9063,4.8661,4.8218,4.5995,0.0,4.6677,0.0,0.0,0.0,0.0,4.5633,4.5257,4.4518,4.4217,4.3765,0.0,4.2889,4.3065,4.3201,4.3251,0.0,4.2788,4.2914,4.2548,4.1389,4.1289,4.1628,4.2359,4.3126,4.4016,4.5146,4.5723,4.6125,4.6286,4.6286,4.6286,4.6286,4.6286,4.6286,4.6286,4.6286,4.6286,4.6286,4.6286,4.6411,4.6662,4.7556,4.8033,4.8309,4.9238,4.959,4.964,4.9992,5.0845,5.19,3.8818,3.8479,0.0,0.0,3.8065,0.0,0.0,0.0,4.3503,0.0,4.7716,5.0469,5.2226,5.2837,5.3766,5.5383,5.4017,0.0,4.927,4.9019,0.0,0.0,4.4529,4.4252,4.3176,0.0,0.0,0.0,0.0,4.075,3.9772,3.9722,3.9697,3.9785,4.1431,4.2174,4.2375,4.5658,4.7124,4.7324,4.8962,4.9615,4.964,4.9615,5.0284,5.1113,5.0008,4.9941,5.0277,4.9766,5.0334,5.1113,5.0553,5.0795,5.1163,5.0603,5.0452,5.0477,5.0477,5.0921,5.1113,4.9983,5.0042,4.985,4.7701,4.8469,4.9188,0.0,0.0,0.0,0.0,0.0,4.6712,4.5612,4.4905,4.3991,4.2436,4.2688,4.2813,4.235,4.3165,0.0,0.0,0.0,4.2498,4.1339,4.1239,4.1239,4.1264,4.2333,4.3438,4.4529,4.5171,4.5748,4.6286,4.6286,4.6286,4.6286,4.6286,4.6286,4.6286,4.6286,4.6286,4.6286,4.6336,4.6637,4.7149,4.7716,4.8284,4.8853,4.9405,4.9615,4.964,4.964,5.0343,5.1389,3.9383,3.9383,3.927,0.0,3.8931,3.8718,0.0,0.0,0.0,0.0,5.0594,5.3758,5.6677,5.6358,5.6301,5.7173,5.6093,0.0,0.0,0.0,0.0,4.8771,4.7641,4.6552,4.5472,4.4629,0.0,4.2735,0.0,0.0,4.0876,4.0061,3.9697,3.9785,4.1431,4.1959,4.1742,4.5081,4.723,4.8451,4.928,4.9841,5.0151,4.9741,5.0017,5.0528,4.9841,4.969,4.9791,4.964,4.9791,5.0067,5.0327,5.0503,5.0695,5.0971,5.1348,5.1657,5.1657,5.2059,5.2226,5.1138,5.0619,5.0151,4.9188,4.9599,4.995,4.9138,4.9515,4.9423,4.7641,4.6888,4.601,4.4468,4.3765,4.3277,0.0,0.0,0.0,4.3352,0.0,0.0,4.2637,4.25,4.192,4.0789,4.0337,4.0287,4.0675,4.1808,4.2889,4.3966,4.4985,4.5748,4.6286,4.6286,4.6286,4.6286,4.6286,4.6286,4.6286,4.6286,4.6286,4.6311,4.6722,4.6973,4.7174,4.8159,4.8667,4.8853,4.9405,4.9841,5.0176,5.0176,5.067,5.1389,3.9647,0.0,0.0,3.9772,0.0,0.0,4.0753,4.2911,0.0,4.8426,5.1892,0.0,5.7022,5.7556,5.7983,5.8554,5.7575,0.0,5.4697,0.0,0.0,5.0896,5.0117,4.9012,4.7431,4.6286,0.0,4.3452,0.0,4.1153,4.0926,4.0099,3.9697,3.9785,4.1431,4.2009,4.1907,4.5231,4.7631,4.9179,4.948,4.9791,0.0,5.0516,5.0837,5.1148,5.1544,5.079,4.959,4.959,4.9766,5.0042,5.0619,5.0954,5.1256,5.1825,5.2209,5.246,5.246,5.2661,5.2762,5.2151,5.1732,5.1281,5.0535,5.0569,5.0645,5.0067,4.9816,4.9389,4.8369,4.6963,4.5397,4.3714,4.3201,0.0,0.0,0.0,0.0,0.0,4.3402,4.3126,4.2587,4.211,4.143,4.0563,4.0211,4.0186,4.0487,4.1582,4.2587,4.3427,4.4995,4.5874,4.5949,4.6652,4.6763,4.6286,4.6286,4.6286,4.6286,4.6286,4.6436,4.6687,4.6973,4.7099,4.7174,4.8058,4.84,4.8501,4.9305,4.9941,5.0402,5.0402,5.0946,5.1741,3.9697,0.0,0.0,0.0,0.0,0.0,0.0,4.4869,0.0,4.9204,0.0,5.5433,5.5968,5.77,5.9012,5.9558,0.0,5.7166,5.5175,5.5767,5.4863,5.1867,5.2101,5.1297,4.9154,4.8044,0.0,0.0,0.0,4.1771,4.0588,3.9973,3.9697,3.9785,4.1381,4.2269,4.2762,4.5853,4.8036,4.9466,4.9907,5.0018,5.0094,5.1694,5.2178,5.2194,5.382,5.2466,4.9902,4.9902,5.012,5.0503,5.1113,5.1666,5.2226,5.2737,5.2895,5.2895,5.2895,5.2895,5.2895,5.2895,5.2895,5.2661,5.1724,5.1515,5.1322,5.0754,4.9816,4.9195,4.9339,4.7145,4.4784,4.3266,0.0,0.0,0.0,0.0,0.0,0.0,0.0,0.0,4.3151,4.2144,4.1277,4.065,4.0538,4.0462,4.0387,4.1468,4.2336,4.2889,4.497,4.5974,4.5698,4.7104,4.739,4.6627,4.6461,4.6411,4.6411,4.6411,4.6662,4.7124,4.7249,4.7324,4.735,4.7892,4.8134,4.8234,4.9213,4.9941,5.0402,5.0477,5.1197,5.2176,0.0,0.0,0.0,0.0,0.0,4.7046,4.7692,4.9866,5.1958,5.3416,5.6538,5.8855,5.9363,5.9408,5.9583,6.0116,5.9187,0.0,0.0,0.0,0.0,5.4094,5.365,5.2603,5.0887,4.9955,4.8266,0.0,4.401,4.2486,4.1138,4.0174,3.9697,3.9747,4.0939,4.2555,4.4563,4.6684,4.7931,4.8707,5.1582,5.226,5.1756,5.3368,5.3157,5.2194,5.382,5.3172,5.157,5.157,5.1065,5.0503,5.1113,5.1666,5.2226,5.2737,5.2895,5.2895,5.2895,5.2895,5.2895,5.2895,5.2895,5.2845,5.2661,5.2611,5.246,5.1925,5.1314,5.0309,4.8535,4.5949,4.3854,4.3126,0.0,0.0,0.0,0.0,0.0,0.0,0.0,4.4252,4.3714,4.3076,4.2283,4.1252,4.075,4.0312,3.9848,4.0864,4.1731,4.2324,4.3991,4.5533,4.6813,4.7099,4.7616,4.835,4.7415,4.6948,4.6948,4.6948,4.7023,4.7149,4.8083,4.8501,4.8551,4.9063,4.9289,4.9314,4.9515,4.9941,5.0452,5.0946,5.1548,5.2109,0.0,0.0,0.0,0.0,0.0,0.0,0.0,5.6359,5.7375,5.5831,5.8368,6.0437,6.0711,6.1768,6.2558,6.2804,6.2392,6.1705,6.0806,6.0242,5.9131,5.7369,5.7016,0.0,5.4409,5.2359,5.0227,4.8062,4.4924,4.2684,4.1264,4.0186,3.9697,3.9786,4.1513,4.3618,4.597,4.8248,4.9659,5.0601,5.2972,5.3636,5.3429,5.4991,5.5095,5.4654,5.6266,5.5806,5.4223,5.2879,5.2643,5.2891,5.2576,5.2719,5.3019,5.3195,5.2902,5.2485,5.2485,5.2686,5.2895,5.2895,5.2895,5.2895,5.2895,5.2895,5.2762,5.2209,5.1674,5.051,4.7967,4.5949,4.4392,4.3553,0.0,0.0,0.0,0.0,0.0,0.0,0.0,0.0,0.0,4.3402,4.2836,4.1414,4.1076,4.0563,3.9747,4.1003,4.1756,4.1731,4.4177,4.5733,4.6261,4.7405,4.7958,4.7908,4.7641,4.7214,4.6672,4.6973,4.7249,4.7541,4.8083,4.8325,4.8335,4.8611,4.8887,4.9204,4.9506,5.0117,5.0896,5.1188,5.18,5.2511,0.0,4.4376,0.0,0.0,5.1836,5.5035,5.8895,6.216,6.2799,5.8937,6.0502,6.1969,6.1969,6.3899,6.5186,6.5186,6.4965,6.4413,6.3446,6.317,6.2037,5.9883,5.98,5.8976,5.7242,5.4671,5.2253,0.0,4.6236,4.352,4.172,4.0469,4.0029,4.0414,4.2667,4.4914,4.7217,4.9816,5.153,5.2642,5.4467,5.5069,5.5064,5.6622,5.7004,5.692,5.8509,5.8067,5.6394,5.4461,5.4563,5.5288,5.4155,5.4102,5.44,5.4069,5.3242,5.2463,5.2734,5.2767,5.2762,5.2887,5.2795,5.2737,5.2737,5.2636,5.241,5.1833,5.1222,5.0033,4.755,4.6311,4.5311,4.4166,0.0,0.0,0.0,0.0,0.0,0.0,0.0,0.0,4.309,4.3503,4.3162,4.1617,4.1378,4.0926,4.0099,4.1292,4.1845,4.1503,4.4378,4.5909,4.5849,4.7572,4.8159,4.7626,4.7817,4.7456,4.6662,4.7214,4.7691,4.8109,4.8209,4.8243,4.8243,4.8243,4.8535,4.9003,4.943,5.0234,5.1113,5.1264,5.19,5.2762,0.0,0.0,0.0,0.0,0.0,6.0783,6.0129,6.5325,6.8113,6.4825,6.4646,6.4807,6.4807,6.5066,6.5186,6.5186,6.4192,6.3529,6.3418,6.2369,6.1181,5.9855,5.98,5.8976,5.7242,5.654,5.4431,0.0,4.8806,4.6232,4.3151,4.1294,4.1118,4.2409,4.428,4.6249,4.8309,5.0867,5.2276,5.3039,5.6407,5.7235,5.6665,5.8262,5.797,5.692,5.8509,5.8067,5.6751,5.7037,5.6679,5.5933,5.4848,5.5514,5.651,5.5528,5.4396,5.3698,5.4797,5.3661,5.2285,5.2787,5.2536,5.2176,5.2176,5.18,5.1272,5.0678,4.9757,4.8626,4.7324,4.6637,4.5859,4.4704,4.4091,0.0,0.0,0.0,0.0,0.0,0.0,0.0,4.3215,4.3503,4.3327,4.2199,4.1617,4.1264,4.1177,4.1289,4.1617,4.2098,4.384,4.5468,4.6948,4.7149,4.7967,4.9339,4.8385,4.7857,4.7782,4.8375,4.8667,4.8727,4.9229,4.9439,4.9439,4.9439,4.9464,4.9531,4.9565,4.9967,5.0553,5.1113,5.1666,5.2234,0.0,0.0,0.0,5.8658,6.0544,6.2419,6.5026,6.8033,6.9538,6.8257,6.8392,6.8625,6.8625,6.8625,6.8625,6.8625,6.8177,6.7584,6.6796,6.6306,6.5289,6.3589,6.3138,6.2399,6.1297,5.9591,5.7148,0.0,0.0,4.9204,4.631,4.4769,4.4148,4.4452,4.6708,4.8362,4.9704,5.3103,5.4873,5.5584,5.7812,5.8478,5.825,5.9299,5.9311,5.8882,5.9939,5.9878,5.9374,5.9611,5.9184,5.835,5.7264,5.7458,5.7938,5.7525,5.6603,5.5654,5.5052,5.4514,5.3907,5.3111,5.2511,5.2101,5.2101,5.1691,5.1138,5.0528,4.9791,4.8912,4.7792,4.7124,4.6436,4.5321,4.4654,0.0,0.0,0.0,0.0,0.0,0.0,0.0,0.0,4.3176,4.3277,4.3176,4.2347,4.1681,4.1314,4.1642,4.1959,4.2199,4.3765,4.5106,4.6125,4.7089,4.7767,4.8118,4.8661,4.8394,4.7465,4.8375,4.8793,4.8818,4.9044,4.9305,4.9581,4.9254,4.9305,4.959,4.959,5.0142,5.0971,5.1214,5.185,5.2611,5.7298,5.7396,5.8773,6.3519,6.4049,6.5022,6.8744,6.9858,7.026,7.026,7.062,7.0889,7.0889,7.0889,7.0889,7.0889,7.056,6.9961,6.9064,6.8645,6.7597,6.5787,6.5233,0.0,6.3737,6.1746,5.9583,5.7283,5.4499,0.0,4.9398,4.8108,4.7419,4.7306,4.9696,5.1211,5.2247,5.5206,5.6838,5.7483,5.865,5.9219,5.9458,5.9921,6.022,6.0446,6.094,6.109,6.109,6.109,6.0655,5.9914,5.8856,5.8784,5.9058,5.8725,5.8041,5.7146,5.6268,5.5617,5.4922,5.3894,5.2742,5.1875,5.1875,5.1314,5.0636,5.0042,4.949,4.8812,4.7842,4.735,4.6798,4.5874,4.5106,4.4529,0.0,4.4141,0.0,0.0,4.3377,4.3352,4.3025,4.3014,4.3151,4.3553,4.2864,4.2336,4.2055,4.2121,4.235,4.2663,4.394,4.498,4.5723,4.7029,4.7566,4.735,4.8711,4.8736,4.7641,4.8601,4.9044,4.9044,4.9044,4.9254,4.9565,4.9179,4.9254,4.959,4.959,5.0309,5.1289,5.1289,5.1975,5.2895,6.1056,6.2257,6.3813,6.7335,6.9034,6.9901,6.9977,7.05,7.0889,7.0889,7.0889,7.0889,7.0889,7.0889,7.0889,7.0889,6.9752,6.9004,6.9004,6.7747,6.643,0.0,0.0,6.4411,6.3138,6.2435,6.1403,6.0057,0.0,5.4015,5.203,5.0738,5.0529,5.1326,5.3257,5.4897,5.6166,5.6838,5.7483,5.8145,5.8816,5.9488,6.01,6.01,6.0505,6.109,6.109,6.109,6.109,6.109,6.0655,5.9914,5.8856,5.9227,5.9858,5.8813,5.8132,5.7931,5.911,5.7097,5.4723,5.5255,5.3323,5.1314,5.1314,5.0435,4.948,4.8944,4.835,4.7741,4.7199,4.7099,4.6923,4.6386,4.5332,4.4805,0.0,4.4955,0.0,4.3865,4.4252,4.4152,4.3101,4.3014,4.3014,4.3014,4.3014,4.3226,4.374,4.2763,4.2688,4.374,4.4303,4.5156,4.6261,4.6823,4.7375,4.7908,4.8526,4.8793,4.8793,4.9355,4.959,4.959,4.959,4.959,4.959,4.959,4.959,4.959,4.959,5.0309,5.1289,5.1289,5.1975,5.2895,6.5133,6.6262,6.7516,6.909,6.9708,7.0007,7.0007,7.05,7.0739,7.0336,7.0649,7.0889,7.0889,7.0889,7.0889,7.0889,7.053,6.9931,6.9064,6.8585,6.7567,6.5757,6.5233,6.459,6.3722,6.3093,6.2135,6.0775,5.9702,5.7923,5.5482,5.4653,5.4412,5.47,5.6208,5.735,5.8231,5.9368,5.9953,6.0162,6.0372,6.0581,6.0835,6.1283,6.1583,6.1852,6.2315,6.2465,6.2405,6.1942,6.1642,6.1319,6.0513,6.0518,6.0783,6.0927,6.0049,5.9229,5.9976,5.7989,5.5564,5.4989,5.3575,5.2027,5.0933,4.9857,4.9003,4.8843,4.8309,4.7741,4.7199,4.7099,4.6923,4.6386,4.5698,4.5146,4.4905,0.0,4.3865,4.3327,4.3402,4.3528,4.3539,4.3201,4.3302,4.4041,4.3413,4.3076,4.3251,4.3277,4.3452,4.379,4.4719,4.5397,4.5748,4.7014,4.7541,4.7365,4.8711,4.9355,4.9355,4.9515,4.959,4.959,4.959,4.959,4.959,4.959,4.959,4.959,4.959,5.0309,5.1289,5.1289,5.1975,5.2895,6.7703,6.863,6.9512,6.9917,7.0187,7.0336,7.0336,7.0649,7.0769,7.0396,7.0679,7.0889,7.0889,7.0709,7.0649,7.0889,7.047,6.9842,6.9064,6.8525,6.7448,6.5697,6.5203,6.459,6.3677,6.3273,6.2674,6.1852,6.1104,5.9727,5.7842,5.7466,5.7406,5.7719,5.8756,5.9474,5.9893,6.0731,6.109,6.109,6.109,6.1239,6.1509,6.1942,6.2241,6.2525,6.2944,6.3108,6.3048,6.2614,6.2301,6.2032,6.1613,6.1493,6.1463,6.1373,6.0825,6.0311,6.0618,5.9304,5.7594,5.6667,5.4779,5.2643,5.0558,4.943,4.8793,4.8793,4.8159,4.7516,4.7174,4.6923,4.6672,4.6361,4.5673,4.5121,4.4955,4.4116,4.3452,0.0,4.3302,4.3427,4.3765,4.3503,4.3578,4.4252,4.3489,4.309,4.3277,4.3614,4.389,4.4077,4.4995,4.5673,4.61,4.7305,4.7857,4.7741,4.9012,4.959,4.959,4.959,4.959,4.959,4.959,4.959,4.959,4.959,4.959,4.959,4.959,5.0309,5.1289,5.1289,5.1975,5.2895,6.8944,6.9618,7.0067,7.0067,7.053,7.0889,7.0889,7.0889,7.0889,7.0889,7.0889,7.0889,7.0829,7.0336,7.0217,7.0709,6.9692,6.8974,6.8944,6.7762,6.646,6.5114,6.5024,6.4411,6.3183,6.3123,6.3108,6.3108,6.1178,5.9921,5.9308,5.9265,5.9608,6.028,6.0894,6.121,6.1239,6.1239,6.1239,6.1239,6.1239,6.1613,6.2181,6.2181,6.2555,6.3108,6.3108,6.3108,6.3108,6.3108,6.2674,6.2181,6.2181,6.2121,6.1852,6.0609,6.0586,6.1053,6.1182,6.0808,6.0235,5.9658,5.6615,5.3011,5.0236,4.9179,4.8793,4.8793,4.7892,4.7099,4.7099,4.6662,4.6301,4.6235,4.5332,4.478,4.5311,4.4005,4.3201,4.374,4.379,4.384,4.3915,4.389,4.3865,4.3915,4.3427,4.3327,4.384,4.389,4.4141,4.4654,4.5271,4.61,4.7099,4.7666,4.8259,4.8868,4.9355,4.959,4.959,4.959,4.959,4.959,4.959,4.959,4.959,4.959,4.959,4.959,4.959,5.0284,5.1239,5.1289,5.195,5.2845,6.9618,7.026,7.0679,7.0679,7.0799,7.0889,7.0889,7.0889,7.0889,7.0889,7.0889,7.0709,7.0277,7.0097,6.9858,6.9482,6.9183,6.8764,6.8271,6.7958,6.7164,6.5817,6.5263,6.462,6.3797,6.3333,6.3108,6.3108,6.2106,6.1567,6.1373,6.0864,6.0984,6.1613,6.1792,6.2151,6.2614,6.2614,6.2614,6.2614,6.2614,6.2734,6.2854,6.2854,6.2944,6.3108,6.3108,6.3108,6.3108,6.3108,6.2974,6.2854,6.2854,6.2525,6.2032,6.1702,6.0875,6.0414,6.2164,6.0895,5.92,5.9575,5.64,5.2565,5.0134,4.9179,4.8793,4.8793,4.7892,4.7099,4.7099,4.6662,4.6175,4.5748,4.5081,4.4503,4.4242,4.3503,4.3201,4.374,4.379,4.4141,4.4995,4.4694,4.4604,4.5045,4.4554,4.4278,4.4403,4.4844,4.516,4.5271,4.621,4.6848,4.7099,4.8083,4.8853,4.9414,4.9556,4.959,4.959,4.959,4.959,4.959,4.959,4.959,4.959,4.959,4.959,4.959,4.959,5.0017,5.067,5.1138,5.1716,5.2335,7.0306,7.044,7.056,7.0859,7.0679,7.059,7.0859,7.0889,7.0889,7.0889,7.0889,7.0769,7.044,7.0157,6.9858,6.9498,6.89,6.8391,6.8017,6.7703,6.7074,6.6056,6.5353,6.468,6.4006,6.3393,6.3108,6.3108,6.2734,6.2555,6.2555,6.2181,6.2211,6.2555,6.2555,6.2764,6.3108,6.3108,6.3108,6.3108,6.3108,6.3108,6.3108,6.3108,6.3108,6.3108,6.3108,6.3108,6.3108,6.3108,6.3108,6.3108,6.3108,6.2854,6.2555,6.2555,6.1712,6.1071,6.231,6.1712,6.0457,5.9493,5.6417,5.3128,5.1141,4.9888,4.9179,4.9179,4.8476,4.7792,4.7516,4.7039,4.6411,4.5638,4.498,4.4414,4.389,4.3327,4.3201,4.374,4.4016,4.4518,4.5412,4.5196,4.5146,4.5487,4.493,4.4729,4.4995,4.5547,4.5874,4.5874,4.6687,4.735,4.7883,4.8711,4.9305,4.959,4.959,4.959,4.959,4.959,4.959,4.959,4.959,4.959,4.959,4.959,4.959,4.959,4.959,5.0092,5.0845,5.1188,5.18,5.2511,7.05,7.026,7.0157,7.0679,7.0336,7.0157,7.0679,7.0769,7.0769,7.0769,7.0829,7.0829,7.0649,7.0157,6.9768,6.9558,6.8511,6.7898,6.7987,6.7373,6.6759,6.6191,6.5518,6.4829,6.4186,6.3452,6.3108,6.3108,6.3108,6.3108,6.3108,6.3108,6.3108,6.3108,6.3108,6.3108,6.3108,6.3108,6.3108,6.3108,6.3108,6.3108,6.3108,6.3108,6.3108,6.3108,6.3108,6.3108,6.3108,6.3108,6.3108,6.3108,6.3108,6.3108,6.3108,6.3108,6.2704,6.2241,6.2241,6.2674,6.2345,5.913,5.65,5.4144,5.2092,5.0569,4.959,4.959,4.9179,4.8626,4.8008,4.745,4.6722,4.5547,4.493,4.4378,4.3765,4.3352,4.3327,4.3865,4.4403,4.5006,4.5673,4.5723,4.5723,4.5723,4.5257,4.5206,4.5698,4.616,4.6486,4.6677,4.7114,4.7857,4.8919,4.938,4.959,4.959,4.959,4.959,4.959,4.959,4.959,4.959,4.959,4.959,4.959,4.959,4.959,4.9615,4.969,5.0318,5.1188,5.1364,5.2,5.2787,6.9153,6.9678,7.0037,7.0127,7.0067,7.0037,7.0127,7.0127,7.0127,7.0127,7.059,7.05,6.9423,6.9213,6.8704,6.7553,6.7284,6.7403,6.7958,6.7373,6.6954,6.6849,6.6191,6.5518,6.4845,6.3707,6.3108,6.3108,6.3108,6.3108,6.3108,6.3108,6.3108,6.3108,6.3108,6.3108,6.3108,6.3108,6.3108,6.3108,6.3108,6.3108,6.3108,6.3108,6.3108,6.3108,6.3108,6.3108,6.3108,6.3108,6.3108,6.3108,6.3108,6.3108,6.3108,6.3108,6.3048,6.2944,6.2944,6.3003,6.2069,5.7765,5.6336,5.4931,5.0895,4.9783,4.959,4.959,4.9179,4.8626,4.8008,4.745,4.6572,4.5006,4.4665,4.4252,4.3251,4.3452,4.3865,4.4414,4.4995,4.5748,4.6747,4.6848,4.6848,4.6848,4.6772,4.6747,4.6863,4.6923,4.7415,4.8375,4.8476,4.8827,4.9464,4.9565,4.959,4.959,4.959,4.959,4.959,4.959,4.959,4.959,4.959,4.959,4.959,4.959,4.959,4.964,5.0117,5.0377,5.067,5.1624,5.2076,5.2285,6.8944,6.9049,6.9169,6.9439,6.9259,6.9289,6.9917,6.9678,6.9692,7.038,7.044,7.0187,6.9618,6.9558,6.9123,6.8166,6.7762,6.7673,6.7987,6.7373,6.7014,6.7014,6.637,6.5518,6.447,6.3887,6.3422,6.3108,6.3108,6.3108,6.3108,6.3108,6.3108,6.3108,6.3108,6.3108,6.3108,6.3108,6.3108,6.3108,6.3108,6.3108,6.3108,6.3108,6.3108,6.3108,6.3108,6.3108,6.3108,6.3108,6.3108,6.3108,6.3108,6.3108,6.3108,6.3108,6.3108,6.3108,6.3108,6.2824,6.1814,5.878,5.7121,5.5366,5.2092,5.0655,4.9967,4.9665,4.9405,4.9053,4.8501,4.7933,4.7089,4.5733,4.5006,4.4428,4.394,4.384,4.4242,4.5382,4.5759,4.6351,4.744,4.7541,4.7541,4.7541,4.7541,4.7541,4.7541,4.7842,4.8275,4.8793,4.9079,4.9355,4.959,4.959,4.959,4.959,4.959,4.959,4.959,4.959,4.959,4.959,4.959,4.959,4.959,4.959,4.959,4.964,5.0176,5.0603,5.0971,5.18,5.2285,5.2561,6.8525,6.8375,6.8345,6.8704,6.8585,6.8704,6.9439,6.9379,6.9482,7.0141,7.0217,7.0037,6.9588,6.9678,6.9439,6.8615,6.8062,6.7778,6.7778,6.7284,6.7014,6.7014,6.637,6.5443,6.4276,6.4066,6.3707,6.3108,6.3108,6.3108,6.3108,6.3108,6.3108,6.3108,6.3108,6.3108,6.3108,6.3108,6.3108,6.3108,6.3108,6.3108,6.3108,6.3108,6.3108,6.3108,6.3108,6.3108,6.3108,6.3108,6.3108,6.3108,6.3108,6.3108,6.3108,6.3108,6.3108,6.3108,6.3108,6.2734,6.1883,6.0016,5.7987,5.5837,5.3544,5.1669,5.0277,4.9866,4.969,4.9455,4.8894,4.8325,4.7556,4.6461,4.5457,4.4754,4.4629,4.4367,4.4719,4.6135,4.6411,4.6913,4.8008,4.8109,4.8109,4.8109,4.8109,4.8109,4.8109,4.8551,4.8868,4.8978,4.938,4.959,4.959,4.959,4.959,4.959,4.959,4.9665,4.9791,4.9791,4.9791,4.9791,4.9791,4.9715,4.959,4.959,4.959,4.9665,5.0327,5.0896,5.1389,5.2051,5.2561,5.2895,6.7148,6.7613,6.8047,6.8077,6.8571,6.8764,6.8227,6.9169,6.9498,6.8377,6.9738,7.0141,6.8347,6.869,6.8555,6.7254,6.7104,6.7074,6.7074,6.7044,6.7014,6.7014,6.637,6.5667,6.4934,6.4321,6.3707,6.3108,6.3108,6.3108,6.3108,6.3108,6.3108,6.3108,6.3108,6.3108,6.3108,6.3108,6.3108,6.3108,6.3108,6.3108,6.3108,6.3108,6.3108,6.3108,6.3108,6.3108,6.3108,6.3108,6.3108,6.3108,6.3108,6.3108,6.3108,6.3108,6.3108,6.3108,6.3108,6.3063,6.2478,6.0235,5.8416,5.653,5.4251,5.2001,5.0402,5.0352,4.9941,4.9455,4.8894,4.8325,4.7556,4.6461,4.5824,4.5246,4.4679,4.5045,4.5598,4.6225,4.6722,4.749,4.8626,4.8727,4.8727,4.8727,4.8727,4.8727,4.8727,4.8768,4.9044,4.9531,4.9581,4.959,4.959,4.959,4.959,4.959,4.959,4.9866,5.0352,5.0352,5.0352,5.0352,5.0352,5.0067,4.959,4.959,4.959,4.9715,5.0812,5.1264,5.144,5.246,5.2887,5.2895,6.7014,6.7194,6.7373,6.7373,6.7583,6.7822,6.7987,6.8092,6.8271,6.8571,6.89,6.881,6.8077,6.8227,6.8002,6.7074,6.7014,6.7014,6.7014,6.7014,6.7014,6.7014,6.6775,6.6116,6.5024,6.4755,6.4126,6.3108,6.3108,6.3108,6.3108,6.3108,6.3108,6.3108,6.3108,6.3108,6.3108,6.3108,6.3108,6.3108,6.3108,6.3108,6.3108,6.3108,6.3108,6.3108,6.3108,6.3108,6.3108,6.3108,6.3108,6.3108,6.3108,6.3108,6.3108,6.3108,6.3108,6.3108,6.3108,6.3108,6.2642,6.067,5.9727,5.8382,5.5045,5.3621,5.26,5.1228,5.0494,5.0026,4.9841,4.9079,4.8184,4.7431,4.6838,4.6411,4.617,4.6361,4.6813,4.7747,4.8024,4.8476,4.9229,4.9305,4.9305,4.9305,4.9305,4.9305,4.9305,4.9305,4.9405,4.959,4.959,4.959,4.959,4.959,4.959,4.959,4.959,4.9891,5.0402,5.0402,5.0603,5.0946,5.0553,5.0494,5.0611,4.9907,4.9791,5.0193,5.0971,5.1289,5.144,5.2511,5.2895,5.2895,6.7014,6.7014,6.7014,6.7014,6.7164,6.7403,6.7643,6.7643,6.7807,6.8315,6.8511,6.8466,6.8047,6.8197,6.8032,6.7373,6.7134,6.7014,6.7014,6.7014,6.7014,6.7014,6.7014,6.637,6.5024,6.4994,6.4381,6.3108,6.3108,6.3108,6.3108,6.3108,6.3108,6.3108,6.3108,6.3108,6.3108,6.3108,6.3108,6.3108,6.3108,6.3108,6.3108,6.3108,6.3108,6.3108,6.3108,6.3108,6.3108,6.3108,6.3108,6.3108,6.3108,6.3108,6.3108,6.3108,6.3108,6.3108,6.3108,6.3108,6.2817,6.1614,6.09,5.979,5.7063,5.5478,5.4177,5.2653,5.1443,5.0695,5.0695,4.9807,4.8928,4.851,4.7817,4.735,4.735,4.7516,4.7933,4.8718,4.8953,4.9204,4.9565,4.959,4.959,4.959,4.959,4.959,4.959,4.959,4.959,4.959,4.959,4.959,4.959,4.959,4.959,4.959,4.9766,5.0042,5.0402,5.0779,5.0954,5.0996,5.0971,5.087,5.0711,5.0092,4.9967,5.0218,5.0795,5.1138,5.1414,5.231,5.2762,5.2895,6.7014,6.7014,6.6999,6.7014,6.7553,6.7778,6.7104,6.8136,6.8495,6.7178,6.875,6.9484,6.8137,6.86,6.8704,6.8047,6.7373,6.7014,6.7014,6.7014,6.7014,6.6984,6.6984,6.637,6.5024,6.4994,6.4381,6.3108,6.3108,6.3108,6.3108,6.3108,6.3108,6.3108,6.3108,6.3108,6.3108,6.3108,6.3108,6.3108,6.3108,6.3108,6.3108,6.3108,6.3108,6.3108,6.3108,6.3108,6.3108,6.3108,6.3108,6.3108,6.3108,6.3108,6.3108,6.3108,6.3108,6.3108,6.3108,6.3108,6.3108,6.3108,6.1792,6.0525,6.0495,5.7449,5.4656,5.4624,5.2869,5.1331,5.1314,5.0385,4.9615,4.959,4.8661,4.7917,4.7917,4.8426,4.8818,4.8818,4.928,4.959,4.959,4.959,4.959,4.959,4.959,4.959,4.959,4.959,4.959,4.959,4.959,4.959,4.959,4.959,4.959,4.9615,5.0142,5.0402,5.0452,5.1557,5.1456,5.0477,5.1599,5.1147,4.9665,5.0176,5.0092,4.9665,5.0176,5.077,5.1364,5.19,5.2435,5.2895,6.7014,6.661,6.646,6.6924,6.6759,6.67,6.6954,6.7328,6.7448,6.7044,6.7912,6.8287,6.7403,6.7912,6.8032,6.7373,6.7553,6.7703,6.7703,6.7703,6.7284,6.634,6.6311,6.5877,6.5024,6.453,6.3887,6.3108,6.3108,6.3108,6.3108,6.3108,6.3108,6.3108,6.3108,6.3108,6.3108,6.3108,6.3108,6.3108,6.3108,6.3108,6.3108,6.3108,6.3108,6.3108,6.3108,6.3108,6.3108,6.3108,6.3108,6.3108,6.3108,6.3108,6.3108,6.3108,6.3108,6.3108,6.3108,6.3108,6.3108,6.3108,6.2716,6.1998,6.0795,5.9594,5.805,5.5662,5.4341,5.3264,5.2085,5.1289,5.0535,4.9715,4.9983,5.0008,4.9213,4.9565,4.9916,4.9916,4.9715,4.959,4.959,4.959,4.959,4.959,4.959,4.959,4.959,4.959,4.959,4.959,4.959,4.959,4.959,4.959,4.959,4.959,4.9766,5.0042,5.0402,5.0754,5.0954,5.1063,5.1389,5.1465,5.1297,5.0653,5.0569,5.0761,5.0503,5.077,5.1364,5.19,5.2435,5.2895,6.655,6.6281,6.6131,6.652,6.649,6.652,6.6954,6.7014,6.7014,6.7014,6.7583,6.7868,6.7433,6.7778,6.7838,6.7433,6.7523,6.7583,6.7583,6.7583,6.7254,6.643,6.6131,6.5547,6.462,6.447,6.3977,6.3108,6.3333,6.3333,6.3108,6.3108,6.3108,6.3108,6.3108,6.3108,6.3108,6.3108,6.3108,6.3108,6.3108,6.3108,6.3108,6.3108,6.3108,6.3108,6.3108,6.3108,6.3108,6.3108,6.3108,6.3108,6.3108,6.3108,6.3108,6.3108,6.3108,6.3108,6.3108,6.3108,6.3108,6.3108,6.3108,6.2817,6.1762,6.099,5.9904,5.7839,5.6079,5.4607,5.3591,5.2413,5.1373,5.0695,5.0987,5.1063,5.0385,5.0745,5.0979,5.0795,5.067,5.0419,4.9967,4.9916,4.9841,4.9615,4.959,4.959,4.959,4.959,4.959,4.959,4.959,4.959,4.959,4.959,4.959,4.959,4.9816,4.9992,5.0117,5.0544,5.072,5.0661,5.1113,5.1239,5.1071,5.0603,5.0494,5.0586,5.0218,5.0569,5.1339,5.1649,5.226,5.2895,6.5787,6.5906,6.5906,6.5906,6.637,6.6775,6.6894,6.6909,6.6939,6.6984,6.7583,6.7987,6.7928,6.7958,6.7987,6.7928,6.7463,6.7194,6.7194,6.7194,6.7089,6.6909,6.634,6.5413,6.4126,6.462,6.4351,6.3197,6.3692,6.3632,6.3108,6.3108,6.3108,6.3108,6.3108,6.3108,6.3108,6.3108,6.3108,6.3108,6.3108,6.3108,6.3108,6.3108,6.3108,6.3108,6.3108,6.3108,6.3108,6.3108,6.3108,6.3108,6.3108,6.3108,6.3108,6.3108,6.3108,6.3108,6.3108,6.3108,6.3108,6.3108,6.3108,6.3108,6.3108,6.188,6.0705,6.0525,5.8013,5.5804,5.5666,5.4002,5.2565,5.2371,5.1951,5.1598,5.1406,5.18,5.19,5.1364,5.1674,5.1507,5.0427,5.0327,5.0126,4.964,4.964,4.9665,4.9665,4.9665,4.9665,4.9665,4.9631,4.959,4.959,4.959,4.959,4.9615,5.0117,5.0117,4.9715,5.0711,5.0611,4.9715,5.0761,5.0636,4.9715,5.0201,5.0101,4.9665,4.9615,5.0259,5.1239,5.1289,5.195,5.2837,6.5308,6.5218,6.5218,6.5218,6.4889,6.4994,6.6071,6.6221,6.64,6.6924,6.7583,6.7808,6.7284,6.7688,6.7808,6.7254,6.8046,6.8555,6.8555,6.8555,6.7867,6.6281,6.6071,6.5607,6.4785,6.4411,6.4066,6.3797,6.3452,6.3227,6.3108,6.3108,6.3108,6.3108,6.3108,6.3108,6.3108,6.3108,6.3108,6.3108,6.3108,6.3108,6.3108,6.3108,6.3108,6.3108,6.3108,6.3108,6.3108,6.3108,6.3108,6.3108,6.3108,6.3108,6.3108,6.3108,6.3108,6.3108,6.3108,6.3108,6.3108,6.3108,6.3108,6.3108,6.3108,6.2817,6.216,6.0795,5.9904,5.8996,5.7676,5.7035,5.6144,5.4344,5.4308,5.3915,5.2178,5.2026,5.19,5.1364,5.0996,5.0519,4.9841,4.9766,4.9715,4.9615,4.9992,5.0226,5.0226,5.0226,5.0226,5.0226,4.9816,4.959,4.959,4.959,4.959,4.959,4.9715,4.9941,5.0226,5.0042,5.0067,5.0226,5.0477,5.0452,5.0243,5.0352,5.0327,5.0176,4.9766,5.0017,5.0653,5.1138,5.1699,5.2335,6.453,6.453,6.453,6.453,6.45,6.4829,6.5847,6.5996,6.6251,6.6909,6.7313,6.7373,6.7044,6.7313,6.7373,6.7044,6.7643,6.8046,6.8046,6.8046,6.7567,6.652,6.649,6.6161,6.5488,6.4829,6.4321,6.4006,6.3677,6.3393,6.3108,6.3108,6.3108,6.3108,6.3108,6.3108,6.3108,6.3108,6.3108,6.3108,6.3108,6.3108,6.3108,6.3108,6.3108,6.3108,6.3108,6.3108,6.3108,6.3108,6.3108,6.3108,6.3108,6.3108,6.3108,6.3108,6.3108,6.3108,6.3108,6.3108,6.3108,6.3108,6.3108,6.3108,6.3108,6.3108,6.2846,6.1925,6.1065,6.0237,5.9336,5.8556,5.7609,5.6406,5.5748,5.4993,5.3845,5.2996,5.2285,5.1749,5.1398,5.0879,5.0067,4.9741,4.959,4.959,4.9866,5.0017,5.0017,5.0017,5.0017,5.0017,4.9741,4.959,4.959,4.959,4.959,4.959,4.9866,5.0126,5.0402,5.0101,5.0126,5.0377,5.0126,5.0017,5.0017,5.0017,5.0017,4.9992,4.9715,4.9941,5.0427,5.0745,5.1398,5.2176,6.3782,6.3917,6.3977,6.3857,6.4381,6.5069,6.5727,6.5936,6.6251,6.6909,6.7014,6.7014,6.7014,6.7014,6.7044,6.7164,6.7164,6.7164,6.7164,6.7164,6.7134,6.7014,6.7014,6.67,6.5996,6.5338,6.468,6.4006,6.3887,6.3602,6.3108,6.3108,6.3108,6.3108,6.3108,6.3108,6.3108,6.3108,6.3108,6.3108,6.3108,6.3108,6.3108,6.3108,6.3108,6.3108,6.3108,6.3108,6.3108,6.3108,6.3108,6.3108,6.3108,6.3108,6.3108,6.3108,6.3108,6.3108,6.3108,6.3108,6.3108,6.3108,6.3108,6.3108,6.3108,6.3108,6.3108,6.3108,6.1954,6.0945,6.0945,5.981,5.8775,5.8493,5.7213,5.6163,5.5896,5.44,5.3122,5.2582,5.211,5.1406,5.0352,4.9866,4.959,4.959,4.969,4.9741,4.9741,4.9741,4.9741,4.9741,4.964,4.959,4.959,4.959,4.959,4.9615,5.0268,5.0553,5.0553,5.0553,5.0553,5.0503,4.9967,4.969,4.959,4.959,4.959,4.959,4.959,4.9866,5.0277,5.0477,5.1205,5.2176,6.3303,6.3632,6.3842,6.3303,6.3722,6.4351,6.5024,6.5637,6.6251,6.6909,6.7014,6.7014,6.7014,6.7014,6.7224,6.7808,6.7868,6.7868,6.7868,6.7868,6.7628,6.7044,6.7014,6.67,6.5996,6.5338,6.468,6.4006,6.3482,6.3197,6.3108,6.3108,6.3108,6.3108,6.3108,6.3108,6.3108,6.3108,6.3108,6.3108,6.3108,6.3108,6.3108,6.3108,6.3108,6.3108,6.3108,6.3108,6.3108,6.3108,6.3108,6.3108,6.3108,6.3108,6.3108,6.3108,6.3108,6.3108,6.3108,6.3108,6.3108,6.3108,6.3108,6.3108,6.3108,6.3108,6.3108,6.3108,6.2904,6.2759,6.2759,6.2555,6.191,6.0404,5.995,5.9305,5.7835,5.6157,5.4872,5.4328,5.213,5.0377,4.9766,4.964,4.959,4.959,5.0026,5.0277,5.0277,5.0277,5.0277,5.0277,4.9841,4.959,4.959,4.959,4.959,4.9615,5.067,5.1188,5.1188,5.1188,5.1188,5.1163,5.0553,5.0026,4.959,4.959,4.959,4.959,4.959,4.964,4.9816,5.0795,5.1574,5.2176,6.3153,6.3303,6.3422,6.3168,6.3333,6.3827,6.4859,6.5233,6.5817,6.6849,6.7014,6.7014,6.7014,6.7014,6.7134,6.7403,6.7433,6.7433,6.7433,6.7433,6.7134,6.646,6.643,6.5951,6.4904,6.459,6.4126,6.3512,6.3213,6.3108,6.3108,6.3108,6.3108,6.3108,6.3108,6.3108,6.3108,6.3108,6.3108,6.3108,6.3108,6.3108,6.3108,6.3108,6.3108,6.3108,6.3108,6.3108,6.3108,6.3108,6.3108,6.3108,6.3108,6.3108,6.3108,6.3108,6.3108,6.3108,6.3108,6.3108,6.3108,6.3108,6.3108,6.3108,6.3108,6.3108,6.3108,6.3108,6.3108,6.3108,6.3108,6.3108,6.2846,6.2072,6.1154,6.0252,5.949,5.793,5.6519,5.5614,5.3356,5.16,5.1,5.0142,4.959,4.959,4.9816,4.9967,4.9967,4.9967,4.9967,4.9967,4.9715,4.959,4.959,4.959,4.959,4.9615,5.0419,5.0795,5.082,5.1163,5.1113,5.077,5.0193,4.9816,4.959,4.959,4.959,4.959,4.959,4.959,4.969,5.0494,5.0946,5.1297]}]]